[[{"header":{"parameterUnit":"m.s-1","parameterCategory":2,"la1":30.5641,"la2":29.4642,"lo1":-89.4342,"lo2":-87.9343,"dx":0.0333,"dy":0.0333,"nx":46,"ny":34,"refTime":"2023-01-15T00:00:00:Z","depth":"0","parameterNumber":2,"parameterNumberName":"U-component_of_CURRENTS"},"data":[0,0,0,0,0,0,0,0,0,0,0,0,0,0,0,0,0,0,0,0,0,0,0,0,0,0,0,0,0,0,0,0,0,0,0,0,0,0,0,0,0,0.003,0.0038,-0.0445,-0.0643,0,0,0,0,0,0,0,0,0,0,0,0,0,0,0,0,0,0,0,0,0,0,0,0,0,0,0,0,0,0,0,0,0,0,0,0,0,0,0,0,0,0,0.0019,-0.0442,-0.0714,-0.0371,0,0,0,0,0,0,0,0,0,0,0,0,0,0,0,0,0,0,0,0,0,0,0,0,0,0,0,0,0,0,0,0,0,0,0,0,0,0,0,0,0,0,0.0099,-0.0354,-0.0788,-0.0478,0,0,0,0,0,0,0,0,0,0,0,0,0,0,0,0,0,0,0,0,0,0,0,0,0,0,0,0,0,0,0,0,0,0,0,0,0,0,0,0,0,0,0.0291,-0.0472,-0.0901,-0.0725,0,0,0,0,0,0,0,0,0,0,0,0,0,0,0,0,0,0,0,0,0,0,0,0,0,0,0,0,0,0,0,0,0,0,0,0,0,0,0,0,0,0.0308,-0.0129,-0.0997,-0.106,-0.0739,0,0,0,0,0,0,0,0,0,0,0,0,0,0,0,0,0,0,0,0,0,0,0,0,0,0,0,0,0,0,0,0,0,0,0,0,0,0,0,0,0,-0.0077,-0.0887,-0.1579,-0.1354,-0.0846,0,0,0,0,0,0,0,0,0,0,0,0,0.0077,0.0201,0.0253,0.0277,0.0349,0.0497,0.0725,0.0851,0.0843,0,0,0,0,0,0,0,0,0,0,0,0,0.0266,0.0308,0.0082,0,0,0,0,0,-0.0209,-0.1123,-0.1791,-0.167,-0.1195,0,0,0,0,0,0,0,0,0,0.0102,0.0302,0.0445,0.0459,0.0393,0.039,0.0486,0.0563,0.0415,0.0118,-0.0266,-0.0813,-0.1126,-0.1052,-0.0915,-0.1077,-0.1483,-0.1684,0,0,0,0,0.0099,0.0478,0.0851,0.0651,0.0363,0,0,0,0,0,-0.0201,-0.0942,-0.1247,-0.0895,-0.0593,0,0,0,0,0.0261,0.0555,0.0607,0.0662,0.0739,0.0689,0.0547,0.0478,0.0486,0.0503,0.0538,0.0494,-0.0011,-0.0623,-0.0678,-0.0437,-0.0159,-0.0461,-0.0994,-0.1244,-0.1788,-0.1969,-0.0585,0.0316,-0.0137,-0.0308,-0.0231,-0.014,-0.0321,-0.0739,-0.1475,-0.2442,-0.2711,-0.2236,-0.1799,-0.1769,-0.1703,-0.1046,-0.1033,-0.1005,-0.0577,-0.0654,0,0,0,0.0829,0.1692,0.1486,0.1156,0.1022,0.0865,0.0615,0.0456,0.0472,0.0615,0.0621,0.0645,0.0819,0.1165,0.056,-0.0846,-0.1143,-0.0915,-0.128,-0.1478,-0.1112,-0.0764,-0.0654,-0.0066,0.0659,0.0711,0.05,0.0107,-0.0244,-0.0417,-0.0448,-0.0308,0.006,0.0157,0.0165,0.0302,0,0,0,-0.0132,-0.0558,-0.1187,-0.1645,0,0,0.0934,0.2101,0.2184,0.181,0.1563,0.1505,0.1313,0.1154,0,0,0,-0.0074,-0.0137,0.0374,0.0876,0,-0.1008,-0.1437,-0.086,0,0,0,0,0,0,0,-0.0714,-0.1151,-0.0786,-0.0478,-0.0135,0.0091,0.0187,0,0,-0.025,-0.0868,-0.1299,-0.0948,-0.017,0.1434,0.267,0,0,0,0.1019,0.2346,0.256,0.2241,0.1898,0.2022,0.2326,0.2192,0.1909,0.1541,0.1052,0.0467,-0.0148,-0.0382,0,0,0.0181,-0.0093,-0.0849,-0.0233,-0.0091,-0.1769,-0.2612,-0.245,-0.2247,-0.192,-0.1362,-0.1022,0,0,0,-0.0198,-0.0698,-0.1055,-0.1063,-0.0799,-0.0239,0.0255,0.0626,0.1027,0.1211,0,0.0096,0.0346,0.0821,0.1354,0.6501,0.5268,0.312,0.2068,0.1876,0.2269,0.2788,0.2881,0.2519,0.1989,0.1599,0.1187,0.0357,0.036,0.1176,0.1104,0.0819,0.0983,0.0964,0.1022,0.1151,0.0824,0.0486,0.0258,-0.0717,-0.1802,-0.1934,-0.1417,-0.1159,-0.1209,-0.1167,-0.0808,-0.0396,-0.0074,0.0242,0.0014,0.0003,0.0305,0.0453,0.0453,0.0233,0.0074,0.0731,0.1535,0.173,0.1813,0,0.0481,0.1123,0.1294,0.1689,0.2074,0,0,0.0481,0.1118,0.1233,0.1137,0.1038,0.122,0.1483,0.1401,0.125,0.1321,0.1379,0.1283,0.1014,0.0764,0.0662,0.0508,0.0294,-0.0019,-0.0244,0.0104,0.0283,0.003,-0.0074,0.0063,0.022,0.0244,0.0321,0.0346,0.0396,0.047,0.0555,0.0656,0.0819,0.089,0.1055,0.1357,0.1469,0.1491,0.4851,0.3494,0.1983,0.0997,0.0588,0,0,0,0.0253,0.0744,0.0992,0.0959,0.1077,0.1401,0.1604,0.1574,0.1681,0.1857,0.1703,0.1318,0.0862,0.056,0.0437,0.0349,0.0269,0.0206,0.0209,0.0363,0.0519,0.0574,0.0632,0.0706,0.0728,0.0687,0.061,0.0511,0.0475,0.0536,0.0651,0.078,0.0928,0.1077,0.1263,0.1464,0.1552,0.1524,0.0783,0.2046,0.2524,0,0,0,0,0,0.0305,0.0654,0.0725,0.0733,0.0926,0.1346,0.1681,0.1703,0.1873,0.2098,0.1799,0.1376,0.1005,0.0662,0.0478,0.0374,0.0228,0.0052,-0.0058,-0.0033,0.0019,0.0099,0.0253,0.0365,0.0426,0.047,0.05,0.0511,0.0516,0.0525,0.0571,0.067,0.0827,0.1019,0.1231,0.1464,0.1637,0.1673,0,0,0.0533,0.1132,0.1524,0.1849,0,0,0.0321,0.0514,0.0385,0.0376,0.0544,0.0909,0.1288,0.1362,0.1244,0,0.0497,0.1082,0.1044,0.0766,0.0566,0.0428,0.0203,-0.0093,-0.0338,-0.0439,-0.0467,-0.0428,-0.0302,-0.0176,-0.0088,0.0016,0.014,0.0258,0.0341,0.0393,0.0437,0.0486,0.0574,0.0717,0.0917,0.1165,0.1415,0.1596,0,0,0.0525,0.1178,0.1604,0.2318,0.2964,0.2933,0.2304,0.1706,0.114,0.0544,0.0231,0.0275,0.0533,0.0717,0.0426,0.0121,0,0.0428,0.0816,0.0684,0.0582,0.0552,0.0486,0.0341,0.0104,-0.0038,-0.0014,0.0036,0.0088,0.0168,0.0236,0.0283,0.0313,0.0352,0.0393,0.042,0.0423,0.0404,0.0398,0.045,0.0574,0.0764,0.1011,0.1283,0,0,0,0.0335,0.0673,0,0,0,0.0448,0.1038,0.1071,0.0753,0.0272,-0.0027,0.0003,0.0099,0.0071,0.0003,0,0.0396,0.0739,0.0607,0.0522,0.0547,0.0621,0.0659,0.0607,0.0508,0.0434,0.0409,0.0445,0.0536,0.0665,0.0808,0.0915,0.0945,0.0906,0.081,0.0676,0.0538,0.0445,0.0407,0.045,0.0593,0.0788,0.0989,0,0,0,0,0,0,0,-0.025,-0.0135,0.0456,0.0695,0.0662,0.0489,0.0266,0.0135,0.008,0.0038,0.0016,0,0.0357,0.0709,0.0593,0.0453,0.0439,0.0505,0.0527,0.0481,0.0445,0.0412,0.0426,0.0475,0.0522,0.0585,0.0692,0.0843,0.1016,0.1159,0.1211,0.1159,0.1025,0.0868,0.0775,0.072,0.07,0.0744,0.0808,0,0,0,0,0,0,-0.0266,-0.0412,-0.0069,0.0266,0.045,0.0563,0.0591,0.0439,0.0211,0.0088,0.0058,0.0055,0,0.0288,0.0618,0.0577,0.0412,0.0316,0.0308,0.0324,0.0335,0.0335,0.0332,0.036,0.0412,0.047,0.0538,0.0618,0.0722,0.0854,0.1003,0.1154,0.1294,0.139,0.1406,0.1362,0.1252,0.1088,0.0928,0.0816,0,0,0,0,0,0,-0.0044,-0.0275,-0.0184,0.019,0.0343,0.0522,0.0555,0.0371,0.0176,0.008,0,0,0,0.0214,0.0481,0.0494,0.0417,0.0335,0.0258,0.0253,0.0294,0.0316,0.033,0.0357,0.0404,0.0472,0.0547,0.0618,0.0684,0.075,0.0829,0.0928,0.1041,0.1165,0.1266,0.1318,0.1291,0.1184,0.1033,0.0868,0,0,0,0,0,0,0.0025,-0.0294,-0.0379,-0.008,0.0187,0.0439,0.0332,0.0217,0.0168,0.0077,0.0052,0,0,0.0129,0.0332,0.0385,0.0379,0.0382,0.0338,0.0297,0.0291,0.0291,0.0283,0.0297,0.0354,0.0445,0.0544,0.0621,0.0681,0.0731,0.078,0.0843,0.0904,0.0945,0.0953,0.0953,0.0967,0.0964,0.0868,0.0725,0,0,0,0,0,-0.064,-0.0761,-0.0599,-0.0698,-0.0253,0.0187,0.0423,0.0415,0,0.0016,0.003,0.0027,0,0,0.0077,0.0228,0.0286,0.0288,0.0332,0.0354,0.0341,0.0308,0.0264,0.025,0.0299,0.0401,0.0525,0.064,0.072,0.0764,0.0797,0.0829,0.0846,0.0879,0.0923,0.0917,0.084,0.0742,0.0692,0.064,0.0571,0,-0.0047,-0.008,-0.0099,0,-0.0536,-0.0489,-0.0168,-0.0401,-0.0179,0.0146,0.0264,0.0275,0.0124,-0.0038,-0.0016,-0.0003,0,0.0044,0.0115,0.019,0.0214,0.0201,0.0264,0.0332,0.036,0.0357,0.0319,0.0283,0.031,0.0412,0.0541,0.0665,0.075,0.0786,0.0805,0.0838,0.086,0.0857,0.0865,0.0865,0.0802,0.0673,0.056,0.0514,0.0516,0,-0.0049,0,-0.0049,-0.0099,0,-0.0003,-0.0099,-0.0181,-0.0088,0.0044,0.0093,0.0099,0.0033,-0.0044,-0.006,-0.0071,0,0.0008,0.0052,0.0129,0.0151,0.0124,0.0173,0.0299,0.0398,0.0426,0.0387,0.0365,0.0407,0.0511,0.0654,0.0802,0.0912,0.0928,0.0868,0.0819,0.0821,0.0835,0.0827,0.0794,0.0736,0.0623,0.0478,0.039,0.0409,0,-0.006,-0.014,-0.0192,-0.0316,-0.0634,-0.064,-0.0297,-0.0148,-0.0102,-0.0055,-0.0025,-0.0025,-0.0055,-0.011,-0.0143,0,-0.0005,-0.0011,0.0003,0.0049,0.0085,0.0066,0.0085,0.0225,0.0401,0.0494,0.0519,0.0563,0.0673,0.0846,0.1035,0.122,0.1398,0.1538,0.1527,0.1258,0.0945,0.0819,0.0805,0.078,0.0722,0.0629,0.0497,0.0363,0.0302,0.0063,0.0011,-0.0069,-0.0148,-0.0225,-0.0305,-0.0286,-0.0198,-0.0132,-0.0071,-0.0025,-0.0033,-0.0121,-0.0214,-0.0244,0,-0.0038,-0.0074,-0.0077,-0.0063,-0.0008,0.0025,0.0019,0.0047,0.0173,0.0327,0.0459,0.0656,0.0912,0.1214,0.1557,0.1854,0.2057,0.2192,0.2274,0.2368,0.2406,0.2024,0.1299,0.0862,0.0769,0.0725,0.067,0.0602,0.0508,0.0412,0.0044,0.0019,-0.0033,-0.0088,-0.0135,-0.0162,-0.0157,-0.0113,-0.0049,0.0025,0.0077,0.0099,0.011,0.0115,0,-0.0077,-0.0121,-0.0077,-0.0063,-0.006,-0.0069,-0.0066,-0.0025,0.0107,0.0272,0.0439,0.0764,0.1255,0.1805,0.2379,0.2925,0.3329,0.3546,0.3645,0.3686,0.367,0.3587,0.3502,0.3005,0.1862,0.1011,0.0824,0.0824,0.0829,0.0791,0.0709,0.0082,0.0044,0.0003,-0.0036,-0.0063,-0.0074,-0.0063,-0.0025,0.0052,0.0137,0.0195,0.0272,0.0313,0.025,0.0113,0.0052,0.0126,0.0214,0.0277,0.0236,0.011,0.0047,0.0165,0.0459,0.081,0.1277,0.1945,0.2686,0.3425,0.4054,0.4488,0.4743,0.4851,0.4856,0.4837,0.4818,0.4823,0.4785,0.4738,0.415,0.2549,0.1263,0.1014,0.1085,0.1134,0.1126,0.008,0.006,0.0038,0.0014,-0.0008,-0.0016,0.0,0.0069,0.0187,0.0269,0.0275,0.045,0.0599,0.0563,0.0563,0.0613,0.072,0.0786,0.0764,0.067,0.0621,0.0802,0.1217,0.1728,0.234,0.3054,0.3804,0.4526,0.5092,0.5449,0.5636,0.5699,0.5672,0.5584,0.546,0.5389,0.5441,0.5595,0.5705,0.5738,0.5079,0.3123,0.15,0.1181,0.1239,0.128,0.0102,0.0093,0.0082,0.0063,0.0038,0.0022,0.0025,0.0118,0.0407,0.0527,0.0445,0,0.0184,0.0486,0.0769,0.1093,0.1307,0.1299,0.1167,0.1231,0.1626,0.2214,0.2865,0.3562,0.4271,0.4928,0.5488,0.5908,0.6196,0.6394,0.6501,0.6496,0.6383,0.621,0.6007,0.5798,0.5672,0.5741,0.6051,0.6449,0.6729,0.5837,0.3367,0.1491,0.1038,0.0939,0.0143,0.0137,0.0126,0.0104,0.0074,0.0025,-0.0058,-0.0113,0,0.0093,0.0327,0.0382,0.0349,0.064,0.111,0.1456,0.1615,0.1725,0.1956,0.2412,0.3046,0.3705,0.4359,0.4988,0.5518,0.5919,0.621,0.6441,0.6622,0.6713,0.668,0.6521,0.6279,0.6048,0.5889,0.5784,0.5708,0.571,0.5892,0.6359,0.7037,0.777,0.7204,0.4183,0.1404,0.0637,0.0181,0.0173,0.0165,0.0154,0.0143,0.0143,0.0148,0,-0.0069,0.0135,0.0632,0.0846,0.0862,0.1085,0.1398,0.1681,0.2087,0.2596,0.315,0.3755,0.4419,0.5076,0.5653,0.6122,0.6457,0.6669,0.6784,0.6834,0.6782,0.6586,0.6249,0.5771,0.5257,0.4873,0.4713,0.4746,0.4873,0.5081,0.5367,0.5741,0.6364,0.732,0.8213,0.8635,0.7476,0.4592]},{"header":{"parameterUnit":"m.s-1","parameterCategory":2,"la1":30.5641,"la2":29.4642,"lo1":-89.4342,"lo2":-87.9343,"dx":0.0333,"dy":0.0333,"nx":46,"ny":34,"refTime":"2023-01-15T00:00:00:Z","depth":"0","parameterNumber":3,"parameterNumberName":"V-component_of_CURRENTS"},"data":[0,0,0,0,0,0,0,0,0,0,0,0,0,0,0,0,0,0,0,0,0,0,0,0,0,0,0,0,0,0,0,0,0,0,0,0,0,0,0,0,0,0.0222,0.0516,0.0332,-0.0695,0,0,0,0,0,0,0,0,0,0,0,0,0,0,0,0,0,0,0,0,0,0,0,0,0,0,0,0,0,0,0,0,0,0,0,0,0,0,0,0,0,0,-0.0041,0.1516,0.0505,-0.0827,0,0,0,0,0,0,0,0,0,0,0,0,0,0,0,0,0,0,0,0,0,0,0,0,0,0,0,0,0,0,0,0,0,0,0,0,0,0,0,0,0,0,0.0385,0.2192,0.0761,-0.1052,0,0,0,0,0,0,0,0,0,0,0,0,0,0,0,0,0,0,0,0,0,0,0,0,0,0,0,0,0,0,0,0,0,0,0,0,0,0,0,0,0,0,0.2145,0.2222,0.0728,-0.1231,0,0,0,0,0,0,0,0,0,0,0,0,0,0,0,0,0,0,0,0,0,0,0,0,0,0,0,0,0,0,0,0,0,0,0,0,0,0,0,0,0,0.0698,0.3134,0.203,0.0571,-0.1222,0,0,0,0,0,0,0,0,0,0,0,0,0,0,0,0,0,0,0,0,0,0,0,0,0,0,0,0,0,0,0,0,0,0,0,0,0,0,0,0,0,0.1123,0.303,0.1697,0.0541,-0.0945,0,0,0,0,0,0,0,0,0,0,0,0,0.0118,0.0036,-0.008,-0.0088,-0.0085,-0.0118,-0.0132,-0.0173,-0.0236,0,0,0,0,0,0,0,0,0,0,0,0,0.0478,0.045,0.0321,0,0,0,0,0,0.1008,0.3052,0.1327,0.053,-0.0459,0,0,0,0,0,0,0,0,0,0.0209,0.0157,0.0041,0.0052,-0.0027,-0.0121,-0.0195,-0.0209,-0.0124,-0.0181,-0.0415,-0.0428,-0.003,0.0159,0.0225,0.0415,0.0379,-0.1151,0,0,0,0,0.0173,0.0516,0.0428,0.081,0.1291,0,0,0,0,0,0.0722,0.3203,0.1173,0.0731,0.0426,0,0,0,0,0.0681,0.033,0.0113,0.0027,0.0008,0.0143,0.0124,0.0044,-0.0019,-0.0173,-0.0349,-0.0659,-0.0338,-0.0211,-0.0184,-0.0766,-0.0569,0.039,0.0599,0.0514,0.0596,0.0214,-0.0994,0.0857,0.081,0.0453,0.0786,0.0363,0.0423,0.0266,0.0805,0.1033,0.0486,0.1371,0.1876,0.0,0.0,0.0299,0.298,0.1783,0.1357,0.1464,0,0,0,0.1082,0.0728,0.0308,0.0052,-0.0055,-0.008,0.0055,0.0044,0.0025,-0.0014,-0.0486,-0.0648,-0.0445,0.0335,-0.0146,-0.0536,-0.1044,-0.0893,0.0407,0.0519,0.0401,0.039,0.0025,-0.0417,0.0428,0.0959,0.0126,0.0656,0.0613,0.0549,0.0104,0.0439,-0.0096,0.0242,0.136,0.1717,0,0,0,0.2093,0.2857,0.0876,0.0948,0,0,0.1225,0.1057,0.067,0.0269,0.0154,-0.0008,-0.0118,-0.0459,0,0,0,-0.0829,-0.0953,0.0066,0.0505,0,-0.1266,-0.1338,-0.1615,0,0,0,0,0,0,0,0.0217,-0.0102,0.0264,0.0335,0.0777,0.0179,0.0538,0,0,0.0994,0.103,0.0758,0.125,0.2931,0.0769,0.2604,0,0,0,0.1461,0.1316,0.1187,0.0667,0.0489,0.0761,0.0363,-0.0055,-0.0873,-0.0478,-0.0431,-0.0791,-0.1178,-0.1711,0,0,-0.0629,-0.1472,-0.1198,-0.1816,-0.045,-0.0025,0.0137,0.0019,0.0494,0.1239,0.1046,-0.0288,0,0,0,0.0233,0.0203,0.0385,0.0799,0.1192,0.0626,0.0566,0.075,0.1261,0.2362,0,0.15,0.1728,0.1508,0.136,0.0731,0.0602,0.0775,0.0678,0.0937,0.1533,0.0299,-0.0019,-0.0989,-0.0898,-0.0871,-0.0967,-0.1178,-0.2068,-0.1178,-0.0599,-0.0673,-0.1126,-0.0917,-0.1299,-0.053,-0.0371,-0.0313,-0.0283,0.0179,0.084,0.0577,-0.0093,0.0236,0.0497,0.0398,-0.0209,0.0217,0.0294,0.072,0.0948,0.0582,0.0588,0.0698,0.1049,0.1307,0.1071,0.0989,0.1447,0.1434,0.1324,0,0.0041,0.0574,0.0706,0.1,0.0928,0,0,-0.1033,-0.1302,-0.1338,-0.1082,-0.0884,-0.1453,-0.1035,-0.0676,-0.0514,-0.0585,-0.0681,-0.0753,-0.0569,-0.064,-0.0667,-0.0511,-0.0201,0.0168,0.0091,-0.0187,0.0176,0.0341,0.0321,0.0066,0.0417,0.0516,0.0645,0.0678,0.0574,0.0536,0.0629,0.0788,0.0783,0.0884,0.075,0.1035,0.1165,0.1118,-0.1184,-0.05,0.0363,0.0415,0.0423,0,0,0,-0.0862,-0.1231,-0.1266,-0.0893,-0.0717,-0.0887,-0.0884,-0.0711,0.0258,0.014,-0.0288,-0.0536,-0.0602,-0.0599,-0.0569,-0.0439,-0.0275,-0.0074,0.0091,-0.0011,0.0143,0.0126,0.0195,0.0275,0.0489,0.0555,0.0607,0.0629,0.0613,0.056,0.0607,0.0714,0.0709,0.0695,0.0731,0.0854,0.0868,0.0813,-0.0593,-0.0643,-0.1299,0,0,0,0,0,-0.0923,-0.1332,-0.1118,-0.0667,-0.0555,-0.0602,-0.0626,-0.0275,0.1203,0.0272,-0.0396,-0.058,-0.0739,-0.0678,-0.0577,-0.0478,-0.033,-0.0104,0.0052,0.0014,0.008,0.006,0.0176,0.0324,0.0453,0.05,0.053,0.0555,0.0563,0.0577,0.0629,0.0717,0.072,0.0736,0.0777,0.0797,0.0731,0.0626,0,0,-0.1928,-0.0478,0.0052,-0.1247,0,0,-0.0931,-0.1329,-0.0871,-0.0497,-0.0555,-0.0492,-0.0299,0.0121,0.1074,0,-0.0338,-0.0662,-0.0862,-0.0733,-0.056,-0.0525,-0.0453,-0.0294,-0.0118,-0.0091,0.0003,0.0137,0.0239,0.0327,0.0407,0.0445,0.0481,0.0483,0.0494,0.0555,0.0667,0.078,0.0802,0.0813,0.086,0.0857,0.0794,0.0678,0,0,-0.0739,-0.0297,0.0146,-0.0623,0.0,0.0,-0.1167,-0.1412,-0.0821,-0.0591,-0.0725,-0.056,-0.0352,0.0008,0.0393,0.003,0,-0.0442,-0.0761,-0.0648,-0.0478,-0.0492,-0.0508,-0.0396,-0.0165,-0.0008,0.0157,0.0313,0.0382,0.0448,0.0486,0.0494,0.0489,0.047,0.0464,0.0514,0.0662,0.0739,0.0775,0.0777,0.0854,0.0937,0.0928,0.0827,0,0,0,-0.0058,0.0118,0,0,0,-0.1277,-0.1632,-0.1206,-0.1003,-0.0873,-0.0522,-0.0363,-0.008,0.0124,0.0047,0,-0.0099,-0.0448,-0.0467,-0.0368,-0.0382,-0.0409,-0.033,-0.0096,0.0121,0.0308,0.0445,0.0541,0.0637,0.0676,0.0667,0.0613,0.0555,0.0483,0.045,0.0511,0.0547,0.0588,0.061,0.0714,0.0909,0.0975,0.0895,0,0,0,0,0,0,0,0.0217,-0.0948,-0.1563,-0.1497,-0.1354,-0.0865,-0.0288,-0.0159,-0.0041,0.0033,0.0074,0,0.0041,-0.0203,-0.0327,-0.0272,-0.0266,-0.028,-0.0264,-0.0121,0.0069,0.0299,0.0492,0.061,0.0709,0.0783,0.0827,0.0799,0.0725,0.0607,0.0481,0.0365,0.0343,0.0374,0.042,0.0549,0.0799,0.0967,0.0923,0,0,0,0,0,0,-0.0143,-0.0093,-0.0887,-0.1437,-0.1522,-0.145,-0.0632,-0.0069,-0.0049,-0.0019,0.0016,0.0044,0,0.0099,-0.0055,-0.0206,-0.0203,-0.0198,-0.0206,-0.0211,-0.011,0.0066,0.0335,0.056,0.0684,0.0777,0.0865,0.0915,0.0906,0.0835,0.072,0.0596,0.0437,0.0357,0.0343,0.0363,0.047,0.0709,0.0873,0.0843,0,0,0,0,0,0,-0.0379,-0.0489,-0.0838,-0.1261,-0.1522,-0.1274,-0.0365,0.0,-0.0025,-0.0027,0,0,0,0.0168,0.0085,-0.0077,-0.0129,-0.0151,-0.0162,-0.0146,-0.0022,0.0159,0.0426,0.0629,0.0761,0.0868,0.0945,0.0959,0.0939,0.0882,0.0797,0.07,0.0555,0.0481,0.0461,0.0459,0.0538,0.0687,0.0695,0.0604,0,0,0,0,0,0,-0.0838,-0.0508,-0.0621,-0.1236,-0.148,-0.089,-0.0269,0.0,-0.0063,-0.0044,0.0055,0,0,0.0258,0.0225,0.0052,-0.0022,-0.0071,-0.011,-0.0066,0.0069,0.0233,0.0483,0.07,0.0871,0.0992,0.1044,0.1038,0.1,0.0939,0.0879,0.0805,0.064,0.0525,0.0494,0.0497,0.0577,0.0673,0.0538,0.0341,0,0,0,0,0,0.0368,-0.0895,-0.0374,-0.0464,-0.1198,-0.1129,-0.0541,-0.028,0,-0.0102,-0.0036,0.0052,0,0,0.0363,0.0302,0.0148,0.0085,0.0033,-0.0041,0.0,0.0129,0.0269,0.0527,0.0816,0.1041,0.1159,0.1181,0.1151,0.1082,0.0986,0.0917,0.0857,0.07,0.053,0.042,0.0396,0.0475,0.0593,0.0426,0.019,0,0.0038,0.0,0.0162,0,0.0184,-0.0838,-0.0319,-0.0426,-0.0862,-0.0665,-0.0396,-0.0308,-0.0096,-0.0074,-0.0014,0.0052,0,0.0275,0.0407,0.0308,0.0206,0.0176,0.0137,0.0047,0.0085,0.0176,0.0302,0.0591,0.0959,0.1247,0.136,0.1349,0.1277,0.1165,0.1052,0.0917,0.0794,0.067,0.0489,0.033,0.0239,0.0308,0.0431,0.0332,0.0135,0,0.0099,0,0.0115,0.0143,0,-0.0937,-0.0371,-0.0448,-0.053,-0.045,-0.0376,-0.0305,-0.0137,-0.006,-0.0008,0.0027,0,0.0294,0.0401,0.0299,0.0244,0.025,0.022,0.0151,0.0195,0.0233,0.0335,0.0678,0.1173,0.1555,0.1706,0.1662,0.1541,0.139,0.1222,0.1011,0.0819,0.0599,0.0407,0.025,0.0096,0.0096,0.0214,0.0233,0.0118,0,0.0115,0.0038,0.0025,0.0036,-0.0151,-0.0673,-0.0412,-0.0431,-0.0417,-0.0409,-0.0376,-0.0297,-0.0168,-0.0113,-0.0011,0,0.0214,0.0313,0.036,0.0297,0.0277,0.0275,0.0264,0.0233,0.0277,0.0297,0.0409,0.0857,0.1544,0.2041,0.2211,0.2134,0.1936,0.1692,0.1467,0.1327,0.1099,0.0711,0.039,0.0159,-0.0019,-0.0069,0.0016,0.0132,0.014,-0.0011,0.0036,0.0005,-0.0058,-0.0115,-0.0192,-0.0365,-0.039,-0.0393,-0.0393,-0.0409,-0.0393,-0.033,-0.017,-0.0077,0,0.0135,0.0244,0.0302,0.0327,0.0302,0.0288,0.0266,0.0302,0.0288,0.036,0.0382,0.0634,0.1401,0.2291,0.2818,0.2947,0.2815,0.2538,0.2151,0.1728,0.1376,0.1261,0.1176,0.0687,0.0255,-0.0041,-0.0148,-0.0118,0.0014,0.0126,-0.0005,-0.0016,-0.0052,-0.0115,-0.0173,-0.0233,-0.0294,-0.033,-0.0349,-0.0376,-0.0401,-0.0368,-0.0305,-0.0195,0,0.008,0.0214,0.0308,0.0321,0.0343,0.033,0.0288,0.0316,0.0434,0.0412,0.0604,0.0884,0.1533,0.2549,0.3318,0.3617,0.3582,0.3359,0.3032,0.2618,0.2112,0.1527,0.1038,0.0981,0.111,0.0816,0.0209,-0.0091,-0.017,-0.0113,0.0008,-0.0016,-0.0055,-0.0096,-0.0148,-0.0198,-0.0236,-0.0264,-0.0283,-0.0302,-0.0349,-0.0371,-0.0258,-0.022,-0.0242,0.0088,0.0173,0.0374,0.0415,0.0387,0.0374,0.0371,0.0357,0.0503,0.0794,0.1101,0.1566,0.2195,0.2994,0.3634,0.3865,0.3777,0.3535,0.3222,0.2878,0.2524,0.2162,0.1725,0.1055,0.0387,0.0475,0.0978,0.0923,0.0266,-0.0071,-0.0181,-0.0159,-0.0047,-0.0085,-0.0126,-0.017,-0.0211,-0.0242,-0.025,-0.0236,-0.0225,-0.0332,-0.0368,-0.0091,-0.028,-0.0305,0.0036,0.0239,0.0376,0.0401,0.0324,0.028,0.0437,0.0775,0.1283,0.1879,0.2483,0.3002,0.3458,0.3766,0.3801,0.3664,0.3433,0.3156,0.2815,0.2428,0.2041,0.1686,0.1351,0.1035,0.0426,-0.0349,-0.0135,0.086,0.0975,0.0302,-0.0151,-0.0305,-0.0069,-0.0107,-0.0148,-0.0187,-0.0225,-0.025,-0.0244,-0.0129,-0.0085,-0.0525,-0.0613,0,-0.019,-0.0214,-0.0049,0.0074,0.022,0.0255,0.0195,0.0467,0.114,0.1958,0.2683,0.3192,0.3469,0.3612,0.3612,0.3529,0.3409,0.329,0.3153,0.2933,0.2596,0.2148,0.1675,0.1247,0.0904,0.0613,0.0357,-0.0236,-0.095,-0.0505,0.0651,0.0739,0.0124,-0.0157,-0.0088,-0.0126,-0.0162,-0.0201,-0.0239,-0.0288,-0.0313,-0.0027,0,-0.0684,-0.0725,0.0071,0.0074,0.0005,-0.0063,0.006,0.0286,0.0387,0.0755,0.1645,0.2604,0.328,0.3576,0.354,0.337,0.3197,0.3098,0.3134,0.3203,0.3208,0.3123,0.2854,0.2434,0.1903,0.1376,0.0882,0.0461,0.0135,-0.0102,-0.0324,-0.0857,-0.1299,-0.0742,0.0195,0.0368,0.0217,-0.0102,-0.0129,-0.0168,-0.0201,-0.0244,-0.031,-0.0497,0,0.0184,-0.0437,-0.0472,-0.0044,0.0096,0.0071,0.0124,0.0505,0.0926,0.1439,0.2274,0.3161,0.367,0.3779,0.359,0.3301,0.309,0.306,0.3194,0.3389,0.351,0.3461,0.3227,0.2799,0.2189,0.1483,0.0827,0.0266,-0.0176,-0.0516,-0.0813,-0.1115,-0.1442,-0.184,-0.1895,-0.1365,-0.0607,-0.0049]}],[{"header":{"parameterUnit":"m.s-1","parameterCategory":2,"la1":30.5641,"la2":29.4642,"lo1":-89.4342,"lo2":-87.9343,"dx":0.0333,"dy":0.0333,"nx":46,"ny":34,"refTime":"2023-01-15T00:00:00:Z","depth":"2","parameterNumber":2,"parameterNumberName":"U-component_of_CURRENTS"},"data":[0,0,0,0,0,0,0,0,0,0,0,0,0,0,0,0,0,0,0,0,0,0,0,0,0,0,0,0,0,0,0,0,0,0,0,0,0,0,0,0,0,0.0168,0.0448,0.0341,0.0291,0,0,0,0,0,0,0,0,0,0,0,0,0,0,0,0,0,0,0,0,0,0,0,0,0,0,0,0,0,0,0,0,0,0,0,0,0,0,0,0,0,0,0.0074,-0.0173,-0.0231,0.019,0,0,0,0,0,0,0,0,0,0,0,0,0,0,0,0,0,0,0,0,0,0,0,0,0,0,0,0,0,0,0,0,0,0,0,0,0,0,0,0,0,0,0.017,-0.006,-0.0294,-0.0008,0,0,0,0,0,0,0,0,0,0,0,0,0,0,0,0,0,0,0,0,0,0,0,0,0,0,0,0,0,0,0,0,0,0,0,0,0,0,0,0,0,0,0.0423,-0.0181,-0.0514,-0.0335,0,0,0,0,0,0,0,0,0,0,0,0,0,0,0,0,0,0,0,0,0,0,0,0,0,0,0,0,0,0,0,0,0,0,0,0,0,0,0,0,0,0.033,-0.0005,-0.0769,-0.0808,-0.0445,0,0,0,0,0,0,0,0,0,0,0,0,0,0,0,0,0,0,0,0,0,0,0,0,0,0,0,0,0,0,0,0,0,0,0,0,0,0,0,0,0,-0.006,-0.0786,-0.1415,-0.1189,-0.0659,0,0,0,0,0,0,0,0,0,0,0,0,0.0074,0.0195,0.025,0.0275,0.0346,0.0494,0.0725,0.0849,0.0843,0,0,0,0,0,0,0,0,0,0,0,0,0.0264,0.0305,0.0082,0,0,0,0,0,-0.0195,-0.1046,-0.1673,-0.1546,-0.1038,0,0,0,0,0,0,0,0,0,0.0099,0.0291,0.0434,0.0445,0.0382,0.0385,0.0478,0.0558,0.0415,0.0124,-0.0261,-0.0802,-0.1112,-0.1019,-0.0758,-0.0437,-0.0195,-0.0132,0,0,0,0,0.0102,0.0486,0.0854,0.07,0.0461,0,0,0,0,0,-0.0192,-0.0906,-0.1206,-0.0868,-0.056,0,0,0,0,0.0261,0.0549,0.0588,0.0626,0.0681,0.064,0.0522,0.0464,0.0475,0.0494,0.0525,0.0448,-0.0047,-0.0577,-0.0634,-0.0437,-0.0206,-0.0481,-0.0961,-0.122,-0.1653,-0.1472,-0.0673,-0.028,-0.0283,-0.0327,-0.0236,-0.014,-0.0313,-0.0714,-0.1362,-0.2217,-0.2576,-0.2181,-0.1618,-0.1524,-0.156,-0.1016,-0.1,-0.0961,-0.0533,-0.0585,0,0,0,0.0766,0.1557,0.1362,0.1052,0.0917,0.078,0.0574,0.0439,0.0459,0.0602,0.0607,0.0626,0.0772,0.103,0.0519,-0.0695,-0.1104,-0.0967,-0.084,-0.0758,-0.0643,-0.0563,-0.0623,-0.0135,0.0566,0.072,0.0475,0.0052,-0.0283,-0.0431,-0.0445,-0.0297,0.0077,0.017,0.0181,0.0316,0,0,0,-0.017,-0.0415,-0.0687,-0.103,0,0,0.0854,0.1903,0.1958,0.1629,0.1417,0.1349,0.1184,0.1066,0,0,0,-0.008,-0.0157,0.0349,0.0846,0,-0.0945,-0.1379,-0.0865,0,0,0,0,0,0,0,-0.0706,-0.1041,-0.0569,-0.0357,-0.0129,0.0091,0.019,0,0,-0.0244,-0.0849,-0.128,-0.0934,0.0044,0.1566,0.2524,0,0,0,0.0753,0.1917,0.2271,0.2033,0.1769,0.1906,0.2145,0.1961,0.1708,0.1415,0.0983,0.0434,-0.0148,-0.0368,0,0,0.0121,-0.0181,-0.0786,-0.0412,-0.0277,-0.1678,-0.2508,-0.2414,-0.2241,-0.1884,-0.1313,-0.0997,0,0,0,-0.0198,-0.0689,-0.1041,-0.1049,-0.0777,-0.022,0.0269,0.0632,0.1027,0.1211,0,0.0014,0.0275,0.0835,0.1368,0.5609,0.4307,0.2689,0.1906,0.1777,0.2118,0.2458,0.245,0.2189,0.1752,0.1373,0.1014,0.0338,0.0324,0.0961,0.0904,0.072,0.0904,0.0884,0.0928,0.109,0.0805,0.0478,0.0253,-0.0706,-0.1766,-0.1903,-0.1415,-0.1156,-0.12,-0.1154,-0.0799,-0.0385,-0.0066,0.025,0.003,0.0027,0.0327,0.0472,0.0472,0.0255,0.0124,0.0755,0.1508,0.1692,0.1769,0,0.0478,0.1104,0.1266,0.1453,0.1626,0,0,0.0442,0.0967,0.1014,0.0975,0.0964,0.1159,0.1373,0.1277,0.1159,0.1252,0.1338,0.1263,0.1008,0.0758,0.0659,0.0508,0.0297,-0.0011,-0.0233,0.011,0.0286,0.0038,-0.0063,0.0074,0.0233,0.0261,0.0341,0.0368,0.0417,0.0492,0.0574,0.0676,0.0835,0.0904,0.1068,0.1368,0.1472,0.1486,0.4268,0.3052,0.1827,0.0981,0.0585,0,0,0,0.0247,0.067,0.0862,0.0873,0.1025,0.1335,0.1502,0.1472,0.1607,0.1774,0.1632,0.1285,0.0851,0.0555,0.0434,0.0346,0.0272,0.0214,0.022,0.0371,0.0527,0.0582,0.064,0.0714,0.0739,0.0703,0.0626,0.053,0.0497,0.0558,0.0673,0.0802,0.0948,0.1096,0.1277,0.1475,0.1563,0.1533,0.07,0.1947,0.2494,0,0,0,0,0,0.0258,0.0547,0.064,0.0692,0.0884,0.1258,0.1566,0.1626,0.1805,0.1972,0.1662,0.131,0.0983,0.0654,0.047,0.0371,0.0231,0.0063,-0.0047,-0.0022,0.003,0.011,0.0264,0.0379,0.0442,0.0489,0.0516,0.0533,0.0538,0.0547,0.0596,0.0695,0.0849,0.1041,0.125,0.148,0.1651,0.1684,0,0,0.0483,0.0967,0.1387,0.1802,0,0,0.0179,0.0319,0.0327,0.0363,0.0525,0.0854,0.1198,0.1302,0.122,0,0.0475,0.1019,0.1014,0.0755,0.056,0.0426,0.0206,-0.0085,-0.0327,-0.0431,-0.0459,-0.0417,-0.0288,-0.0159,-0.0069,0.0036,0.0159,0.0277,0.0363,0.0415,0.0461,0.0511,0.0596,0.0739,0.0937,0.1184,0.1431,0.161,0,0,0.0577,0.1203,0.1467,0.2115,0.2541,0.2348,0.1876,0.1431,0.1014,0.0511,0.022,0.0258,0.0503,0.0684,0.0412,0.0113,0,0.0404,0.0797,0.0673,0.0574,0.0547,0.0483,0.0341,0.011,-0.0033,-0.0005,0.0047,0.0102,0.0181,0.0253,0.0299,0.0335,0.0374,0.0415,0.0445,0.0448,0.0428,0.0423,0.0472,0.0593,0.0786,0.103,0.1302,0,0,0,0.0335,0.0673,0,0,0,0.0308,0.0786,0.0887,0.0656,0.0239,-0.0036,-0.0003,0.0096,0.0069,0.0,0,0.0365,0.0714,0.0596,0.0514,0.0541,0.0615,0.0659,0.0607,0.0514,0.0439,0.0417,0.0456,0.0547,0.0678,0.0824,0.0931,0.0964,0.0926,0.0832,0.07,0.0563,0.047,0.0428,0.0472,0.0618,0.0813,0.1014,0,0,0,0,0,0,0,-0.0253,-0.0211,0.0291,0.0525,0.0533,0.0428,0.0253,0.0129,0.0077,0.0038,0.0016,0,0.0341,0.0681,0.0582,0.0445,0.0434,0.0503,0.0525,0.0483,0.0448,0.042,0.0434,0.0486,0.0533,0.0599,0.0706,0.086,0.1033,0.1176,0.1228,0.1176,0.1044,0.0887,0.0797,0.0742,0.0728,0.0775,0.0835,0,0,0,0,0,0,-0.0264,-0.0412,-0.0113,0.0173,0.033,0.0456,0.0538,0.0423,0.0203,0.0085,0.0058,0.0055,0,0.0277,0.0596,0.0563,0.0407,0.031,0.0305,0.0324,0.0338,0.0341,0.0341,0.0371,0.0423,0.0481,0.0552,0.0634,0.0739,0.0871,0.1019,0.117,0.131,0.1404,0.142,0.1379,0.1274,0.1112,0.0956,0.0846,0,0,0,0,0,0,-0.0044,-0.0275,-0.0192,0.0143,0.0247,0.0428,0.0516,0.0354,0.0168,0.0074,0,0,0,0.0206,0.0464,0.0481,0.0409,0.033,0.0253,0.0253,0.0297,0.0319,0.0338,0.0365,0.0415,0.0483,0.056,0.0632,0.07,0.0766,0.0849,0.0945,0.1057,0.1181,0.128,0.1332,0.1307,0.1203,0.1057,0.0893,0,0,0,0,0,0,0.0003,-0.0316,-0.0379,-0.011,0.011,0.0376,0.0316,0.0206,0.0159,0.0069,0.0047,0,0,0.0121,0.0316,0.0374,0.0371,0.0374,0.0332,0.0297,0.0294,0.0294,0.0288,0.0305,0.0363,0.0456,0.0555,0.0634,0.0698,0.0747,0.0799,0.0862,0.092,0.0959,0.097,0.0967,0.0983,0.0981,0.0887,0.0747,0,0,0,0,0,-0.0552,-0.0802,-0.0722,-0.0695,-0.0272,0.0143,0.0393,0.0398,0,0.0011,0.0022,0.0022,0,0,0.0071,0.0214,0.0272,0.028,0.0324,0.0349,0.0338,0.031,0.0269,0.0258,0.0308,0.0409,0.0536,0.0651,0.0733,0.0775,0.081,0.0846,0.0862,0.0895,0.0937,0.0934,0.0854,0.0758,0.0709,0.0659,0.0591,0,-0.0041,-0.0074,-0.0093,0,-0.028,-0.0387,-0.0324,-0.0404,-0.0181,0.014,0.0255,0.0266,0.0115,-0.0047,-0.0022,-0.0008,0,0.0041,0.0107,0.0176,0.0203,0.0192,0.0258,0.033,0.036,0.0357,0.0321,0.0288,0.0319,0.0423,0.0552,0.0676,0.0761,0.0797,0.0819,0.0851,0.0876,0.0876,0.0882,0.0882,0.0819,0.0692,0.058,0.053,0.0533,0,-0.0047,0,-0.0044,-0.0091,0,-0.0049,-0.0146,-0.0184,-0.0088,0.0041,0.0085,0.0091,0.0025,-0.0049,-0.0066,-0.0077,0,0.0005,0.0044,0.0115,0.014,0.0115,0.0168,0.0294,0.0398,0.0426,0.039,0.0371,0.0415,0.0519,0.0665,0.081,0.092,0.0937,0.0879,0.0829,0.0835,0.0851,0.0843,0.0813,0.0753,0.0643,0.0497,0.0409,0.0426,0,-0.0055,-0.0129,-0.0184,-0.031,-0.0615,-0.0615,-0.0291,-0.0148,-0.0104,-0.0063,-0.0036,-0.0036,-0.0063,-0.0115,-0.0148,0,-0.0008,-0.0016,-0.0005,0.0038,0.0074,0.006,0.0082,0.0225,0.0401,0.0494,0.0519,0.0566,0.0678,0.0851,0.1044,0.1222,0.1398,0.1535,0.1527,0.1263,0.0953,0.0832,0.0821,0.0797,0.0739,0.0645,0.0514,0.0379,0.0321,0.0069,0.0016,-0.006,-0.014,-0.022,-0.0299,-0.0283,-0.0195,-0.0135,-0.008,-0.0036,-0.0047,-0.0129,-0.022,-0.0247,0,-0.0041,-0.008,-0.0085,-0.0074,-0.0016,0.0016,0.0014,0.0047,0.0173,0.033,0.0459,0.0654,0.0912,0.1217,0.1557,0.1851,0.2049,0.2178,0.2255,0.234,0.2384,0.2016,0.1302,0.0873,0.0786,0.0742,0.0689,0.0618,0.0525,0.0428,0.0052,0.0027,-0.0025,-0.008,-0.0126,-0.0157,-0.0151,-0.0113,-0.0052,0.0014,0.006,0.0082,0.0096,0.0104,0,-0.008,-0.0126,-0.0085,-0.0071,-0.0071,-0.0077,-0.0071,-0.0027,0.0107,0.0275,0.0439,0.0755,0.1244,0.1791,0.2359,0.2903,0.3304,0.3521,0.3617,0.3653,0.3631,0.3538,0.3447,0.2969,0.1854,0.1022,0.084,0.0843,0.0849,0.0808,0.0725,0.0091,0.0052,0.0011,-0.0027,-0.0055,-0.0069,-0.006,-0.0025,0.0047,0.0126,0.0181,0.0253,0.0294,0.0233,0.0096,0.0036,0.0113,0.0201,0.0264,0.0225,0.0102,0.0044,0.0162,0.045,0.0794,0.1247,0.1898,0.2631,0.3359,0.3977,0.4408,0.4667,0.4787,0.4809,0.4793,0.4771,0.4765,0.4713,0.4653,0.4079,0.2524,0.1272,0.103,0.1101,0.1148,0.114,0.0091,0.0069,0.0047,0.0022,0.0,-0.0011,0.0003,0.0066,0.0179,0.0255,0.0261,0.0434,0.0577,0.0541,0.0544,0.0593,0.0698,0.0766,0.075,0.0659,0.061,0.0783,0.1184,0.1673,0.2261,0.2955,0.3689,0.4397,0.4949,0.5304,0.5499,0.5581,0.5581,0.5515,0.5411,0.5353,0.5403,0.5546,0.5631,0.5636,0.4988,0.3093,0.1511,0.1198,0.1252,0.1294,0.011,0.0102,0.0088,0.0069,0.0047,0.0027,0.0027,0.0115,0.0396,0.0511,0.0428,0,0.0179,0.0472,0.0753,0.1068,0.1285,0.128,0.1148,0.1206,0.1593,0.2167,0.2793,0.3458,0.4139,0.4779,0.5323,0.5735,0.6029,0.6238,0.6361,0.6375,0.6287,0.6142,0.596,0.5771,0.565,0.5719,0.6018,0.6391,0.6639,0.5754,0.334,0.1502,0.1052,0.0956,0.0148,0.0143,0.0129,0.011,0.008,0.003,-0.0058,-0.0113,0,0.0091,0.0313,0.0365,0.0335,0.0623,0.109,0.1439,0.1599,0.1703,0.1923,0.237,0.2991,0.3631,0.4249,0.4848,0.535,0.573,0.6023,0.6273,0.6474,0.6586,0.6573,0.6427,0.6205,0.5993,0.5859,0.5771,0.5705,0.5708,0.5889,0.635,0.7012,0.7718,0.7147,0.4164,0.1409,0.0651,0.0187,0.0179,0.0168,0.0157,0.0146,0.0146,0.0148,0,-0.0066,0.0135,0.0621,0.0827,0.0843,0.1066,0.1379,0.1662,0.2063,0.256,0.3109,0.3702,0.434,0.4955,0.5488,0.5938,0.629,0.6537,0.6696,0.6771,0.6732,0.6545,0.6202,0.5721,0.5216,0.4851,0.4708,0.4746,0.4878,0.509,0.5372,0.5746,0.6364,0.7314,0.8191,0.8586,0.7432,0.4581]},{"header":{"parameterUnit":"m.s-1","parameterCategory":2,"la1":30.5641,"la2":29.4642,"lo1":-89.4342,"lo2":-87.9343,"dx":0.0333,"dy":0.0333,"nx":46,"ny":34,"refTime":"2023-01-15T00:00:00:Z","depth":"2","parameterNumber":3,"parameterNumberName":"V-component_of_CURRENTS"},"data":[0,0,0,0,0,0,0,0,0,0,0,0,0,0,0,0,0,0,0,0,0,0,0,0,0,0,0,0,0,0,0,0,0,0,0,0,0,0,0,0,0,-0.0041,0.0396,0.0173,-0.1123,0,0,0,0,0,0,0,0,0,0,0,0,0,0,0,0,0,0,0,0,0,0,0,0,0,0,0,0,0,0,0,0,0,0,0,0,0,0,0,0,0,0,-0.0222,0.1382,0.0294,-0.1288,0,0,0,0,0,0,0,0,0,0,0,0,0,0,0,0,0,0,0,0,0,0,0,0,0,0,0,0,0,0,0,0,0,0,0,0,0,0,0,0,0,0,0.0299,0.2002,0.0505,-0.153,0,0,0,0,0,0,0,0,0,0,0,0,0,0,0,0,0,0,0,0,0,0,0,0,0,0,0,0,0,0,0,0,0,0,0,0,0,0,0,0,0,0,0.2008,0.1983,0.042,-0.1728,0,0,0,0,0,0,0,0,0,0,0,0,0,0,0,0,0,0,0,0,0,0,0,0,0,0,0,0,0,0,0,0,0,0,0,0,0,0,0,0,0,0.058,0.2939,0.1758,0.0228,-0.1755,0,0,0,0,0,0,0,0,0,0,0,0,0,0,0,0,0,0,0,0,0,0,0,0,0,0,0,0,0,0,0,0,0,0,0,0,0,0,0,0,0,0.1063,0.2846,0.1447,0.0225,-0.1467,0,0,0,0,0,0,0,0,0,0,0,0,0.0104,0.0027,-0.0085,-0.0093,-0.0088,-0.0129,-0.0146,-0.019,-0.0258,0,0,0,0,0,0,0,0,0,0,0,0,0.0404,0.0343,0.0195,0,0,0,0,0,0.0923,0.29,0.1134,0.0335,-0.0805,0,0,0,0,0,0,0,0,0,0.0184,0.014,0.0025,0.0038,-0.0041,-0.0135,-0.0209,-0.022,-0.0148,-0.0217,-0.0437,-0.0456,-0.0063,0.0074,0.0036,-0.0077,-0.1019,-0.1494,0,0,0,0,0.0099,0.0442,0.0335,0.0547,0.0895,0,0,0,0,0,0.0602,0.3065,0.1,0.0582,0.0192,0,0,0,0,0.0651,0.0305,0.008,-0.0005,-0.003,0.0113,0.0102,0.0022,-0.0044,-0.0195,-0.0371,-0.0706,-0.0448,-0.0338,-0.0288,-0.0821,-0.0849,-0.0173,0.0049,0.0096,0.0041,-0.0607,-0.1412,-0.0286,0.0385,0.0209,0.0626,0.0247,0.0321,0.014,0.0428,0.0615,0.017,0.1261,0.1643,0.0,0.0,0.0228,0.278,0.139,0.081,0.0838,0,0,0,0.0747,0.0591,0.0228,0.0,-0.0096,-0.0124,0.0005,0.003,0.0011,-0.0027,-0.0511,-0.0676,-0.058,0.0151,-0.025,-0.0698,-0.1382,-0.1544,-0.014,0.0014,0.0077,0.008,-0.0099,-0.0665,-0.0143,0.0648,-0.0231,0.0258,0.0203,0.0308,-0.0019,0.0195,-0.0184,0.0085,0.1236,0.1511,0,0,0,0.1494,0.2329,0.0412,0.0453,0,0,0.0662,0.0709,0.0478,0.0137,0.0025,-0.0115,-0.022,-0.0536,0,0,0,-0.0871,-0.1,-0.0036,0.0423,0,-0.1426,-0.1884,-0.2401,0,0,0,0,0,0,0,0.0025,-0.0335,-0.0055,0.0005,0.042,0.0071,0.039,0,0,0.0849,0.0871,0.0621,0.1132,0.2423,0.0299,0.2093,0,0,0,0.0492,0.089,0.0893,0.0494,0.0302,0.0486,0.0058,-0.0277,-0.0978,-0.0604,-0.0525,-0.0898,-0.125,-0.181,0,0,-0.0868,-0.1604,-0.1629,-0.2461,-0.0849,-0.0165,0.0011,-0.0063,0.0434,0.1101,0.0816,-0.0472,0,0,0,-0.0016,0.0091,0.0253,0.0659,0.1052,0.0483,0.0426,0.0604,0.1121,0.2005,0,0.0912,0.1217,0.1283,0.1104,0.0247,0.0316,0.0544,0.0472,0.0645,0.1134,0.008,-0.0168,-0.1123,-0.1019,-0.0983,-0.109,-0.1307,-0.2225,-0.1354,-0.0766,-0.0862,-0.1233,-0.1162,-0.1574,-0.072,-0.0456,-0.0387,-0.0346,0.011,0.0733,0.0456,-0.0206,0.0135,0.0382,0.0283,-0.0332,0.0096,0.017,0.0585,0.0808,0.0445,0.0453,0.0558,0.0898,0.1134,0.0879,0.0634,0.1148,0.1165,0.1046,0,-0.0222,0.0327,0.05,0.0799,0.0717,0,0,-0.1129,-0.1434,-0.1478,-0.1231,-0.1027,-0.1612,-0.1206,-0.0838,-0.0659,-0.0698,-0.0791,-0.0832,-0.0634,-0.0695,-0.0725,-0.0574,-0.028,0.0077,0.0003,-0.028,0.0066,0.022,0.0198,-0.006,0.0286,0.0379,0.0505,0.053,0.0426,0.039,0.0481,0.064,0.0634,0.0717,0.0588,0.0846,0.0934,0.0862,-0.1324,-0.0775,0.0121,0.0308,0.0396,0,0,0,-0.0901,-0.1376,-0.1406,-0.103,-0.0832,-0.1022,-0.1044,-0.0873,0.0093,-0.0058,-0.0442,-0.0629,-0.0665,-0.0654,-0.0629,-0.0505,-0.0349,-0.0159,-0.0005,-0.0113,0.0027,0.0,0.0063,0.014,0.0346,0.0409,0.0459,0.0481,0.0461,0.0409,0.0456,0.056,0.0555,0.0538,0.0571,0.0684,0.0689,0.0623,-0.0662,-0.0797,-0.1505,0,0,0,0,0,-0.1055,-0.1489,-0.1236,-0.0753,-0.0645,-0.0739,-0.0794,-0.045,0.103,0.0143,-0.0563,-0.0706,-0.0813,-0.0739,-0.064,-0.0544,-0.0404,-0.0187,-0.0041,-0.0082,-0.0027,-0.0052,0.0055,0.0198,0.0319,0.036,0.0387,0.0409,0.0415,0.0428,0.0478,0.0563,0.0563,0.058,0.0615,0.0629,0.056,0.0448,0,0,-0.2318,-0.1145,-0.0445,-0.1368,0,0,-0.1074,-0.1513,-0.1005,-0.0563,-0.0618,-0.0607,-0.0456,-0.0041,0.0953,0,-0.0398,-0.0783,-0.0945,-0.0799,-0.0626,-0.0593,-0.0527,-0.0374,-0.0203,-0.0187,-0.0099,0.0027,0.0124,0.0203,0.0277,0.0313,0.0346,0.0346,0.0354,0.0409,0.0519,0.0629,0.0645,0.0656,0.07,0.0692,0.0621,0.05,0,0,-0.1033,-0.0676,-0.0126,-0.0684,0.0,0.0,-0.1291,-0.1632,-0.1,-0.0692,-0.0772,-0.0623,-0.0442,-0.0088,0.0327,-0.0016,0,-0.0555,-0.0851,-0.0722,-0.0549,-0.0566,-0.0591,-0.0486,-0.0261,-0.011,0.0044,0.0195,0.0258,0.0319,0.0354,0.0357,0.0352,0.0332,0.0324,0.0368,0.0516,0.0591,0.0623,0.0623,0.07,0.0777,0.0764,0.0656,0,0,0,-0.0099,0.0096,0,0,0,-0.1566,-0.1901,-0.1415,-0.1151,-0.0953,-0.056,-0.0398,-0.0124,0.0077,0.0,0,-0.0214,-0.0544,-0.0547,-0.0445,-0.0464,-0.0497,-0.0428,-0.0206,0.0003,0.0184,0.0313,0.0407,0.0497,0.0533,0.0522,0.0467,0.0409,0.0338,0.0302,0.0363,0.0401,0.0442,0.0464,0.0569,0.0761,0.0821,0.0736,0,0,0,0,0,0,0,0.003,-0.1255,-0.1832,-0.17,-0.1519,-0.0978,-0.0332,-0.0192,-0.0077,-0.0008,0.0027,0,-0.0047,-0.0302,-0.0409,-0.0354,-0.0354,-0.0376,-0.0368,-0.0236,-0.0055,0.017,0.0354,0.047,0.0563,0.0634,0.0673,0.0645,0.0571,0.0453,0.0327,0.0214,0.0195,0.0228,0.0277,0.0404,0.0654,0.0816,0.0766,0,0,0,0,0,0,-0.0162,-0.0203,-0.106,-0.1629,-0.1708,-0.1618,-0.075,-0.0124,-0.0091,-0.006,-0.0005,0.0019,0,0.0033,-0.0148,-0.0299,-0.0294,-0.0294,-0.0308,-0.0324,-0.0231,-0.0066,0.0198,0.0417,0.0538,0.0626,0.0711,0.0758,0.075,0.0678,0.0563,0.0439,0.028,0.0203,0.0192,0.0211,0.0316,0.0555,0.0717,0.0687,0,0,0,0,0,0,-0.0404,-0.0516,-0.0912,-0.1395,-0.1695,-0.1434,-0.0461,-0.0052,-0.0069,-0.0074,0,0,0,0.0093,-0.0008,-0.0176,-0.0233,-0.0258,-0.0277,-0.0266,-0.0154,0.0019,0.0283,0.0481,0.0607,0.0711,0.0786,0.0799,0.078,0.0722,0.0637,0.0541,0.0396,0.0321,0.0302,0.0299,0.0379,0.0525,0.0533,0.0445,0,0,0,0,0,0,-0.1041,-0.0645,-0.0648,-0.1346,-0.1637,-0.1025,-0.0332,-0.0025,-0.0113,-0.0096,-0.0008,0,0,0.0176,0.0126,-0.0058,-0.014,-0.0192,-0.0236,-0.0201,-0.0074,0.0085,0.033,0.0544,0.0711,0.0829,0.0879,0.0873,0.0838,0.0777,0.0717,0.0643,0.0478,0.0365,0.0335,0.0338,0.0415,0.0511,0.0376,0.0179,0,0,0,0,0,0.0088,-0.1291,-0.0648,-0.0489,-0.1272,-0.1228,-0.0632,-0.0332,0,-0.0154,-0.0096,-0.0016,0,0,0.0266,0.0192,0.0025,-0.0044,-0.0102,-0.0181,-0.0148,-0.0025,0.0113,0.0363,0.0651,0.0873,0.0989,0.1011,0.0981,0.0915,0.0819,0.0753,0.0692,0.0538,0.0368,0.0258,0.0236,0.0319,0.0434,0.0264,0.003,0,0.0025,0.0,0.014,0,0.0044,-0.131,-0.0632,-0.0456,-0.0904,-0.0717,-0.0448,-0.0357,-0.0154,-0.0132,-0.008,-0.0025,0,0.0168,0.0297,0.0184,0.0071,0.0036,-0.0008,-0.0107,-0.0074,0.0011,0.0135,0.042,0.0788,0.1074,0.1184,0.117,0.1101,0.0992,0.0882,0.075,0.0632,0.0508,0.0327,0.0168,0.008,0.0151,0.0275,0.0176,-0.0025,0,0.0085,0,0.0093,0.0113,0,-0.1299,-0.0599,-0.0483,-0.0571,-0.0497,-0.0423,-0.0357,-0.0198,-0.0129,-0.0085,-0.0014,0,0.0181,0.0277,0.0165,0.0099,0.0099,0.0063,-0.0014,0.0025,0.006,0.0159,0.0503,0.0994,0.1373,0.1522,0.1475,0.1351,0.1203,0.1044,0.0838,0.0651,0.0437,0.0247,0.0091,-0.0063,-0.0058,0.006,0.008,-0.0038,0,0.0096,0.0014,0.0003,0.0008,-0.0195,-0.0786,-0.0503,-0.047,-0.0464,-0.0456,-0.0428,-0.0357,-0.0236,-0.019,-0.0052,0,0.0096,0.019,0.0225,0.0151,0.0124,0.0115,0.0099,0.006,0.0099,0.0118,0.0228,0.0673,0.1349,0.1838,0.2,0.1917,0.1717,0.1472,0.1255,0.1129,0.092,0.0536,0.0228,0.0,-0.0173,-0.0222,-0.0135,-0.0016,-0.0008,-0.0027,0.0014,-0.0022,-0.0082,-0.0143,-0.0231,-0.0409,-0.0434,-0.0437,-0.0445,-0.0464,-0.0453,-0.0396,-0.0247,-0.0118,0,0.0014,0.0115,0.0165,0.0181,0.0148,0.0126,0.0099,0.0129,0.011,0.0176,0.019,0.0431,0.1176,0.2044,0.2557,0.2678,0.2543,0.2266,0.1879,0.1461,0.1126,0.1033,0.097,0.0511,0.0091,-0.0192,-0.0297,-0.0266,-0.0132,-0.0019,-0.0025,-0.0044,-0.0082,-0.0146,-0.0206,-0.0272,-0.0335,-0.0374,-0.0398,-0.0431,-0.0464,-0.0442,-0.0387,-0.0286,0,-0.0052,0.0082,0.0165,0.017,0.0184,0.0168,0.0121,0.014,0.0244,0.0211,0.0379,0.0615,0.1228,0.2203,0.295,0.3258,0.3211,0.3021,0.27,0.2299,0.1794,0.1214,0.0739,0.0711,0.0884,0.0626,0.0044,-0.0242,-0.0319,-0.0258,-0.0137,-0.0044,-0.0085,-0.0129,-0.0184,-0.0233,-0.0277,-0.031,-0.0335,-0.036,-0.0412,-0.0445,-0.0346,-0.0321,-0.0352,-0.0049,0.003,0.022,0.0255,0.022,0.0203,0.0195,0.017,0.0294,0.0533,0.0786,0.1184,0.1755,0.2513,0.3117,0.3299,0.3288,0.3016,0.2813,0.2467,0.2192,0.1816,0.1393,0.0706,0.0055,0.0179,0.0733,0.0725,0.0102,-0.0222,-0.0327,-0.0308,-0.0074,-0.0118,-0.0162,-0.0209,-0.0253,-0.0286,-0.0299,-0.0291,-0.0288,-0.0404,-0.0448,-0.014,-0.0387,-0.0426,-0.011,0.0074,0.0201,0.0222,0.0137,0.0088,0.0222,0.0503,0.0906,0.1393,0.1892,0.2324,0.2736,0.3041,0.3148,0.2936,0.2813,0.2524,0.2318,0.1956,0.1697,0.1343,0.106,0.0703,0.0082,-0.0695,-0.0439,0.0618,0.0786,0.014,-0.0302,-0.0453,-0.0099,-0.0143,-0.0184,-0.0225,-0.0266,-0.0297,-0.0294,-0.0187,-0.0118,-0.0596,-0.0692,0,-0.0302,-0.0349,-0.0206,-0.0102,0.003,0.0058,-0.0019,0.0195,0.0777,0.1491,0.209,0.2516,0.2749,0.2862,0.2859,0.2697,0.2634,0.2563,0.2431,0.231,0.2027,0.1695,0.1318,0.0948,0.0656,0.0346,0.0074,-0.0555,-0.1272,-0.0791,0.0431,0.056,-0.0036,-0.0305,-0.0121,-0.0162,-0.0201,-0.0239,-0.028,-0.0332,-0.0363,-0.0055,0,-0.0758,-0.0813,-0.0044,-0.0055,-0.014,-0.0231,-0.0126,0.0077,0.014,0.0439,0.1222,0.2011,0.2549,0.2763,0.2694,0.2516,0.2357,0.2343,0.242,0.2417,0.2549,0.2403,0.2291,0.1859,0.1508,0.1035,0.0651,0.0261,-0.0066,-0.0308,-0.0555,-0.1118,-0.1566,-0.0983,-0.0008,0.0195,0.0071,-0.0135,-0.0165,-0.0203,-0.0239,-0.0286,-0.0354,-0.0544,0,0.0104,-0.0519,-0.0566,-0.0162,-0.0044,-0.0093,-0.0063,0.0286,0.0656,0.1077,0.1736,0.2497,0.2939,0.3016,0.2818,0.2563,0.2387,0.2335,0.2502,0.2818,0.2868,0.2881,0.2609,0.2296,0.1706,0.1162,0.056,0.0096,-0.0332,-0.0667,-0.097,-0.1277,-0.1618,-0.2033,-0.2096,-0.1566,-0.0786,-0.0214]}],[{"header":{"parameterUnit":"m.s-1","parameterCategory":2,"la1":30.5641,"la2":29.4642,"lo1":-89.4342,"lo2":-87.9343,"dx":0.0333,"dy":0.0333,"nx":46,"ny":34,"refTime":"2023-01-15T00:00:00:Z","depth":"4","parameterNumber":2,"parameterNumberName":"U-component_of_CURRENTS"},"data":[0,0,0,0,0,0,0,0,0,0,0,0,0,0,0,0,0,0,0,0,0,0,0,0,0,0,0,0,0,0,0,0,0,0,0,0,0,0,0,0,0,0.0104,0.0786,0.1406,0.1118,0,0,0,0,0,0,0,0,0,0,0,0,0,0,0,0,0,0,0,0,0,0,0,0,0,0,0,0,0,0,0,0,0,0,0,0,0,0,0,0,0,0,-0.0082,0.0516,0.1299,0.1038,0,0,0,0,0,0,0,0,0,0,0,0,0,0,0,0,0,0,0,0,0,0,0,0,0,0,0,0,0,0,0,0,0,0,0,0,0,0,0,0,0,0,0.0382,0.0928,0.1085,0.0849,0,0,0,0,0,0,0,0,0,0,0,0,0,0,0,0,0,0,0,0,0,0,0,0,0,0,0,0,0,0,0,0,0,0,0,0,0,0,0,0,0,0,0.0687,0.0808,0.067,0.0555,0,0,0,0,0,0,0,0,0,0,0,0,0,0,0,0,0,0,0,0,0,0,0,0,0,0,0,0,0,0,0,0,0,0,0,0,0,0,0,0,0,0.0302,0.0461,0.017,-0.0025,0.0044,0,0,0,0,0,0,0,0,0,0,0,0,0,0,0,0,0,0,0,0,0,0,0,0,0,0,0,0,0,0,0,0,0,0,0,0,0,0,0,0,0,-0.0049,-0.0363,-0.0662,-0.0604,-0.0217,0,0,0,0,0,0,0,0,0,0,0,0,0.0074,0.0192,0.0244,0.0272,0.0343,0.0464,0.0667,0.0813,0.0829,0,0,0,0,0,0,0,0,0,0,0,0,0.0137,0.0168,0.0055,0,0,0,0,0,-0.0195,-0.0742,-0.1129,-0.0975,-0.0426,0,0,0,0,0,0,0,0,0,0.0093,0.0275,0.0407,0.0423,0.0368,0.0368,0.0431,0.0508,0.0505,0.0244,-0.0201,-0.053,-0.0596,-0.0503,-0.0135,0.0731,0.0893,0.0483,0,0,0,0,0.0102,0.0522,0.0676,0.0552,0.0596,0,0,0,0,0,-0.0231,-0.084,-0.1101,-0.0873,-0.053,0,0,0,0,0.0209,0.0456,0.0508,0.053,0.0555,0.0527,0.0456,0.0431,0.045,0.0461,0.0431,0.0272,-0.0016,-0.0201,-0.0228,-0.0357,-0.0393,-0.0505,-0.0829,-0.1035,-0.0928,-0.053,-0.0838,-0.1049,-0.058,-0.0417,-0.0308,-0.0179,-0.0321,-0.0665,-0.1088,-0.1522,-0.175,-0.1505,-0.0731,-0.0192,-0.0354,-0.0615,-0.0989,-0.0959,-0.0656,-0.0665,0,0,0,0.0376,0.0843,0.0868,0.0764,0.0687,0.0588,0.0464,0.0401,0.0437,0.0577,0.0574,0.0401,0.0385,0.064,0.0645,0.0146,-0.0541,-0.0934,-0.0626,-0.0305,-0.0335,-0.0404,-0.0228,-0.0016,0.0058,0.0338,0.0121,-0.0346,-0.0475,-0.0511,-0.047,-0.0324,0.0066,0.0258,0.0294,0.0385,0,0,0,-0.0569,-0.058,0.0137,0.0132,0,0,0.0393,0.0948,0.111,0.1049,0.1014,0.0983,0.0865,0.0794,0,0,0,-0.0107,-0.0302,-0.011,0.017,0,-0.025,-0.0313,-0.0129,0,0,0,0,0,0,0,-0.0684,-0.097,-0.0478,-0.0316,-0.0143,0.0069,0.0173,0,0,-0.0244,-0.084,-0.1178,-0.0854,0.0387,0.1055,0.0769,0,0,0,0.0409,0.1057,0.1302,0.1263,0.1261,0.145,0.1533,0.136,0.1318,0.1192,0.0827,0.0374,0.0137,0.0173,0,0,-0.0286,-0.0549,-0.0209,0.0168,-0.011,-0.1101,-0.1862,-0.2008,-0.1884,-0.1461,-0.1011,-0.095,0,0,0,-0.0225,-0.0709,-0.1041,-0.0989,-0.0689,-0.0146,0.0255,0.0571,0.0917,0.1082,0,-0.0755,-0.0906,0.0365,0.1209,0.3755,0.2733,0.1813,0.1384,0.1398,0.1664,0.1717,0.1612,0.1571,0.1307,0.0948,0.0629,0.0439,0.0538,0.0431,0.0162,0.0195,0.0341,0.0522,0.0634,0.0709,0.0615,0.0385,0.0198,-0.0588,-0.15,-0.1747,-0.1494,-0.1189,-0.1198,-0.1145,-0.0802,-0.0387,-0.0069,0.0236,0.0047,0.0055,0.0341,0.0483,0.0478,0.0266,0.0231,0.0602,0.1121,0.1379,0.1456,0,0.0297,0.0816,0.1077,0.1016,0.0915,0,0,0.0217,0.0489,0.0516,0.05,0.0549,0.0733,0.0802,0.0626,0.0596,0.0794,0.1005,0.0989,0.0882,0.0753,0.0659,0.0508,0.0299,0.0003,-0.0217,0.0113,0.028,0.0038,-0.0058,0.0077,0.0236,0.0269,0.0349,0.0376,0.0431,0.0503,0.0588,0.0687,0.0838,0.0901,0.1068,0.134,0.1382,0.1351,0.3024,0.2178,0.1354,0.0799,0.0577,0,0,0,0.0099,0.0225,0.0308,0.0437,0.0615,0.0791,0.0835,0.0819,0.1071,0.1302,0.1266,0.1101,0.0813,0.0547,0.0426,0.0343,0.0272,0.0222,0.0228,0.0376,0.0527,0.0582,0.0634,0.0709,0.0739,0.0709,0.0637,0.0544,0.0508,0.0571,0.0684,0.0813,0.0959,0.1104,0.1277,0.1469,0.1552,0.1516,0.0379,0.125,0.1744,0,0,0,0,0,-0.0019,-0.0005,0.0148,0.0368,0.0585,0.0777,0.095,0.1126,0.1398,0.1445,0.1165,0.103,0.0854,0.0621,0.0461,0.0365,0.0231,0.0069,-0.0036,-0.0014,0.0036,0.0113,0.0264,0.0382,0.0448,0.0494,0.0525,0.0541,0.0549,0.056,0.061,0.0709,0.0862,0.1052,0.1258,0.1483,0.1648,0.1678,0,0,0.0401,0.0662,0.0665,0.0802,0,0,-0.0104,-0.0192,-0.0014,0.0211,0.0354,0.05,0.0717,0.0942,0.1003,0,0.0332,0.0695,0.0761,0.0678,0.0538,0.0415,0.0203,-0.0082,-0.0321,-0.0428,-0.0456,-0.0415,-0.0283,-0.0154,-0.006,0.0044,0.017,0.0288,0.0374,0.0428,0.0478,0.053,0.0613,0.0753,0.0948,0.1192,0.1434,0.161,0,0,0.0547,0.1101,0.1025,0.1343,0.1725,0.1618,0.1272,0.0764,0.0385,0.0181,0.0071,0.0102,0.0264,0.0453,0.0316,0.0088,0,0.0113,0.047,0.0585,0.0552,0.053,0.0472,0.0335,0.0107,-0.0033,-0.0005,0.0049,0.0107,0.0187,0.0258,0.0308,0.0343,0.0382,0.0428,0.0461,0.0467,0.0448,0.0442,0.0489,0.0607,0.0797,0.1044,0.131,0,0,0,0.0214,0.0431,0,0,0,0.0003,0.0027,0.0066,0.0036,-0.0082,-0.0129,-0.0033,0.0074,0.006,0.0003,0,0.0066,0.0396,0.0525,0.0492,0.0525,0.0604,0.0648,0.0602,0.0508,0.0439,0.042,0.0456,0.0549,0.0684,0.0829,0.0939,0.097,0.0937,0.0843,0.0714,0.058,0.0486,0.0442,0.0486,0.0634,0.0832,0.1035,0,0,0,0,0,0,0,-0.0159,-0.0396,-0.0365,-0.0253,-0.0192,-0.006,0.0085,0.0124,0.0074,0.0038,0.0022,0,0.0129,0.0431,0.0508,0.0423,0.042,0.0492,0.0516,0.0478,0.0445,0.042,0.0437,0.0489,0.0538,0.0604,0.0714,0.0865,0.1038,0.1181,0.1236,0.1184,0.1055,0.0901,0.0808,0.0755,0.0747,0.0802,0.0865,0,0,0,0,0,0,-0.0236,-0.0431,-0.0431,-0.042,-0.0357,-0.0275,-0.0003,0.022,0.0173,0.0085,0.006,0.0058,0,0.0187,0.0445,0.0492,0.0382,0.0299,0.0294,0.0316,0.0332,0.0338,0.0341,0.0374,0.0426,0.0486,0.0558,0.064,0.0747,0.0879,0.1027,0.1178,0.1316,0.1409,0.1428,0.1387,0.1285,0.1129,0.0981,0.0873,0,0,0,0,0,0,-0.0143,-0.033,-0.0363,-0.0401,-0.0434,-0.0272,0.0038,0.0206,0.0132,0.0063,0,0,0,0.017,0.0387,0.0434,0.0385,0.0313,0.0244,0.0247,0.0291,0.0316,0.0338,0.0368,0.0417,0.0489,0.0566,0.064,0.0709,0.0777,0.0857,0.0956,0.1066,0.1187,0.1285,0.134,0.1313,0.1214,0.1074,0.0915,0,0,0,0,0,0,-0.0195,-0.047,-0.0407,-0.039,-0.0456,-0.0179,0.0036,0.0124,0.0135,0.0058,0.0041,0,0,0.0102,0.0275,0.0335,0.0343,0.0354,0.0321,0.0288,0.0288,0.0291,0.0288,0.0305,0.0365,0.0461,0.056,0.064,0.0703,0.0755,0.0808,0.0871,0.0928,0.0967,0.0975,0.0972,0.0992,0.0989,0.0901,0.0761,0,0,0,0,0,-0.003,-0.0464,-0.0794,-0.0571,-0.0472,-0.0352,-0.0025,0.0132,0,0.0005,0.0014,0.0016,0,0,0.0058,0.0176,0.0236,0.0253,0.0305,0.0335,0.033,0.0305,0.0264,0.0255,0.0308,0.0412,0.0538,0.0654,0.0736,0.078,0.0819,0.0854,0.0873,0.0904,0.0945,0.0939,0.0862,0.0769,0.072,0.067,0.0604,0,-0.0041,-0.0069,-0.0088,0,0.011,-0.0107,-0.0431,-0.0409,-0.0332,-0.0146,0.0066,0.0168,0.0069,-0.006,-0.003,-0.0014,0,0.0036,0.0085,0.014,0.017,0.017,0.0239,0.0313,0.0349,0.0352,0.0319,0.0288,0.0319,0.0426,0.0555,0.0678,0.0764,0.0802,0.0824,0.086,0.0884,0.0887,0.089,0.089,0.0827,0.07,0.0588,0.0544,0.0544,0,-0.0049,0,-0.0041,-0.0085,0,-0.0096,-0.0192,-0.0187,-0.0129,-0.0033,0.0019,0.0041,0.0,-0.006,-0.0074,-0.0082,0,-0.0003,0.0022,0.0082,0.011,0.0096,0.0154,0.028,0.0387,0.0415,0.0382,0.0368,0.0412,0.0519,0.0665,0.081,0.0915,0.0934,0.0879,0.0832,0.084,0.0862,0.0854,0.0821,0.0761,0.0651,0.0508,0.0417,0.0437,0,-0.0052,-0.0121,-0.0176,-0.0308,-0.0481,-0.0409,-0.0214,-0.0151,-0.0113,-0.0082,-0.0069,-0.0066,-0.008,-0.0124,-0.0151,0,-0.0011,-0.003,-0.0027,0.0011,0.0049,0.0044,0.0071,0.0214,0.039,0.0483,0.0511,0.0558,0.0673,0.0846,0.1027,0.1195,0.1351,0.1486,0.1486,0.1244,0.095,0.0838,0.0829,0.0808,0.075,0.0656,0.0525,0.0387,0.033,0.0071,0.0019,-0.0055,-0.0132,-0.0217,-0.0297,-0.028,-0.0192,-0.0137,-0.0099,-0.0082,-0.0096,-0.0159,-0.0231,-0.0253,0,-0.0044,-0.0088,-0.0099,-0.0091,-0.0038,0.0,0.0003,0.0038,0.0168,0.0321,0.0445,0.0632,0.0884,0.1184,0.1516,0.1791,0.1972,0.2074,0.2123,0.2186,0.2239,0.192,0.1269,0.0876,0.0797,0.0753,0.0698,0.0626,0.053,0.0434,0.0055,0.0033,-0.0016,-0.0071,-0.0121,-0.0151,-0.0148,-0.0115,-0.0066,-0.0022,0.0003,0.0022,0.0052,0.0077,0,-0.0085,-0.0137,-0.0099,-0.0091,-0.0088,-0.0091,-0.0082,-0.0036,0.0102,0.0266,0.0415,0.0695,0.1154,0.1681,0.2228,0.2741,0.3126,0.3337,0.3428,0.3447,0.3403,0.3277,0.3161,0.2738,0.1758,0.1014,0.0851,0.0851,0.0857,0.0816,0.0731,0.0093,0.0058,0.0019,-0.0019,-0.0047,-0.0063,-0.006,-0.0033,0.0025,0.0082,0.0121,0.0187,0.0231,0.0179,0.0041,-0.0008,0.0074,0.0162,0.0228,0.0201,0.0088,0.0036,0.0143,0.0407,0.07,0.1085,0.1673,0.2357,0.3019,0.3565,0.3944,0.4211,0.4386,0.4472,0.4491,0.4463,0.4439,0.4348,0.4227,0.3702,0.2348,0.1247,0.1041,0.111,0.1156,0.1145,0.0096,0.0074,0.0052,0.0027,0.0005,-0.0005,0.0003,0.0055,0.0143,0.0195,0.0187,0.0349,0.0494,0.047,0.0472,0.05,0.0602,0.0687,0.0692,0.0615,0.056,0.0698,0.1038,0.1442,0.1925,0.2516,0.315,0.3741,0.4178,0.4458,0.4658,0.482,0.4947,0.5024,0.504,0.5051,0.5109,0.5208,0.5221,0.5134,0.4524,0.2873,0.1483,0.1206,0.1261,0.1296,0.0113,0.0104,0.0091,0.0074,0.0052,0.0033,0.0027,0.0104,0.0327,0.0376,0.0272,0,0.0159,0.0423,0.0648,0.0915,0.1154,0.1189,0.1071,0.1101,0.1445,0.1953,0.2467,0.2964,0.3475,0.3939,0.4318,0.4592,0.479,0.496,0.5136,0.5287,0.5403,0.5499,0.5548,0.5504,0.5438,0.551,0.5771,0.6043,0.6164,0.5315,0.3148,0.1486,0.106,0.0959,0.0151,0.0146,0.0132,0.0113,0.0082,0.0036,-0.0055,-0.0115,0,0.0025,0.0151,0.0228,0.0272,0.0558,0.0964,0.1332,0.1516,0.1604,0.1774,0.217,0.2719,0.3219,0.3612,0.3958,0.426,0.4491,0.4686,0.4892,0.5024,0.5098,0.5131,0.5125,0.5103,0.5199,0.5405,0.5551,0.5587,0.5609,0.5773,0.6205,0.6803,0.74,0.6828,0.4007,0.1387,0.0654,0.0187,0.0179,0.0168,0.0154,0.0146,0.0146,0.0148,0,-0.0055,0.0126,0.0536,0.0706,0.0742,0.0926,0.1288,0.1585,0.1945,0.239,0.2887,0.3384,0.3834,0.4202,0.4505,0.4829,0.518,0.5491,0.5724,0.5798,0.5609,0.5161,0.4713,0.4433,0.4257,0.4216,0.437,0.4634,0.4851,0.5079,0.5361,0.5719,0.6301,0.7204,0.8012,0.8339,0.7221,0.4488]},{"header":{"parameterUnit":"m.s-1","parameterCategory":2,"la1":30.5641,"la2":29.4642,"lo1":-89.4342,"lo2":-87.9343,"dx":0.0333,"dy":0.0333,"nx":46,"ny":34,"refTime":"2023-01-15T00:00:00:Z","depth":"4","parameterNumber":3,"parameterNumberName":"V-component_of_CURRENTS"},"data":[0,0,0,0,0,0,0,0,0,0,0,0,0,0,0,0,0,0,0,0,0,0,0,0,0,0,0,0,0,0,0,0,0,0,0,0,0,0,0,0,0,0.0684,0.0634,-0.0211,-0.0854,0,0,0,0,0,0,0,0,0,0,0,0,0,0,0,0,0,0,0,0,0,0,0,0,0,0,0,0,0,0,0,0,0,0,0,0,0,0,0,0,0,0,0.0846,0.1382,-0.0497,-0.1494,0,0,0,0,0,0,0,0,0,0,0,0,0,0,0,0,0,0,0,0,0,0,0,0,0,0,0,0,0,0,0,0,0,0,0,0,0,0,0,0,0,0,0.1211,0.1461,-0.0536,-0.1975,0,0,0,0,0,0,0,0,0,0,0,0,0,0,0,0,0,0,0,0,0,0,0,0,0,0,0,0,0,0,0,0,0,0,0,0,0,0,0,0,0,0,0.1898,0.1332,-0.0808,-0.2376,0,0,0,0,0,0,0,0,0,0,0,0,0,0,0,0,0,0,0,0,0,0,0,0,0,0,0,0,0,0,0,0,0,0,0,0,0,0,0,0,0,0.0681,0.2392,0.0972,-0.1266,-0.2593,0,0,0,0,0,0,0,0,0,0,0,0,0,0,0,0,0,0,0,0,0,0,0,0,0,0,0,0,0,0,0,0,0,0,0,0,0,0,0,0,0,0.1041,0.242,0.0654,-0.1222,-0.2423,0,0,0,0,0,0,0,0,0,0,0,0,0.0099,0.0027,-0.008,-0.008,-0.0066,-0.006,-0.0135,-0.0231,-0.0407,0,0,0,0,0,0,0,0,0,0,0,0,0.003,-0.0008,0.0025,0,0,0,0,0,0.089,0.2554,0.0591,-0.0492,-0.1629,0,0,0,0,0,0,0,0,0,0.0162,0.0132,0.0019,0.003,-0.0047,-0.0159,-0.0184,-0.0151,-0.0157,-0.0343,-0.0492,-0.0558,-0.0047,-0.0016,-0.0003,-0.0201,-0.0637,-0.0327,0,0,0,0,0.0058,0.0299,-0.003,0.0011,0.0091,0,0,0,0,0,0.0132,0.2752,0.0632,0.0159,-0.0494,0,0,0,0,0.0407,0.0198,0.0055,-0.0011,-0.0016,0.0093,0.0082,0.0005,-0.0058,-0.0214,-0.0398,-0.0536,-0.0475,-0.0371,-0.058,-0.1274,-0.1129,-0.047,-0.0225,-0.0159,-0.0266,-0.0626,-0.0478,-0.1132,-0.0179,-0.0102,0.0025,0.0121,0.0187,-0.0096,-0.0162,-0.0294,-0.0266,0.0522,0.1035,0.0,0.0,-0.022,0.2329,0.0761,0.0,-0.003,0,0,0,0.053,0.0439,0.0176,0.0011,-0.0066,-0.0096,-0.0027,0.0016,-0.0005,-0.0038,-0.053,-0.0703,-0.0733,-0.0258,-0.0242,-0.0981,-0.2024,-0.1788,-0.0445,-0.0217,-0.0159,-0.0165,-0.031,-0.0316,-0.0566,-0.0099,-0.0829,-0.036,-0.0176,0.0088,-0.0104,-0.0126,-0.0371,-0.0132,0.0764,0.1176,0,0,0,0.0692,0.1239,-0.0179,-0.0082,0,0,0.0865,0.0755,0.0516,0.0148,0.0,-0.0129,-0.0233,-0.0536,0,0,0,-0.0937,-0.1134,-0.0346,0.0096,0,-0.1664,-0.2035,-0.1912,0,0,0,0,0,0,0,-0.0711,-0.0775,-0.0371,-0.0266,0.0104,0.0027,0.0247,0,0,0.067,0.0808,0.0374,0.0912,0.1947,-0.0225,0.103,0,0,0,0.097,0.1055,0.1003,0.0497,0.0187,0.0228,-0.0168,-0.0371,-0.092,-0.0602,-0.0541,-0.0766,-0.1181,-0.1469,0,0,-0.0544,-0.1766,-0.1656,-0.159,-0.1107,-0.0637,-0.0319,-0.0203,0.0129,0.0761,0.0302,-0.0931,0,0,0,-0.0236,0.0033,0.0159,0.0478,0.0816,0.0352,0.0376,0.0445,0.0939,0.1662,0,-0.0113,-0.0005,0.0324,0.0338,0.0483,0.0409,0.0475,0.0313,0.0346,0.067,-0.0099,-0.0222,-0.1,-0.0912,-0.0838,-0.0926,-0.1272,-0.1458,-0.0544,-0.0456,-0.0621,-0.1263,-0.1266,-0.1302,-0.1066,-0.0684,-0.0544,-0.0415,-0.0008,0.0522,0.0242,-0.0335,0.0091,0.0332,0.0244,-0.0379,0.0055,0.0129,0.0508,0.0714,0.0374,0.0409,0.0497,0.0805,0.0992,0.0709,-0.0132,0.0412,0.0519,0.0396,0,-0.0154,0.0198,0.0179,0.0566,0.0456,0,0,-0.1101,-0.1228,-0.1173,-0.1082,-0.1181,-0.1269,-0.0736,-0.0607,-0.0634,-0.0747,-0.0887,-0.0931,-0.0819,-0.0714,-0.0739,-0.0588,-0.0308,0.0005,-0.0041,-0.0308,0.0016,0.0165,0.0143,-0.011,0.0228,0.0324,0.045,0.0472,0.0365,0.0335,0.0417,0.056,0.0566,0.0634,0.0459,0.0591,0.0566,0.0415,-0.1016,-0.0643,-0.0157,0.0082,0.0335,0,0,0,-0.1027,-0.1176,-0.1162,-0.1014,-0.0967,-0.1057,-0.0967,-0.0851,-0.0159,-0.0319,-0.061,-0.0755,-0.0742,-0.067,-0.0643,-0.0522,-0.0374,-0.0195,-0.0047,-0.0148,-0.0027,-0.006,0.0,0.008,0.028,0.0346,0.0396,0.0415,0.0396,0.0346,0.039,0.0489,0.0481,0.0467,0.0475,0.0541,0.0505,0.0407,-0.0508,-0.0703,-0.1846,0,0,0,0,0,-0.0948,-0.1137,-0.1033,-0.0862,-0.0802,-0.086,-0.084,-0.067,0.0582,-0.0066,-0.0714,-0.0821,-0.0906,-0.0791,-0.0659,-0.0566,-0.0426,-0.0214,-0.0071,-0.0115,-0.0066,-0.0096,0.0008,0.0148,0.0266,0.0302,0.0327,0.0349,0.0352,0.0368,0.0412,0.0492,0.0486,0.05,0.0516,0.0508,0.0423,0.0299,0,0,-0.2373,-0.0316,0.0038,-0.1621,0,0,-0.0689,-0.1019,-0.0904,-0.0736,-0.0747,-0.072,-0.0577,-0.033,0.0593,0,-0.0423,-0.0873,-0.1074,-0.0912,-0.0659,-0.0618,-0.0552,-0.0398,-0.0231,-0.0211,-0.0126,-0.0005,0.0088,0.0168,0.0236,0.0269,0.0299,0.0299,0.0299,0.0354,0.0456,0.0558,0.0569,0.0574,0.061,0.0582,0.05,0.036,0,0,-0.0906,-0.025,-0.0014,-0.081,0.0,0.0,-0.0824,-0.1165,-0.0994,-0.0846,-0.0827,-0.0698,-0.0522,-0.0255,0.0179,-0.0038,0,-0.0813,-0.106,-0.0879,-0.0599,-0.0599,-0.0623,-0.0519,-0.0297,-0.0146,0.0008,0.0154,0.0217,0.0275,0.0308,0.031,0.0305,0.0283,0.0272,0.0316,0.0456,0.0527,0.0552,0.0552,0.0629,0.0695,0.0665,0.0533,0,0,0,-0.0093,-0.003,0,0,0,-0.117,-0.136,-0.12,-0.1096,-0.0937,-0.0651,-0.0423,-0.0173,0.0033,-0.0016,0,-0.07,-0.0832,-0.072,-0.0503,-0.05,-0.0541,-0.0475,-0.0255,-0.0044,0.0135,0.0264,0.0354,0.0442,0.0478,0.0464,0.0409,0.0352,0.028,0.0247,0.0302,0.0343,0.0382,0.0407,0.0514,0.0703,0.075,0.0645,0,0,0,0,0,0,0,-0.0566,-0.1148,-0.1176,-0.1236,-0.1198,-0.0945,-0.0511,-0.0206,-0.0085,-0.0022,0.0014,0,-0.0439,-0.0555,-0.0571,-0.042,-0.0396,-0.042,-0.0417,-0.0288,-0.0104,0.0115,0.0299,0.0412,0.0505,0.0574,0.061,0.0582,0.0508,0.039,0.0264,0.0151,0.0137,0.0173,0.0222,0.0354,0.0602,0.0753,0.0692,0,0,0,0,0,0,-0.0357,-0.0596,-0.1041,-0.111,-0.1203,-0.1156,-0.0838,-0.0324,-0.0124,-0.0077,-0.0011,0.0011,0,-0.0102,-0.0341,-0.0434,-0.0365,-0.0338,-0.0354,-0.0374,-0.0283,-0.0118,0.0143,0.0363,0.0478,0.0569,0.0651,0.0698,0.0689,0.0618,0.05,0.0374,0.0211,0.0137,0.0126,0.0148,0.0255,0.0489,0.0645,0.0613,0,0,0,0,0,0,-0.0629,-0.0695,-0.0986,-0.1209,-0.1195,-0.1063,-0.0654,-0.0244,-0.0115,-0.0099,0,0,0,0.0044,-0.0137,-0.0286,-0.031,-0.031,-0.0324,-0.0319,-0.0209,-0.0036,0.0225,0.042,0.0547,0.0651,0.0722,0.0739,0.0717,0.0662,0.0574,0.0475,0.033,0.025,0.0231,0.0228,0.0305,0.0442,0.0456,0.0365,0,0,0,0,0,0,-0.0711,-0.0783,-0.0926,-0.1231,-0.1165,-0.0961,-0.0527,-0.0121,-0.0148,-0.0126,-0.0041,0,0,0.0126,0.0033,-0.0154,-0.022,-0.0258,-0.0297,-0.0258,-0.0135,0.0022,0.0266,0.0481,0.0645,0.0764,0.0813,0.081,0.0775,0.0714,0.0654,0.0577,0.0409,0.0297,0.0266,0.0266,0.0341,0.0426,0.0294,0.0102,0,0,0,0,0,-0.0151,-0.0588,-0.0689,-0.0772,-0.1123,-0.106,-0.0821,-0.0505,0,-0.0187,-0.0129,-0.0052,0,0,0.0206,0.0102,-0.0069,-0.0129,-0.0176,-0.025,-0.0214,-0.0091,0.0044,0.0297,0.0582,0.0805,0.092,0.0942,0.0912,0.0846,0.0755,0.0689,0.0626,0.0472,0.0302,0.019,0.017,0.0247,0.0357,0.0187,-0.0041,0,0.0022,0.0,0.0126,0,-0.0074,-0.0805,-0.0643,-0.0709,-0.0939,-0.0849,-0.0623,-0.0459,-0.0211,-0.0168,-0.0115,-0.0066,0,0.0107,0.0222,0.0093,-0.0022,-0.0049,-0.0088,-0.0184,-0.0148,-0.006,0.0063,0.0352,0.072,0.1,0.1107,0.109,0.1019,0.0917,0.0813,0.0687,0.0569,0.0445,0.0264,0.0099,0.0014,0.0085,0.0206,0.0104,-0.0093,0,0.008,0,0.0082,0.0102,0,-0.097,-0.0742,-0.0615,-0.0662,-0.0596,-0.0494,-0.0412,-0.0247,-0.0165,-0.0124,-0.0036,0,0.0118,0.0198,0.0074,0.0005,0.0016,-0.0014,-0.0096,-0.0058,-0.0022,0.0085,0.0428,0.0917,0.1283,0.1415,0.136,0.1233,0.109,0.095,0.0755,0.058,0.0374,0.0187,0.0022,-0.0126,-0.0121,0.0,0.0019,-0.0102,0,0.0088,-0.0003,-0.0008,0.0,-0.0214,-0.0753,-0.0637,-0.0489,-0.0489,-0.0483,-0.047,-0.0393,-0.0275,-0.0228,-0.0074,0,0.0033,0.0121,0.0146,0.0066,0.0038,0.0036,0.0022,-0.0019,0.0016,0.0036,0.0143,0.0577,0.1228,0.1675,0.1807,0.17,0.1483,0.1241,0.1046,0.0953,0.0805,0.0453,0.0165,-0.0058,-0.0233,-0.028,-0.0192,-0.0074,-0.0066,-0.0036,0.0003,-0.0038,-0.0099,-0.0151,-0.0247,-0.0442,-0.0453,-0.0453,-0.0475,-0.05,-0.0497,-0.0437,-0.0291,-0.0137,0,-0.0055,0.0047,0.0093,0.0107,0.0071,0.0049,0.0027,0.0058,0.0038,0.0085,0.0093,0.0299,0.0964,0.1758,0.2222,0.231,0.2159,0.187,0.1486,0.1082,0.0788,0.0769,0.0769,0.0404,0.0019,-0.0247,-0.0349,-0.0319,-0.0187,-0.0074,-0.0036,-0.0055,-0.0099,-0.0165,-0.0222,-0.0288,-0.036,-0.0396,-0.0426,-0.0475,-0.0516,-0.0503,-0.0448,-0.0346,0,-0.0157,-0.0003,0.0074,0.0082,0.0104,0.0096,0.0055,0.0066,0.0159,0.0118,0.0209,0.0349,0.0843,0.1708,0.2376,0.2642,0.2612,0.2434,0.2145,0.1763,0.1274,0.0709,0.0283,0.0343,0.061,0.045,-0.0033,-0.0294,-0.0371,-0.031,-0.019,-0.0058,-0.0102,-0.0146,-0.0203,-0.0255,-0.0299,-0.0335,-0.0363,-0.0398,-0.0464,-0.0508,-0.0437,-0.0409,-0.0434,-0.0187,-0.0099,0.008,0.0126,0.0102,0.0104,0.011,0.0093,0.0157,0.0286,0.042,0.0656,0.106,0.1681,0.2222,0.2412,0.2357,0.2195,0.2002,0.1785,0.1544,0.1228,0.0791,0.0126,-0.0467,-0.0247,0.0401,0.0525,0.0014,-0.028,-0.0385,-0.0363,-0.0093,-0.0137,-0.0181,-0.0228,-0.0272,-0.0305,-0.0324,-0.0324,-0.0343,-0.047,-0.0541,-0.0195,-0.0472,-0.0525,-0.0261,-0.0118,0.0005,0.0044,-0.0016,-0.0052,0.0047,0.0217,0.045,0.0733,0.1052,0.1338,0.164,0.1857,0.1887,0.1788,0.1637,0.1494,0.1324,0.1156,0.0975,0.0769,0.0481,0.0137,-0.0511,-0.1228,-0.0868,0.0283,0.0591,0.0049,-0.0363,-0.0511,-0.0118,-0.0162,-0.0203,-0.0244,-0.0283,-0.0316,-0.0316,-0.022,-0.0154,-0.0648,-0.0758,0,-0.0401,-0.0464,-0.0398,-0.0332,-0.0203,-0.0159,-0.0231,-0.0099,0.0288,0.072,0.1071,0.131,0.1423,0.148,0.1472,0.1387,0.1283,0.1203,0.1123,0.1044,0.0901,0.0725,0.0544,0.0385,0.0165,-0.0118,-0.0442,-0.1107,-0.1769,-0.1198,0.0129,0.0396,-0.0118,-0.0371,-0.0137,-0.0179,-0.0217,-0.0255,-0.0297,-0.0349,-0.0382,-0.0071,0,-0.0849,-0.0873,-0.0222,-0.019,-0.0299,-0.0453,-0.0363,-0.0168,-0.0132,0.0005,0.0503,0.1003,0.1332,0.1445,0.1346,0.1189,0.1044,0.0964,0.0986,0.097,0.0912,0.0819,0.0706,0.0538,0.0354,0.0211,0.0096,-0.0091,-0.0343,-0.0621,-0.0928,-0.156,-0.1989,-0.1329,-0.0264,0.0038,-0.0011,-0.0154,-0.0187,-0.0222,-0.0255,-0.0299,-0.0368,-0.0547,0,0.0008,-0.0643,-0.0681,-0.0313,-0.0222,-0.0305,-0.0288,0.0025,0.0275,0.0475,0.0846,0.1291,0.1555,0.1604,0.1437,0.1206,0.1068,0.1074,0.1198,0.1272,0.1134,0.0862,0.0602,0.0415,0.0244,-0.0091,-0.0244,-0.0286,-0.0481,-0.0758,-0.1077,-0.1415,-0.1818,-0.228,-0.2365,-0.1824,-0.0989,-0.0368]}],[{"header":{"parameterUnit":"m.s-1","parameterCategory":2,"la1":30.5641,"la2":29.4642,"lo1":-89.4342,"lo2":-87.9343,"dx":0.0333,"dy":0.0333,"nx":46,"ny":34,"refTime":"2023-01-15T00:00:00:Z","depth":"6","parameterNumber":2,"parameterNumberName":"U-component_of_CURRENTS"},"data":[0,0,0,0,0,0,0,0,0,0,0,0,0,0,0,0,0,0,0,0,0,0,0,0,0,0,0,0,0,0,0,0,0,0,0,0,0,0,0,0,0,0.0066,0.0623,0.1011,0.0634,0,0,0,0,0,0,0,0,0,0,0,0,0,0,0,0,0,0,0,0,0,0,0,0,0,0,0,0,0,0,0,0,0,0,0,0,0,0,0,0,0,0,0.0195,0.0992,0.1294,0.0728,0,0,0,0,0,0,0,0,0,0,0,0,0,0,0,0,0,0,0,0,0,0,0,0,0,0,0,0,0,0,0,0,0,0,0,0,0,0,0,0,0,0,0.0698,0.1618,0.15,0.0736,0,0,0,0,0,0,0,0,0,0,0,0,0,0,0,0,0,0,0,0,0,0,0,0,0,0,0,0,0,0,0,0,0,0,0,0,0,0,0,0,0,0,0.1137,0.1892,0.1426,0.0577,0,0,0,0,0,0,0,0,0,0,0,0,0,0,0,0,0,0,0,0,0,0,0,0,0,0,0,0,0,0,0,0,0,0,0,0,0,0,0,0,0,0.0113,0.0835,0.1206,0.0637,0.0173,0,0,0,0,0,0,0,0,0,0,0,0,0,0,0,0,0,0,0,0,0,0,0,0,0,0,0,0,0,0,0,0,0,0,0,0,0,0,0,0,0,-0.0049,0.0409,0.0632,0.0231,0.0244,0,0,0,0,0,0,0,0,0,0,0,0,0.0071,0.019,0.0242,0.0264,0.0332,0.0431,0.0448,0.0404,0.0396,0,0,0,0,0,0,0,0,0,0,0,0,-0.0036,-0.0036,0.0005,0,0,0,0,0,-0.0288,-0.0132,-0.0011,-0.0104,0.0428,0,0,0,0,0,0,0,0,0,0.0085,0.0247,0.0365,0.0379,0.0319,0.0255,0.0233,0.031,0.061,0.061,0.0132,0.0066,0.0225,0.0255,0.0758,0.1126,0.0766,0.0514,0,0,0,0,0.0099,0.0291,0.0176,0.0055,0.0146,0,0,0,0,0,-0.0415,-0.0544,-0.0618,-0.0901,-0.0407,0,0,0,0,0.0088,0.0269,0.039,0.0417,0.0417,0.0401,0.0374,0.0376,0.0396,0.0346,0.0228,0.0071,0.0129,0.0407,0.0588,0.0341,-0.0352,-0.0352,-0.0033,-0.0192,-0.0231,0.0022,-0.036,-0.1129,-0.0975,-0.0582,-0.0431,-0.0363,-0.0459,-0.061,-0.0602,-0.0472,-0.0363,-0.0275,0.0582,0.1703,0.195,0.0791,-0.0269,-0.0662,-0.103,-0.0862,0,0,0,-0.0047,0.0049,0.0308,0.0442,0.0442,0.0385,0.0338,0.0343,0.0393,0.0483,0.0407,0.0052,-0.017,-0.0093,0.0626,0.1167,0.0753,-0.008,-0.0179,0.0184,0.0217,0.0233,0.0387,0.0629,0.0286,-0.0239,-0.078,-0.1288,-0.1255,-0.0972,-0.0753,-0.064,-0.0148,0.0514,0.0582,0.0382,0,0,0,-0.0742,-0.0486,0.0503,0.0566,0,0,-0.0016,0.0019,0.0198,0.0404,0.053,0.0566,0.0536,0.0511,0,0,0,-0.0049,-0.0368,-0.0629,-0.0618,0,0.0417,0.0788,0.0742,0,0,0,0,0,0,0,-0.0788,-0.1,-0.0242,0.0033,-0.0258,-0.0376,-0.0093,0,0,-0.0302,-0.0819,-0.0895,-0.0253,0.1244,0.1302,0.0343,0,0,0,0.0107,0.019,0.028,0.0439,0.0547,0.0703,0.0799,0.0843,0.0997,0.0942,0.0552,0.0203,0.0236,0.0409,0,0,-0.0341,-0.0181,0.0547,0.0428,0.0132,-0.0195,-0.072,-0.1126,-0.1104,-0.0626,-0.0354,-0.0437,0,0,0,-0.0533,-0.0997,-0.1052,-0.0808,-0.0239,-0.0016,-0.0327,0.0036,0.028,0.0407,0,-0.053,-0.0824,-0.042,0.0211,0.2359,0.1588,0.0994,0.0695,0.0634,0.0747,0.0827,0.0972,0.1121,0.0898,0.0519,0.0247,0.0442,0.0538,-0.0033,-0.0343,-0.0231,-0.0005,0.0346,0.0558,0.0508,0.0428,0.0244,0.0129,-0.0286,-0.0926,-0.114,-0.1313,-0.1291,-0.0945,-0.0849,-0.0736,-0.0544,-0.0115,0.014,0.0082,0.014,0.0376,0.0494,0.045,0.0132,0.0338,0.0327,-0.0047,0.0063,0.0385,0,0.0036,0.0319,0.0519,0.0428,0.0385,0,0,0.0016,0.0091,0.0121,0.0099,0.0203,0.0417,0.0387,0.0137,0.0129,0.033,0.0596,0.0709,0.0733,0.0739,0.0656,0.0505,0.0302,0.0041,-0.0071,0.0129,0.0157,0.0016,-0.0058,0.0058,0.0231,0.0275,0.0352,0.0382,0.0437,0.0511,0.0596,0.0687,0.0758,0.0722,0.0667,0.0593,0.0607,0.0728,0.2255,0.1524,0.0684,0.0346,0.0494,0,0,0,-0.014,-0.0214,-0.0082,0.0069,0.0179,0.0233,0.0222,0.0159,0.0387,0.0706,0.0857,0.084,0.0714,0.0538,0.042,0.0338,0.0275,0.0228,0.0233,0.0376,0.0527,0.058,0.0629,0.07,0.0736,0.0711,0.0643,0.0552,0.0522,0.0582,0.0695,0.0821,0.0967,0.1107,0.1258,0.1395,0.1415,0.1349,0.0231,0.084,0.1222,0,0,0,0,0,-0.0137,-0.0247,-0.0129,0.0069,0.0154,0.0151,0.0184,0.0371,0.0692,0.0824,0.0728,0.0714,0.0667,0.0549,0.0448,0.0357,0.0231,0.0077,-0.0027,-0.0008,0.0038,0.0115,0.0261,0.0382,0.045,0.05,0.053,0.0547,0.0555,0.0569,0.0621,0.0722,0.0873,0.106,0.1261,0.1472,0.1618,0.1643,0,0,0.0516,0.0827,0.0398,0.0173,0,0,-0.0137,-0.0154,0.0003,0.0077,0.0055,-0.0016,-0.0019,0.0162,0.0343,0,0.0176,0.0365,0.0481,0.0505,0.0494,0.0398,0.0201,-0.008,-0.0319,-0.0426,-0.0456,-0.0412,-0.028,-0.0151,-0.0055,0.0049,0.0176,0.0297,0.0382,0.0439,0.0492,0.0547,0.0629,0.0764,0.0956,0.1195,0.1426,0.159,0,0,0.0684,0.1154,0.0566,0.0643,0.0948,0.0846,0.0728,0.0341,0.0047,0.0016,0.0027,-0.0019,-0.0102,-0.0099,-0.0003,0.0036,0,-0.0102,0.0091,0.0387,0.0497,0.0508,0.0459,0.0327,0.0107,-0.0033,-0.0005,0.0052,0.011,0.019,0.0264,0.0316,0.0352,0.039,0.0437,0.0472,0.0483,0.0464,0.0461,0.0503,0.0618,0.081,0.1052,0.1313,0,0,0,-0.0126,-0.025,0,0,0,-0.0126,-0.0299,-0.0302,-0.0261,-0.0176,-0.0052,0.0003,0.0047,0.0041,0.0003,0,-0.0168,-0.0077,0.0357,0.0445,0.0503,0.0588,0.0637,0.0591,0.05,0.0434,0.0417,0.0456,0.0549,0.0684,0.0832,0.0942,0.0975,0.0942,0.0851,0.0728,0.0596,0.05,0.0456,0.05,0.0651,0.0854,0.106,0,0,0,0,0,0,0,-0.0104,-0.0277,-0.033,-0.0382,-0.0445,-0.0349,-0.0118,0.0044,0.0074,0.0041,0.0022,0,-0.0162,-0.0121,0.033,0.0374,0.0398,0.0478,0.0505,0.047,0.0442,0.042,0.0437,0.0489,0.0541,0.061,0.0717,0.0871,0.1044,0.1187,0.1241,0.1189,0.106,0.0909,0.0819,0.0766,0.0764,0.0827,0.0893,0,0,0,0,0,0,-0.0069,-0.0236,-0.025,-0.0198,-0.0305,-0.0423,-0.0365,-0.0107,0.0077,0.0082,0.0066,0.0058,0,-0.0121,-0.0016,0.031,0.0332,0.028,0.0283,0.0305,0.0327,0.0332,0.0341,0.0374,0.0426,0.0489,0.056,0.0645,0.075,0.0884,0.1033,0.1184,0.1318,0.1412,0.1431,0.1393,0.1294,0.1145,0.1005,0.0901,0,0,0,0,0,0,-0.0126,-0.0143,-0.0093,-0.0184,-0.0321,-0.0442,-0.0321,-0.0088,0.0027,0.0047,0,0,0,-0.0047,0.0113,0.0305,0.0332,0.0288,0.0231,0.0239,0.0288,0.0313,0.0335,0.0368,0.0417,0.0492,0.0569,0.0643,0.0714,0.0783,0.0865,0.0961,0.1071,0.1189,0.1288,0.1343,0.1318,0.1222,0.1088,0.0934,0,0,0,0,0,0,-0.0113,-0.0016,0.0033,-0.0118,-0.0283,-0.0417,-0.0316,-0.0096,0.0055,0.0038,0.0033,0,0,0.0014,0.0157,0.0255,0.0291,0.0324,0.0302,0.028,0.0283,0.0288,0.0286,0.0305,0.0368,0.0461,0.056,0.0643,0.0709,0.0764,0.0816,0.0879,0.0934,0.097,0.0978,0.0978,0.0994,0.0997,0.0915,0.0777,0,0,0,0,0,0.0255,0.0016,-0.0168,0.0022,-0.0132,-0.025,-0.0283,-0.0236,0,-0.0003,0.0,0.0008,0,0,0.0033,0.0107,0.0168,0.0206,0.0272,0.0313,0.0319,0.0299,0.0261,0.0253,0.0308,0.0412,0.0538,0.0656,0.0739,0.0783,0.0824,0.086,0.0879,0.0912,0.095,0.0942,0.0868,0.0777,0.0728,0.0678,0.0615,0,-0.0038,-0.0066,-0.0082,0,0.0379,0.0354,0.0003,-0.0027,-0.0129,-0.0143,-0.0124,-0.0071,-0.0071,-0.008,-0.0038,-0.0019,0,0.0027,0.0055,0.008,0.011,0.0132,0.0209,0.0291,0.0338,0.0343,0.031,0.0283,0.0316,0.0426,0.0558,0.0678,0.0764,0.0802,0.0827,0.0865,0.0893,0.0895,0.0898,0.0898,0.0832,0.0709,0.0599,0.0552,0.0552,0,-0.0058,0,-0.0041,-0.008,0,0.0014,-0.0011,-0.0074,-0.0099,-0.0115,-0.0132,-0.011,-0.008,-0.0077,-0.0082,-0.0085,0,-0.0014,-0.0014,0.0025,0.0055,0.0063,0.0129,0.0261,0.0368,0.0401,0.0374,0.0363,0.0409,0.0516,0.0659,0.0799,0.0904,0.0926,0.0876,0.0835,0.0846,0.0868,0.0865,0.0832,0.0769,0.0659,0.0516,0.0428,0.0442,0,-0.0049,-0.0107,-0.0168,-0.0305,-0.0434,-0.0327,-0.0173,-0.0154,-0.0137,-0.0151,-0.0176,-0.0168,-0.0129,-0.0132,-0.0154,0,-0.0014,-0.0044,-0.0063,-0.0038,0.0005,0.0022,0.0055,0.0198,0.0374,0.0467,0.0497,0.0547,0.0659,0.0824,0.0983,0.1118,0.1247,0.1368,0.139,0.1189,0.0937,0.084,0.0835,0.0816,0.0758,0.0665,0.053,0.0393,0.0335,0.0071,0.0022,-0.0044,-0.0121,-0.0211,-0.0294,-0.0275,-0.019,-0.0146,-0.0148,-0.0176,-0.0206,-0.0239,-0.025,-0.0253,0,-0.0044,-0.0096,-0.0115,-0.0115,-0.0063,-0.0022,-0.0014,0.0027,0.0159,0.0313,0.0428,0.0588,0.0821,0.1099,0.1404,0.1648,0.1785,0.1846,0.1851,0.1879,0.1942,0.1714,0.1192,0.0876,0.0802,0.0761,0.0706,0.0634,0.0536,0.0439,0.0058,0.0036,-0.0011,-0.0063,-0.0113,-0.0146,-0.0146,-0.0118,-0.0102,-0.0102,-0.011,-0.0104,-0.0052,-0.0014,0,-0.0091,-0.0151,-0.0121,-0.0115,-0.011,-0.0107,-0.0093,-0.0044,0.0096,0.0258,0.0379,0.0585,0.0972,0.1453,0.1934,0.2365,0.2683,0.2878,0.2975,0.2986,0.2925,0.2766,0.2631,0.231,0.1563,0.0986,0.0857,0.086,0.0862,0.0821,0.0733,0.0096,0.0063,0.0025,-0.0011,-0.0041,-0.0058,-0.006,-0.0047,-0.0027,-0.0008,0.0008,0.006,0.0107,0.0063,-0.0069,-0.0102,-0.0036,0.0049,0.0135,0.0146,0.0066,0.0025,0.0115,0.033,0.0549,0.0827,0.1291,0.1857,0.2368,0.273,0.2958,0.3156,0.3362,0.3554,0.3681,0.3724,0.3733,0.3634,0.3475,0.3052,0.2016,0.1187,0.1049,0.1115,0.1162,0.1148,0.0099,0.008,0.0055,0.0033,0.0014,-0.0003,0.0,0.003,0.0082,0.0102,0.0085,0.0231,0.0343,0.0294,0.0242,0.0146,0.0173,0.0346,0.0478,0.0494,0.0461,0.0549,0.0797,0.109,0.1404,0.1824,0.2252,0.2604,0.2799,0.287,0.2961,0.3123,0.3343,0.3615,0.3884,0.4106,0.4266,0.4395,0.4381,0.4244,0.3744,0.2475,0.1415,0.1209,0.1263,0.1299,0.0118,0.0107,0.0093,0.0074,0.0055,0.0036,0.0027,0.0088,0.0264,0.0269,0.0162,0,0.0055,0.017,0.0154,0.0176,0.0445,0.0709,0.0802,0.0876,0.1162,0.1557,0.1898,0.214,0.2373,0.2541,0.2631,0.2672,0.2678,0.2727,0.2848,0.3041,0.3269,0.3615,0.4051,0.4403,0.4554,0.4713,0.5015,0.5232,0.526,0.4535,0.2766,0.1423,0.1066,0.0961,0.0154,0.0143,0.0129,0.011,0.0082,0.0038,-0.0055,-0.0118,0,-0.0003,0.0049,0.008,0.011,0.0146,0.0209,0.0525,0.0893,0.1233,0.1445,0.1766,0.2197,0.2434,0.2403,0.2387,0.2299,0.2219,0.2277,0.2543,0.3008,0.3527,0.3917,0.4117,0.4139,0.4093,0.4158,0.4408,0.4743,0.5024,0.5235,0.5625,0.6139,0.6641,0.6177,0.3678,0.131,0.0654,0.0187,0.0176,0.0165,0.0151,0.0143,0.014,0.0143,0,-0.0022,0.0107,0.0349,0.0404,0.0319,0.0214,0.0574,0.1118,0.1604,0.1983,0.2395,0.2703,0.2697,0.2497,0.245,0.2469,0.2612,0.2857,0.3392,0.3812,0.4419,0.4919,0.5208,0.5304,0.5296,0.5202,0.4963,0.4672,0.4642,0.4895,0.5202,0.5499,0.5968,0.6798,0.7573,0.7877,0.685,0.4304]},{"header":{"parameterUnit":"m.s-1","parameterCategory":2,"la1":30.5641,"la2":29.4642,"lo1":-89.4342,"lo2":-87.9343,"dx":0.0333,"dy":0.0333,"nx":46,"ny":34,"refTime":"2023-01-15T00:00:00:Z","depth":"6","parameterNumber":3,"parameterNumberName":"V-component_of_CURRENTS"},"data":[0,0,0,0,0,0,0,0,0,0,0,0,0,0,0,0,0,0,0,0,0,0,0,0,0,0,0,0,0,0,0,0,0,0,0,0,0,0,0,0,0,0.0582,0.0176,-0.0297,-0.0354,0,0,0,0,0,0,0,0,0,0,0,0,0,0,0,0,0,0,0,0,0,0,0,0,0,0,0,0,0,0,0,0,0,0,0,0,0,0,0,0,0,0,0.1178,0.061,-0.064,-0.0802,0,0,0,0,0,0,0,0,0,0,0,0,0,0,0,0,0,0,0,0,0,0,0,0,0,0,0,0,0,0,0,0,0,0,0,0,0,0,0,0,0,0,0.1997,0.0775,-0.0906,-0.1277,0,0,0,0,0,0,0,0,0,0,0,0,0,0,0,0,0,0,0,0,0,0,0,0,0,0,0,0,0,0,0,0,0,0,0,0,0,0,0,0,0,0,0.1942,0.0525,-0.1269,-0.1618,0,0,0,0,0,0,0,0,0,0,0,0,0,0,0,0,0,0,0,0,0,0,0,0,0,0,0,0,0,0,0,0,0,0,0,0,0,0,0,0,0,0.1285,0.17,0.0011,-0.1582,-0.1662,0,0,0,0,0,0,0,0,0,0,0,0,0,0,0,0,0,0,0,0,0,0,0,0,0,0,0,0,0,0,0,0,0,0,0,0,0,0,0,0,0,0.0997,0.1849,-0.0209,-0.1599,-0.1447,0,0,0,0,0,0,0,0,0,0,0,0,0.0096,0.0033,-0.006,-0.0044,0.0038,0.0093,0.0044,-0.033,-0.1151,0,0,0,0,0,0,0,0,0,0,0,0,-0.0261,-0.0571,-0.008,0,0,0,0,0,0.0571,0.1912,-0.0316,-0.1247,-0.0917,0,0,0,0,0,0,0,0,0,0.014,0.0126,0.0022,0.0025,-0.0058,-0.0132,-0.0038,0.0146,0.0027,-0.0434,-0.086,-0.111,0.0011,0.003,0.0286,0.0143,-0.0225,0.0382,0,0,0,0,0.0025,-0.0049,-0.036,-0.0709,-0.0989,0,0,0,0,0,0.003,0.1813,-0.0511,-0.1,-0.0695,0,0,0,0,0.0341,0.0135,0.0044,0.0005,0.0016,0.0088,0.0071,-0.0008,-0.0077,-0.025,-0.0258,-0.0069,0.0033,-0.0003,-0.0703,-0.1461,-0.1143,-0.053,-0.0472,-0.0244,-0.0269,-0.0195,0.0376,0.0118,-0.0593,-0.0319,-0.0209,-0.0261,-0.0148,-0.0511,-0.0959,-0.1447,-0.0308,-0.0365,0.0613,0.0,0.0,-0.0091,0.1118,-0.0527,-0.12,-0.1099,0,0,0,0.0739,0.0508,0.0203,0.0063,0.0003,-0.0038,-0.0036,0.0008,-0.0019,-0.0055,-0.0525,-0.0514,-0.0415,-0.0376,0.0016,-0.064,-0.1486,-0.1143,-0.0541,-0.0489,-0.039,-0.0341,-0.0082,0.0184,0.006,-0.0522,-0.0764,-0.0379,-0.0555,-0.0352,-0.0478,-0.0648,-0.0503,-0.0154,-0.0264,0.0472,0,0,0,0.0118,0.0865,-0.0731,-0.0659,0,0,0.0964,0.0978,0.0687,0.0286,0.008,-0.006,-0.0184,-0.0467,0,0,0,-0.0808,-0.0912,-0.0363,-0.028,0,-0.0961,-0.114,-0.0794,0,0,0,0,0,0,0,-0.1346,-0.0604,-0.0272,-0.0269,-0.0648,-0.0255,-0.006,0,0,-0.0313,0.0047,-0.0272,0.0275,0.1324,-0.0165,0.1821,0,0,0,0.0838,0.106,0.1044,0.056,0.0236,0.0102,-0.0162,-0.0308,-0.0777,-0.0525,-0.0439,-0.042,-0.0769,-0.0937,0,0,-0.0187,-0.0948,-0.0794,-0.0552,-0.0549,-0.1118,-0.0997,-0.0319,0.0143,0.0398,-0.0607,-0.1887,0,0,0,-0.0873,-0.0277,-0.006,0.0228,0.0371,-0.0332,-0.0005,-0.0016,0.0398,0.0849,0,0.0758,0.0258,-0.0203,-0.0604,0.042,0.0467,0.047,0.0264,0.0148,0.0365,-0.0104,-0.017,-0.0799,-0.0689,-0.058,-0.0549,-0.0728,-0.0714,0.0151,0.0099,-0.0162,-0.0626,-0.0692,-0.0709,-0.0645,-0.0923,-0.0689,-0.0489,-0.0115,0.0228,-0.017,-0.086,-0.0222,0.0069,-0.0055,-0.0706,-0.0096,0.0008,0.0376,0.0547,0.0255,0.0346,0.0434,0.0541,0.0563,0.0022,-0.0159,0.0148,-0.0129,-0.0385,0,-0.0005,0.0239,0.0014,0.0244,0.0308,0,0,-0.0764,-0.0805,-0.0739,-0.0706,-0.0797,-0.0689,-0.014,-0.0077,-0.0162,-0.0409,-0.0634,-0.0709,-0.0659,-0.0728,-0.0742,-0.0591,-0.0316,-0.0082,-0.006,-0.0349,-0.0071,0.0047,0.0047,-0.0173,0.0184,0.0294,0.0428,0.0453,0.0341,0.031,0.0376,0.0453,0.0401,0.0321,-0.0187,-0.0088,-0.0077,-0.0159,-0.0662,-0.0382,-0.0082,-0.0047,0.0187,0,0,0,-0.056,-0.0651,-0.0709,-0.0695,-0.0733,-0.0703,-0.047,-0.0365,-0.0099,-0.0343,-0.0596,-0.0725,-0.0764,-0.0676,-0.0648,-0.053,-0.0379,-0.0211,-0.0069,-0.0165,-0.0055,-0.0088,-0.003,0.0041,0.0239,0.0305,0.0365,0.0385,0.0363,0.0313,0.0352,0.0431,0.0404,0.0409,0.036,0.0288,0.0168,0.0033,-0.033,-0.0489,-0.1522,0,0,0,0,0,-0.0244,-0.042,-0.0544,-0.0593,-0.0656,-0.0618,-0.0519,-0.0536,0.017,-0.017,-0.0676,-0.0805,-0.0904,-0.081,-0.0667,-0.0574,-0.0434,-0.0225,-0.0085,-0.0129,-0.0085,-0.0115,-0.0014,0.0124,0.0236,0.0269,0.0297,0.0316,0.0319,0.0335,0.0376,0.0445,0.0434,0.0442,0.0428,0.0368,0.0242,0.0102,0,0,-0.1673,0.0266,0.0819,-0.0989,0,0,-0.014,-0.0299,-0.0396,-0.0497,-0.0547,-0.0472,-0.042,-0.0472,0.014,0,-0.0349,-0.0747,-0.0989,-0.0959,-0.0687,-0.0634,-0.0566,-0.0409,-0.0239,-0.0217,-0.0137,-0.0016,0.0074,0.0151,0.022,0.0247,0.0277,0.0277,0.0272,0.0324,0.0417,0.0511,0.0511,0.0511,0.0527,0.0467,0.0352,0.019,0,0,-0.0434,-0.0016,0.0629,-0.0494,0.0,0.0,-0.047,-0.0538,-0.0481,-0.0494,-0.0453,-0.0346,-0.0222,-0.0222,-0.0044,-0.0052,0,-0.0604,-0.097,-0.0992,-0.0648,-0.0621,-0.0645,-0.0538,-0.0316,-0.0162,-0.0011,0.0135,0.0195,0.0253,0.0286,0.0288,0.028,0.0261,0.0247,0.0286,0.0417,0.0486,0.05,0.0503,0.0574,0.0623,0.056,0.0396,0,0,0,-0.0148,0.022,0,0,0,-0.0692,-0.0585,-0.0475,-0.0494,-0.0437,-0.0313,-0.0195,-0.0096,-0.0016,-0.0027,0,-0.0525,-0.0838,-0.0909,-0.0566,-0.0527,-0.0571,-0.0508,-0.0286,-0.0074,0.0107,0.0233,0.0324,0.0412,0.0445,0.0431,0.0376,0.0321,0.025,0.0214,0.0269,0.0313,0.0346,0.0374,0.0483,0.0667,0.0698,0.056,0,0,0,0,0,0,0,-0.0887,-0.0687,-0.0258,-0.028,-0.0393,-0.0407,-0.0343,-0.0233,-0.0088,-0.0025,0.0005,0,-0.0439,-0.0648,-0.0755,-0.0492,-0.0423,-0.045,-0.045,-0.0319,-0.0135,0.0088,0.0266,0.0379,0.0472,0.0538,0.0574,0.0544,0.047,0.0352,0.0225,0.0115,0.0107,0.0143,0.0195,0.033,0.0571,0.0717,0.0637,0,0,0,0,0,0,-0.0582,-0.0651,-0.0489,-0.0162,-0.0203,-0.0286,-0.0319,-0.0332,-0.0198,-0.0085,-0.0014,0.0008,0,-0.0346,-0.0464,-0.0602,-0.0445,-0.0371,-0.0382,-0.0401,-0.0313,-0.0148,0.0113,0.033,0.0448,0.0536,0.0618,0.0662,0.0654,0.0582,0.0464,0.0332,0.0173,0.0096,0.0088,0.011,0.0217,0.0448,0.0599,0.056,0,0,0,0,0,0,-0.0442,-0.0343,-0.047,-0.0266,-0.0206,-0.0231,-0.0266,-0.033,-0.0187,-0.0113,0,0,0,-0.0211,-0.0261,-0.0423,-0.0393,-0.0354,-0.0354,-0.0349,-0.0242,-0.0069,0.0192,0.0387,0.0514,0.0618,0.0689,0.0703,0.0684,0.0629,0.0538,0.0434,0.0288,0.0206,0.0184,0.0179,0.025,0.0385,0.0401,0.031,0,0,0,0,0,0,-0.0132,-0.0382,-0.0687,-0.036,-0.0261,-0.0269,-0.0294,-0.0176,-0.0203,-0.0143,-0.006,0,0,-0.0008,-0.0074,-0.0264,-0.0305,-0.0313,-0.0338,-0.0294,-0.017,-0.0014,0.0233,0.0442,0.061,0.0728,0.0777,0.0772,0.0736,0.0681,0.0618,0.0536,0.0371,0.0253,0.022,0.0217,0.0283,0.0363,0.0236,0.0049,0,0,0,0,0,-0.045,-0.0316,-0.045,-0.0656,-0.0437,-0.0371,-0.0365,-0.0365,0,-0.0228,-0.0148,-0.0074,0,0,0.0146,0.0008,-0.0165,-0.0211,-0.0239,-0.0302,-0.0255,-0.0132,0.0005,0.0261,0.0544,0.0764,0.0879,0.0901,0.0871,0.081,0.072,0.0654,0.0591,0.0434,0.0258,0.0148,0.0126,0.0198,0.0305,0.0135,-0.0091,0,0.0022,0.0,0.0118,0,-0.0225,-0.067,-0.0461,-0.0549,-0.0516,-0.0442,-0.0401,-0.0387,-0.0286,-0.0203,-0.0135,-0.0091,0,0.0066,0.0159,0.0005,-0.0118,-0.0132,-0.0154,-0.0247,-0.0198,-0.011,0.0019,0.031,0.0678,0.0953,0.1057,0.1038,0.0967,0.0868,0.0772,0.0654,0.0533,0.0409,0.0222,0.0055,-0.0027,0.0044,0.0162,0.0063,-0.0137,0,0.0077,0,0.0077,0.0096,0,-0.0692,-0.0544,-0.053,-0.053,-0.0461,-0.0417,-0.0379,-0.0305,-0.0192,-0.0146,-0.0047,0,0.0071,0.0126,-0.0011,-0.0085,-0.006,-0.0074,-0.0159,-0.0121,-0.008,0.0033,0.0382,0.0865,0.1214,0.1324,0.1252,0.1118,0.0986,0.0876,0.0709,0.0538,0.0341,0.0151,-0.0019,-0.0165,-0.0157,-0.0038,-0.0019,-0.0137,0,0.0082,-0.0022,-0.0014,-0.0003,-0.0225,-0.0613,-0.0544,-0.05,-0.0494,-0.047,-0.0434,-0.0382,-0.0313,-0.0244,-0.0082,0,-0.0008,0.0071,0.0082,-0.0011,-0.0041,-0.0027,-0.0027,-0.0074,-0.0047,-0.0027,0.0077,0.0505,0.1112,0.1497,0.1579,0.1442,0.1214,0.0981,0.0821,0.0775,0.0689,0.0409,0.0126,-0.0091,-0.0266,-0.0313,-0.0225,-0.0107,-0.0096,-0.0038,-0.0003,-0.0055,-0.0107,-0.0154,-0.0255,-0.0445,-0.0459,-0.0459,-0.0475,-0.0483,-0.047,-0.0431,-0.0332,-0.0143,0,-0.0104,0.0,0.0044,0.0052,0.0014,-0.0005,-0.0014,0.0014,-0.0005,0.0016,0.0027,0.017,0.0744,0.1437,0.181,0.1849,0.1675,0.1387,0.1016,0.0651,0.0423,0.0486,0.0569,0.0299,-0.0016,-0.0272,-0.0376,-0.0349,-0.0214,-0.0102,-0.0041,-0.0063,-0.011,-0.0173,-0.0228,-0.0297,-0.0368,-0.0404,-0.0437,-0.0475,-0.0505,-0.0503,-0.0467,-0.0393,0,-0.0258,-0.008,-0.0008,0.0011,0.0044,0.0049,0.0019,0.0027,0.0107,0.0069,0.0066,0.011,0.0448,0.1156,0.1719,0.1925,0.1879,0.1703,0.1447,0.1101,0.0654,0.0154,-0.017,-0.0003,0.0341,0.0277,-0.0071,-0.0319,-0.0398,-0.0338,-0.0217,-0.0066,-0.011,-0.0157,-0.0211,-0.0264,-0.031,-0.0343,-0.0376,-0.0412,-0.0461,-0.0508,-0.0472,-0.0459,-0.0489,-0.0341,-0.0247,-0.011,-0.0049,-0.0038,0.0003,0.0047,0.0055,0.0058,0.0088,0.0121,0.0198,0.0415,0.0879,0.1318,0.1491,0.1467,0.1346,0.1184,0.0997,0.0794,0.0519,0.0099,-0.0505,-0.0939,-0.0582,0.0093,0.0319,-0.0049,-0.031,-0.0415,-0.0393,-0.0104,-0.0148,-0.019,-0.0236,-0.0277,-0.0313,-0.033,-0.0338,-0.0363,-0.047,-0.0536,-0.0217,-0.0492,-0.0577,-0.0434,-0.0335,-0.0228,-0.0201,-0.0231,-0.0198,-0.0096,-0.0022,0.0038,0.014,0.028,0.0434,0.0629,0.0824,0.0917,0.0917,0.0871,0.0783,0.064,0.0456,0.0283,0.0102,-0.0168,-0.0527,-0.1151,-0.1681,-0.1162,-0.0016,0.0387,-0.0008,-0.0393,-0.0544,-0.0129,-0.017,-0.0211,-0.025,-0.0288,-0.0319,-0.0321,-0.0233,-0.0168,-0.0593,-0.0678,0,-0.0453,-0.0585,-0.0525,-0.0374,-0.0428,-0.0461,-0.0489,-0.0376,-0.0157,0.0003,0.0129,0.022,0.0299,0.0401,0.0514,0.0613,0.075,0.0821,0.0802,0.0706,0.0547,0.0297,-0.0008,-0.0302,-0.0489,-0.0706,-0.1049,-0.1708,-0.2192,-0.1491,-0.0157,0.0233,-0.0154,-0.0407,-0.0146,-0.0187,-0.0222,-0.0261,-0.0299,-0.0349,-0.0382,-0.008,0,-0.0731,-0.0742,-0.031,-0.033,-0.0508,-0.0354,-0.0519,-0.0478,-0.0503,-0.0415,-0.0214,0.0,0.0135,0.0222,0.0264,0.0283,0.0396,0.0552,0.0758,0.0939,0.0953,0.0849,0.0695,0.0533,0.0338,0.0003,-0.0368,-0.0599,-0.0846,-0.109,-0.1426,-0.2057,-0.2362,-0.1632,-0.0522,-0.0099,-0.0069,-0.0162,-0.0195,-0.0228,-0.0261,-0.0305,-0.0363,-0.0508,0,-0.0099,-0.0613,-0.0596,-0.0363,-0.0354,-0.0211,-0.0393,-0.0349,-0.0211,-0.0206,-0.0129,0.003,0.0148,0.0294,0.0308,0.0236,0.0233,0.0382,0.0566,0.081,0.0846,0.0733,0.0536,0.0346,0.0242,0.0201,-0.0005,-0.0566,-0.0906,-0.0981,-0.1252,-0.1629,-0.2093,-0.2585,-0.2637,-0.2044,-0.1176,-0.0519]}],[{"header":{"parameterUnit":"m.s-1","parameterCategory":2,"la1":30.5641,"la2":29.4642,"lo1":-89.4342,"lo2":-87.9343,"dx":0.0333,"dy":0.0333,"nx":46,"ny":34,"refTime":"2023-01-15T00:00:00:Z","depth":"8","parameterNumber":2,"parameterNumberName":"U-component_of_CURRENTS"},"data":[0,0,0,0,0,0,0,0,0,0,0,0,0,0,0,0,0,0,0,0,0,0,0,0,0,0,0,0,0,0,0,0,0,0,0,0,0,0,0,0,0,0.036,0.0829,0.078,0.0376,0,0,0,0,0,0,0,0,0,0,0,0,0,0,0,0,0,0,0,0,0,0,0,0,0,0,0,0,0,0,0,0,0,0,0,0,0,0,0,0,0,0,0.0198,0.0689,0.084,0.0428,0,0,0,0,0,0,0,0,0,0,0,0,0,0,0,0,0,0,0,0,0,0,0,0,0,0,0,0,0,0,0,0,0,0,0,0,0,0,0,0,0,0,0.0321,0.0939,0.1071,0.0536,0,0,0,0,0,0,0,0,0,0,0,0,0,0,0,0,0,0,0,0,0,0,0,0,0,0,0,0,0,0,0,0,0,0,0,0,0,0,0,0,0,0,0.0706,0.1112,0.0959,0.0481,0,0,0,0,0,0,0,0,0,0,0,0,0,0,0,0,0,0,0,0,0,0,0,0,0,0,0,0,0,0,0,0,0,0,0,0,0,0,0,0,0,-0.0033,0.0525,0.1025,0.1005,0.0711,0,0,0,0,0,0,0,0,0,0,0,0,0,0,0,0,0,0,0,0,0,0,0,0,0,0,0,0,0,0,0,0,0,0,0,0,0,0,0,0,0,0.0201,0.0865,0.1085,0.086,0.0667,0,0,0,0,0,0,0,0,0,0,0,0,0.0069,0.0181,0.0231,0.0253,0.0302,0.0349,0.0288,0.0041,-0.0129,0,0,0,0,0,0,0,0,0,0,0,0,-0.0244,-0.0209,0.0071,0,0,0,0,0,-0.0055,0.0643,0.1129,0.081,0.0687,0,0,0,0,0,0,0,0,0,0.0077,0.0217,0.0316,0.0321,0.0236,0.0107,-0.0014,0.0003,0.0217,0.0486,0.0552,0.0799,0.1112,0.1154,0.0755,0.0135,0.0124,0.0302,0,0,0,0,-0.0055,-0.0354,-0.0744,-0.0676,-0.047,0,0,0,0,0,-0.0058,0.0428,0.0904,0.0739,0.0651,0,0,0,0,0.0003,0.0132,0.0291,0.031,0.0291,0.0286,0.0294,0.0319,0.0327,0.0211,-0.0052,-0.0275,-0.0129,0.0242,0.0621,0.075,0.0555,0.0566,0.0711,0.0656,0.047,0.0071,-0.0217,-0.0214,-0.0382,-0.081,-0.1046,-0.0939,-0.0783,-0.067,-0.0192,0.0412,0.0645,0.0725,0.0832,0.0744,0.0667,0.0824,0.0769,0.072,0.0786,0.0714,0,0,0,-0.0242,-0.0426,-0.0121,0.0184,0.0231,0.0211,0.0233,0.0291,0.0341,0.0379,0.0233,-0.0302,-0.0662,-0.0645,0.0104,0.0821,0.0769,0.0552,0.0396,0.0445,0.0396,0.0327,0.0236,-0.0038,-0.0115,0.0137,-0.0157,-0.0709,-0.0824,-0.0805,-0.072,-0.0244,0.0437,0.0714,0.0615,0.0522,0,0,0,-0.0354,0.0085,0.0862,0.0733,0,0,-0.0173,-0.0387,-0.0357,-0.0102,0.014,0.0228,0.0275,0.0291,0,0,0,-0.0055,-0.0371,-0.0621,-0.0613,0,0.0459,0.0711,0.0505,0,0,0,0,0,0,0,-0.0233,-0.0203,0.0173,0.0225,-0.0041,-0.0475,-0.0714,0,0,0.0071,0.0066,0.0244,0.0341,0.056,0.0313,-0.0335,0,0,0,-0.014,-0.0354,-0.0338,-0.0187,-0.0044,0.0091,0.022,0.0434,0.0665,0.0569,0.0231,0.0019,0.0192,0.042,0,0,-0.0297,-0.0088,0.0522,0.0222,-0.0066,0.028,0.0052,-0.025,0.0005,0.047,0.0354,0.0005,0,0,0,-0.0253,-0.0478,-0.0338,-0.0409,0.0294,-0.0049,-0.0019,0.0047,-0.0162,-0.0401,0,-0.0253,-0.047,-0.0552,-0.0464,0.1404,0.0802,0.0371,0.011,-0.0011,0.0019,0.0126,0.0461,0.0736,0.0525,0.0129,-0.0099,0.0225,0.031,-0.0277,-0.0604,-0.0599,-0.0313,0.0115,0.0385,0.0409,0.0431,0.0379,0.0275,0.0104,-0.0036,-0.0206,-0.0415,-0.0497,-0.0283,-0.0269,-0.0582,-0.0525,-0.0162,-0.0038,0.0214,0.0409,0.0343,0.0121,-0.0437,-0.0593,-0.0159,0.0184,-0.0132,-0.0527,-0.0832,0,-0.0154,-0.0082,0.0047,-0.0055,-0.0052,0,0,-0.0091,-0.019,-0.0211,-0.0214,-0.0096,0.0063,-0.0085,-0.036,-0.0302,-0.0033,0.0321,0.053,0.0596,0.0599,0.0585,0.0494,0.0308,0.0255,0.031,0.0093,-0.003,0.0044,0.0027,-0.0011,0.0124,0.0286,0.0357,0.0382,0.0439,0.0516,0.0591,0.0467,0.0088,-0.0077,-0.0036,0.0044,0.0011,-0.0214,0.1607,0.0934,0.0302,0.0096,0.0173,0,0,0,-0.0181,-0.042,-0.0385,-0.0203,-0.0181,-0.028,-0.0341,-0.0434,-0.0261,0.0148,0.0494,0.0629,0.0632,0.0533,0.0417,0.0335,0.0275,0.0231,0.0236,0.0379,0.0525,0.058,0.0626,0.0695,0.0733,0.0711,0.0648,0.0563,0.0536,0.0599,0.0709,0.0827,0.095,0.1,0.0813,0.0456,0.0206,0.0129,0.0014,0.0544,0.1066,0,0,0,0,0,-0.0102,-0.0239,-0.0255,-0.0143,-0.0211,-0.0464,-0.0648,-0.0544,-0.025,0.0113,0.0387,0.0472,0.0516,0.0472,0.0417,0.0346,0.0231,0.0085,-0.0019,-0.0003,0.0041,0.0115,0.0258,0.0382,0.0453,0.0503,0.0536,0.0552,0.056,0.0577,0.0629,0.0731,0.0879,0.1063,0.1236,0.1329,0.1329,0.1244,0,0,0.031,0.0533,0.031,0.0181,0,0,-0.0102,-0.0063,0.0025,0.0011,-0.0157,-0.0536,-0.0843,-0.0854,-0.0736,0,0.0088,0.017,0.0275,0.0365,0.0404,0.0368,0.0195,-0.0074,-0.0313,-0.0423,-0.0456,-0.0412,-0.0277,-0.0146,-0.0052,0.0058,0.0181,0.0302,0.039,0.045,0.0511,0.0569,0.0645,0.0772,0.0959,0.1181,0.1384,0.1524,0,0,0.0255,0.031,-0.0201,-0.0211,0.0027,0.0157,0.0288,0.008,-0.0049,0.0008,0.0055,-0.0041,-0.0404,-0.0731,-0.0385,0.003,0,-0.014,-0.0118,0.0184,0.0382,0.0456,0.0437,0.0319,0.0102,-0.0033,-0.0005,0.0052,0.011,0.0192,0.0266,0.0319,0.0357,0.0398,0.0448,0.0486,0.05,0.0489,0.0486,0.0525,0.0632,0.0819,0.1046,0.1288,0,0,0,-0.0102,-0.0203,0,0,0,-0.0198,-0.0308,-0.0253,-0.0302,-0.0124,0.0082,0.0074,-0.0063,-0.0082,0.0005,0,-0.0198,-0.0269,0.0049,0.0335,0.0453,0.0558,0.0615,0.0577,0.0494,0.0431,0.0415,0.0456,0.0549,0.0687,0.0835,0.0948,0.0981,0.0948,0.086,0.0739,0.0613,0.0516,0.047,0.0514,0.0673,0.0884,0.109,0,0,0,0,0,0,0,-0.0121,-0.0236,-0.0222,-0.019,-0.0272,-0.0308,-0.0129,0.003,0.0071,0.0044,0.0025,0,-0.0231,-0.039,-0.003,0.0277,0.0357,0.045,0.0489,0.0461,0.0437,0.0417,0.0437,0.0492,0.0541,0.0613,0.0722,0.0873,0.1046,0.1189,0.1244,0.1195,0.1068,0.092,0.0829,0.0777,0.078,0.0851,0.0931,0,0,0,0,0,0,0.0088,0.0052,-0.0014,-0.0069,-0.0159,-0.019,-0.0275,-0.0244,-0.006,0.0066,0.0069,0.006,0,-0.0233,-0.0456,0.0008,0.0239,0.0247,0.0264,0.0294,0.0319,0.033,0.0338,0.0374,0.0428,0.0489,0.0563,0.0648,0.0755,0.089,0.1038,0.1187,0.1321,0.1412,0.1434,0.1398,0.1302,0.1162,0.103,0.0934,0,0,0,0,0,0,0.0041,0.0297,0.0297,0.0005,-0.0104,-0.0187,-0.0242,-0.0231,-0.0091,0.0027,0,0,0,-0.0228,-0.039,0.008,0.0236,0.025,0.0214,0.0231,0.028,0.031,0.0332,0.0368,0.042,0.0492,0.0571,0.0645,0.0717,0.0788,0.0871,0.0967,0.1074,0.1192,0.1291,0.1346,0.1324,0.1231,0.1104,0.0956,0,0,0,0,0,0,0.0184,0.0591,0.0497,0.0179,0.0011,-0.0211,-0.0264,-0.0165,-0.0049,0.0,0.0025,0,0,-0.0148,-0.0217,0.0096,0.0201,0.0266,0.0277,0.0269,0.0277,0.0283,0.0283,0.0302,0.0368,0.0461,0.0563,0.0645,0.0711,0.0769,0.0824,0.0884,0.0939,0.0972,0.0981,0.0981,0.1,0.1003,0.0926,0.0791,0,0,0,0,0,0.0363,0.0552,0.0461,0.0407,0.0184,-0.0022,-0.0179,-0.0206,0,-0.0011,-0.0008,0.0003,0,0,-0.0099,-0.0126,0.0052,0.0126,0.0209,0.0277,0.0305,0.0291,0.0253,0.0247,0.0305,0.0412,0.0541,0.0656,0.0739,0.0786,0.0827,0.0865,0.0887,0.092,0.0956,0.0948,0.0873,0.0783,0.0736,0.0689,0.0623,0,-0.0038,-0.006,-0.0077,0,0.0217,0.0346,0.0255,0.0181,0.0055,-0.006,-0.014,-0.0173,-0.0179,-0.0115,-0.0047,-0.0022,0,0.0016,-0.0052,-0.0044,0.0008,0.0063,0.0151,0.0253,0.0319,0.0332,0.0305,0.0277,0.0313,0.0426,0.0558,0.0678,0.0764,0.0805,0.0829,0.0868,0.0901,0.0904,0.0906,0.0904,0.0838,0.0717,0.0607,0.056,0.056,0,-0.0063,0,-0.0038,-0.008,0,0.0027,0.0019,-0.0041,-0.0085,-0.0132,-0.017,-0.019,-0.0162,-0.0107,-0.0088,-0.0088,0,-0.0027,-0.0091,-0.0077,-0.0036,0.0005,0.0088,0.0225,0.0341,0.0382,0.0363,0.0354,0.0404,0.0511,0.0648,0.0777,0.0876,0.0906,0.0868,0.0838,0.0849,0.0873,0.0873,0.084,0.0777,0.0665,0.0522,0.0437,0.045,0,-0.0047,-0.0096,-0.0157,-0.0294,-0.0412,-0.0302,-0.0162,-0.0148,-0.0148,-0.0173,-0.0209,-0.0214,-0.0159,-0.0135,-0.0154,0,-0.0019,-0.0066,-0.0113,-0.0118,-0.0063,-0.0016,0.0036,0.0176,0.0343,0.0431,0.0467,0.0519,0.0623,0.0766,0.0884,0.097,0.1055,0.1167,0.1231,0.1104,0.0915,0.0843,0.084,0.0824,0.0766,0.067,0.0536,0.0401,0.0341,0.0071,0.0022,-0.0038,-0.011,-0.0203,-0.028,-0.0261,-0.0184,-0.0148,-0.0168,-0.0211,-0.0244,-0.0255,-0.025,-0.0244,0,-0.0047,-0.0102,-0.0132,-0.0146,-0.0104,-0.0055,-0.003,0.0016,0.0146,0.0291,0.039,0.0522,0.0706,0.0931,0.1167,0.1335,0.1409,0.1423,0.1404,0.1415,0.1519,0.1431,0.1088,0.0871,0.081,0.0766,0.0714,0.064,0.0541,0.0442,0.0058,0.0038,-0.0005,-0.0055,-0.0104,-0.014,-0.0137,-0.0118,-0.0121,-0.014,-0.0168,-0.0173,-0.0121,-0.0077,0,-0.0099,-0.017,-0.0162,-0.0162,-0.0146,-0.0129,-0.0104,-0.0052,0.0082,0.0247,0.0324,0.0434,0.0731,0.109,0.1415,0.164,0.1796,0.195,0.2087,0.2156,0.214,0.2016,0.1928,0.1777,0.1324,0.095,0.0862,0.0865,0.0871,0.0827,0.0736,0.0096,0.0066,0.003,-0.0005,-0.0033,-0.0052,-0.006,-0.006,-0.006,-0.006,-0.0066,-0.0038,0.0,-0.0055,-0.0222,-0.025,-0.0228,-0.0211,-0.011,-0.0016,0.0011,0.0008,0.0093,0.0253,0.0352,0.0497,0.086,0.1203,0.1434,0.1513,0.1516,0.1612,0.1802,0.203,0.2233,0.2417,0.2574,0.2579,0.2519,0.2304,0.164,0.1112,0.1055,0.1121,0.1165,0.1151,0.0102,0.008,0.0058,0.0036,0.0016,0.0003,-0.0003,0.0005,0.003,0.0041,0.0019,0.0129,0.0217,0.0132,-0.0027,-0.0261,-0.0382,-0.0277,-0.0135,0.0071,0.0244,0.0349,0.05,0.0667,0.0805,0.106,0.1198,0.1247,0.1192,0.1291,0.1593,0.1846,0.206,0.2208,0.2252,0.237,0.2694,0.3008,0.3109,0.3106,0.2859,0.2022,0.1324,0.1214,0.1266,0.1302,0.0118,0.0107,0.0093,0.0074,0.0058,0.0038,0.0027,0.008,0.0217,0.0198,0.0099,0,-0.0027,-0.0052,-0.0184,-0.0352,-0.0225,-0.0069,0.003,0.0261,0.058,0.0926,0.1145,0.1173,0.1145,0.1126,0.1132,0.1209,0.1634,0.2104,0.256,0.2868,0.3041,0.3175,0.3282,0.3373,0.3329,0.3252,0.3549,0.3898,0.4054,0.3584,0.2304,0.134,0.1068,0.0961,0.0151,0.014,0.0126,0.0107,0.0082,0.0038,-0.0055,-0.0121,0,-0.0016,-0.0025,-0.0115,-0.0143,-0.014,-0.0201,0.0107,0.0316,0.042,0.0536,0.0838,0.1302,0.125,0.1052,0.0843,0.0923,0.1159,0.1741,0.2477,0.3255,0.3881,0.4299,0.4518,0.4587,0.4576,0.4532,0.4455,0.4353,0.4307,0.434,0.4546,0.4988,0.557,0.5309,0.3225,0.1211,0.0654,0.0181,0.0173,0.0157,0.0143,0.0135,0.0132,0.0132,0,0.0107,0.0192,0.0168,0.0091,-0.0047,-0.0195,0.0146,0.0478,0.0689,0.0926,0.1434,0.1437,0.125,0.106,0.0961,0.1401,0.2131,0.2884,0.3631,0.4304,0.4845,0.526,0.5507,0.5587,0.5532,0.5441,0.5353,0.5213,0.5043,0.4938,0.4941,0.5065,0.54,0.6054,0.679,0.7191,0.635,0.4049]},{"header":{"parameterUnit":"m.s-1","parameterCategory":2,"la1":30.5641,"la2":29.4642,"lo1":-89.4342,"lo2":-87.9343,"dx":0.0333,"dy":0.0333,"nx":46,"ny":34,"refTime":"2023-01-15T00:00:00:Z","depth":"8","parameterNumber":3,"parameterNumberName":"V-component_of_CURRENTS"},"data":[0,0,0,0,0,0,0,0,0,0,0,0,0,0,0,0,0,0,0,0,0,0,0,0,0,0,0,0,0,0,0,0,0,0,0,0,0,0,0,0,0,0.0201,0.0288,-0.0055,0.0129,0,0,0,0,0,0,0,0,0,0,0,0,0,0,0,0,0,0,0,0,0,0,0,0,0,0,0,0,0,0,0,0,0,0,0,0,0,0,0,0,0,0,0.0308,0.0352,-0.0206,-0.0096,0,0,0,0,0,0,0,0,0,0,0,0,0,0,0,0,0,0,0,0,0,0,0,0,0,0,0,0,0,0,0,0,0,0,0,0,0,0,0,0,0,0,0.0755,0.0393,-0.039,-0.039,0,0,0,0,0,0,0,0,0,0,0,0,0,0,0,0,0,0,0,0,0,0,0,0,0,0,0,0,0,0,0,0,0,0,0,0,0,0,0,0,0,0,0.0733,0.0104,-0.0626,-0.0698,0,0,0,0,0,0,0,0,0,0,0,0,0,0,0,0,0,0,0,0,0,0,0,0,0,0,0,0,0,0,0,0,0,0,0,0,0,0,0,0,0,0.0667,0.0618,-0.0063,-0.053,-0.0695,0,0,0,0,0,0,0,0,0,0,0,0,0,0,0,0,0,0,0,0,0,0,0,0,0,0,0,0,0,0,0,0,0,0,0,0,0,0,0,0,0,0.1165,0.0755,-0.0173,-0.0349,-0.0404,0,0,0,0,0,0,0,0,0,0,0,0,0.0091,0.0041,-0.0038,0.0005,0.0159,0.0261,0.0242,-0.0102,-0.0821,0,0,0,0,0,0,0,0,0,0,0,0,0.0146,-0.0201,-0.0253,0,0,0,0,0,0.1118,0.0385,-0.0541,-0.0368,-0.0214,0,0,0,0,0,0,0,0,0,0.0121,0.0121,0.0027,0.0025,-0.0055,-0.0069,0.0143,0.0305,0.033,0.022,-0.0209,-0.0744,-0.0494,-0.0003,0.0563,0.0585,0.0467,0.1049,0,0,0,0,0.0148,0.0445,0.0126,-0.0753,-0.0854,0,0,0,0,0,0.0613,-0.0165,-0.0673,-0.0423,-0.0313,0,0,0,0,-0.0014,0.0099,0.0041,0.0022,0.0044,0.008,0.0063,-0.0016,-0.0085,-0.0231,-0.0071,0.042,0.0478,0.0522,0.0228,-0.0203,-0.028,0.0016,0.0283,0.0555,0.0549,0.0525,0.0753,0.0901,0.008,-0.0428,-0.0483,0.006,0.0143,-0.0236,-0.1198,-0.0928,0.0195,-0.0272,0.0157,0.0,0.0,0.0233,-0.0244,0.0047,-0.0104,-0.0135,0,0,0,0.025,0.0159,0.0209,0.0093,0.0052,0.0011,-0.003,0.0003,-0.003,-0.0063,-0.0412,-0.0264,0.0063,0.0016,0.0324,0.008,-0.0187,0.0211,0.0247,0.0277,0.0272,0.0255,0.0291,0.0228,0.045,-0.0129,-0.0541,-0.0217,0.0049,-0.0085,-0.0467,-0.072,-0.0201,0.0096,-0.0588,-0.0426,0,0,0,0.0475,0.0799,0.0107,0.0082,0,0,0.0321,0.0409,0.0431,0.0327,0.0124,0.0003,-0.0129,-0.0371,0,0,0,-0.0563,-0.0604,-0.0211,-0.0233,0,-0.0137,-0.0019,0.0316,0,0,0,0,0,0,0,-0.0588,-0.0327,0.0022,0.0063,-0.0269,-0.0445,-0.0689,0,0,-0.084,-0.0775,-0.0486,-0.0052,0.0558,0.0481,0.0703,0,0,0,0.0591,0.0555,0.0588,0.0439,0.0264,0.0093,-0.008,-0.0214,-0.0604,-0.0319,-0.0288,-0.0102,-0.0324,-0.047,0,0,-0.0121,-0.019,0.0025,0.0124,-0.0104,-0.095,-0.0981,-0.0376,0.0137,-0.0148,-0.0843,-0.0566,0,0,0,-0.0667,-0.0758,-0.089,0.0129,-0.0244,-0.0709,-0.0368,-0.0294,-0.003,0.0376,0,0.0327,0.0115,0.0492,0.017,0.0294,0.0371,0.0376,0.0209,0.0074,0.0195,-0.0041,-0.0099,-0.0591,-0.0393,-0.0294,-0.0201,-0.0255,-0.0211,0.0503,0.0379,0.0115,-0.0126,-0.0214,-0.0264,-0.031,-0.0821,-0.0838,-0.0494,-0.0033,-0.0236,-0.0821,-0.0456,-0.0088,-0.0396,-0.0648,-0.0623,-0.0316,-0.0135,0.022,0.0272,-0.0135,0.0,0.0019,0.0253,0.0096,0.0036,0.036,0.0379,0.0404,0.0154,0,0.0088,0.0258,0.0044,0.0033,0.0151,0,0,-0.0288,-0.0319,-0.0299,-0.0338,-0.0459,-0.0244,0.0321,0.0349,0.0297,-0.0074,-0.0368,-0.0481,-0.0514,-0.064,-0.0717,-0.0585,-0.036,-0.0261,-0.0305,-0.0494,-0.0211,-0.0143,-0.0258,-0.0321,0.0104,0.022,0.0415,0.0448,0.0324,0.0294,0.0206,0.003,0.0063,-0.0003,0.0036,0.0176,0.0231,0.0151,-0.0393,-0.0099,0.017,0.0011,0.0052,0,0,0,0.0041,-0.0071,-0.0258,-0.0365,-0.0428,-0.0244,0.0162,0.0319,0.0074,-0.0236,-0.0489,-0.0623,-0.0687,-0.0673,-0.0648,-0.053,-0.0382,-0.0217,-0.008,-0.017,-0.0071,-0.0102,-0.0041,0.0025,0.0222,0.0286,0.0343,0.0363,0.0335,0.0291,0.0308,0.0297,0.0239,0.0132,-0.0143,-0.0118,-0.0104,-0.0113,-0.0198,-0.0209,-0.056,0,0,0,0,0,0.0228,0.0187,-0.0091,-0.0302,-0.0349,-0.0195,-0.0036,-0.0093,-0.0225,-0.0195,-0.053,-0.0703,-0.0808,-0.0769,-0.0665,-0.0577,-0.0437,-0.0231,-0.0093,-0.0132,-0.0093,-0.0121,-0.0022,0.0113,0.0222,0.025,0.0275,0.0291,0.0291,0.031,0.0352,0.0409,0.0396,0.0376,0.0236,0.0036,-0.0146,-0.0286,0,0,-0.0629,0.0341,0.0906,0.019,0,0,0.0102,0.0201,0.0005,-0.0225,-0.0195,-0.0082,-0.0154,-0.0396,-0.0492,0,-0.0244,-0.0571,-0.0777,-0.0832,-0.0692,-0.0643,-0.0574,-0.0412,-0.0239,-0.022,-0.014,-0.0022,0.0066,0.0146,0.0211,0.0236,0.0266,0.0264,0.0255,0.0302,0.0385,0.0464,0.045,0.0439,0.0423,0.0299,0.0129,-0.0058,0,0,-0.0085,-0.0016,0.0508,0.0093,0.0,0.0,-0.0258,-0.011,-0.0104,-0.0143,-0.0049,0.0058,0.0069,-0.0099,-0.0448,-0.0055,0,-0.0357,-0.0593,-0.0835,-0.0678,-0.064,-0.0665,-0.0555,-0.033,-0.0173,-0.0022,0.0121,0.0184,0.0239,0.0275,0.0275,0.0266,0.025,0.0231,0.0266,0.0387,0.0448,0.0439,0.0445,0.0514,0.0533,0.0423,0.0209,0,0,0,-0.0184,0.006,0,0,0,-0.0316,-0.0154,0.0011,0.0063,0.006,0.0069,0.0113,0.0008,-0.014,-0.003,0,-0.025,-0.0376,-0.0821,-0.0621,-0.0552,-0.0599,-0.0538,-0.0313,-0.0093,0.0088,0.0214,0.0305,0.0393,0.0423,0.0409,0.0354,0.0299,0.0231,0.0192,0.0242,0.0291,0.0316,0.0343,0.0459,0.0637,0.064,0.0456,0,0,0,0,0,0,0,-0.0549,-0.0294,0.0126,0.0211,0.0217,0.0148,0.0014,-0.0044,-0.0077,-0.0025,0.0005,0,-0.0209,-0.0236,-0.0797,-0.0566,-0.0453,-0.0481,-0.0478,-0.0346,-0.0157,0.0066,0.0244,0.0357,0.0448,0.0516,0.0549,0.0516,0.0442,0.0324,0.0198,0.0088,0.0082,0.0118,0.017,0.0313,0.0552,0.0687,0.058,0,0,0,0,0,0,-0.0236,-0.0354,-0.0159,0.0363,0.022,0.0214,0.014,-0.0069,-0.014,-0.0091,-0.0014,0.0005,0,-0.0124,-0.0162,-0.0709,-0.0525,-0.0401,-0.0404,-0.0423,-0.0335,-0.017,0.0093,0.0308,0.0423,0.0514,0.0596,0.064,0.0629,0.0558,0.0437,0.0302,0.014,0.0063,0.0055,0.008,0.019,0.0415,0.0563,0.0511,0,0,0,0,0,0,0.0041,-0.006,-0.0071,0.0376,0.0198,0.0192,0.0063,-0.0135,-0.0168,-0.0121,0,0,0,-0.0014,-0.0165,-0.0533,-0.0472,-0.0396,-0.0379,-0.0371,-0.0264,-0.0093,0.017,0.0365,0.0489,0.0593,0.0665,0.0681,0.0662,0.0607,0.0514,0.0404,0.0258,0.0168,0.0146,0.0135,0.0203,0.0327,0.0354,0.0258,0,0,0,0,0,0,0.0385,-0.0074,-0.0137,0.0233,0.0146,0.011,-0.0055,-0.0071,-0.0195,-0.0154,-0.0074,0,0,0.0025,-0.0154,-0.0363,-0.0387,-0.0374,-0.0376,-0.0321,-0.0198,-0.0041,0.0206,0.0417,0.0582,0.07,0.075,0.0747,0.0711,0.0656,0.0591,0.0505,0.0338,0.0217,0.0181,0.0173,0.0231,0.0299,0.0184,0.0003,0,0,0,0,0,-0.0195,0.0113,-0.0206,-0.0165,0.0038,0.0036,-0.0049,-0.0198,0,-0.0222,-0.0157,-0.0091,0,0,0.0027,-0.0107,-0.0258,-0.0299,-0.0313,-0.036,-0.0291,-0.0165,-0.0025,0.0231,0.0514,0.0733,0.0851,0.0873,0.0843,0.0783,0.0695,0.0629,0.056,0.0404,0.0225,0.0113,0.0091,0.0157,0.0253,0.0088,-0.0126,0,0.0025,0.0,0.011,0,-0.0099,-0.0302,-0.0264,-0.0222,-0.0181,-0.0168,-0.0214,-0.0264,-0.0217,-0.0233,-0.014,-0.0107,0,0.0036,0.0044,-0.0085,-0.0211,-0.0217,-0.0225,-0.0313,-0.0247,-0.0154,-0.0014,0.0277,0.0648,0.0917,0.1019,0.1,0.0928,0.0835,0.0739,0.0629,0.0508,0.0382,0.0192,0.0016,-0.006,0.0011,0.0126,0.0027,-0.0168,0,0.0077,0,0.0069,0.0085,0,-0.0497,-0.0415,-0.0382,-0.0374,-0.0338,-0.0316,-0.0286,-0.0239,-0.0217,-0.0151,-0.0055,0,0.0033,0.0038,-0.0093,-0.0179,-0.014,-0.0135,-0.0228,-0.0187,-0.014,-0.0011,0.0343,0.0821,0.1143,0.122,0.1132,0.0994,0.0879,0.0808,0.0676,0.0511,0.0319,0.0126,-0.0058,-0.0198,-0.0187,-0.0066,-0.0047,-0.0165,0,0.0077,-0.0027,-0.0019,-0.0011,-0.0225,-0.0549,-0.0503,-0.0467,-0.0445,-0.0401,-0.0354,-0.0308,-0.0275,-0.0247,-0.0088,0,-0.0036,0.0033,0.0025,-0.0085,-0.0121,-0.0088,-0.0071,-0.0132,-0.0121,-0.0099,0.0014,0.0437,0.0981,0.1285,0.1305,0.1145,0.092,0.0714,0.0599,0.0607,0.0582,0.0382,0.0102,-0.0118,-0.0291,-0.0335,-0.0247,-0.0129,-0.0121,-0.0038,-0.0008,-0.0058,-0.011,-0.0157,-0.0255,-0.0428,-0.0445,-0.0437,-0.0428,-0.0412,-0.0385,-0.036,-0.0305,-0.0146,0,-0.0137,-0.0036,0.0005,0.0003,-0.0041,-0.0058,-0.0049,-0.0022,-0.0047,-0.006,-0.0052,0.006,0.0527,0.1079,0.1324,0.1288,0.111,0.0843,0.0538,0.0247,0.0113,0.0247,0.0398,0.0222,-0.0041,-0.0288,-0.0396,-0.0368,-0.0233,-0.0121,-0.0044,-0.0069,-0.0115,-0.0176,-0.0231,-0.0294,-0.0363,-0.0393,-0.0404,-0.0417,-0.0428,-0.0423,-0.0407,-0.0343,0,-0.0374,-0.0146,-0.0093,-0.0063,-0.0019,0.0,-0.0011,0.0,0.0049,0.0025,-0.0063,-0.0077,0.0135,0.064,0.106,0.1225,0.1173,0.1005,0.0739,0.0417,0.0049,-0.0332,-0.0492,-0.0231,0.0137,0.014,-0.0093,-0.0335,-0.0417,-0.0357,-0.0236,-0.0071,-0.0115,-0.0162,-0.0214,-0.0264,-0.0308,-0.0341,-0.0363,-0.0376,-0.0407,-0.0442,-0.042,-0.0426,-0.0426,-0.0379,-0.0368,-0.025,-0.0181,-0.0176,-0.0129,-0.0036,0.0022,0.0011,-0.0047,-0.0102,-0.014,-0.0049,0.0225,0.0632,0.0906,0.1022,0.1011,0.0895,0.0684,0.0387,-0.0014,-0.0478,-0.0986,-0.1176,-0.0731,-0.0113,0.0146,-0.0088,-0.0332,-0.0437,-0.0415,-0.011,-0.0154,-0.0192,-0.0236,-0.0275,-0.0308,-0.0327,-0.033,-0.0341,-0.0423,-0.047,-0.0201,-0.0423,-0.0481,-0.0387,-0.0299,-0.0154,-0.0154,-0.0275,-0.0294,-0.0192,-0.0159,-0.0247,-0.0297,-0.0266,-0.0198,0.0025,0.0341,0.0643,0.0887,0.1014,0.1044,0.0967,0.078,0.0516,0.0157,-0.0352,-0.0912,-0.1555,-0.1843,-0.1231,-0.0214,0.0211,-0.0063,-0.0423,-0.0571,-0.0135,-0.0173,-0.0211,-0.0247,-0.028,-0.031,-0.0316,-0.0236,-0.0159,-0.0494,-0.0563,0,-0.0363,-0.0409,-0.0211,0.0165,0.019,0.0025,-0.0255,-0.0475,-0.0511,-0.0558,-0.0552,-0.0385,-0.0214,0.0033,0.0341,0.0665,0.1011,0.1189,0.1195,0.1126,0.1035,0.0873,0.0599,0.0211,-0.0201,-0.0571,-0.1156,-0.195,-0.2277,-0.1563,-0.0341,0.0104,-0.0195,-0.0431,-0.0151,-0.0187,-0.0222,-0.0255,-0.0291,-0.0335,-0.0374,-0.0082,0,-0.0442,-0.0563,-0.0236,-0.0275,-0.0173,0.0365,0.0503,0.0335,-0.0093,-0.0596,-0.0665,-0.0717,-0.0538,-0.0272,-0.0038,0.0201,0.0527,0.0893,0.1192,0.1338,0.1291,0.1132,0.0961,0.0838,0.0742,0.0552,0.022,-0.0151,-0.0423,-0.0736,-0.1274,-0.1989,-0.2346,-0.175,-0.0731,-0.0192,-0.0104,-0.0162,-0.0195,-0.0228,-0.0258,-0.0294,-0.0343,-0.0464,0,-0.0247,-0.028,-0.0382,-0.0211,-0.011,0.0365,0.0643,0.047,-0.0118,-0.0615,-0.0722,-0.0711,-0.045,-0.0096,0.0192,0.0401,0.0659,0.0901,0.1044,0.109,0.1044,0.0928,0.075,0.0547,0.0409,0.0374,0.0341,0.0132,-0.0253,-0.0654,-0.1003,-0.1357,-0.1832,-0.2368,-0.2618,-0.2142,-0.1307,-0.064]}],[{"header":{"parameterUnit":"m.s-1","parameterCategory":2,"la1":30.5641,"la2":29.4642,"lo1":-89.4342,"lo2":-87.9343,"dx":0.0333,"dy":0.0333,"nx":46,"ny":34,"refTime":"2023-01-15T00:00:00:Z","depth":"10","parameterNumber":2,"parameterNumberName":"U-component_of_CURRENTS"},"data":[0,0,0,0,0,0,0,0,0,0,0,0,0,0,0,0,0,0,0,0,0,0,0,0,0,0,0,0,0,0,0,0,0,0,0,0,0,0,0,0,0,0.0052,0.0085,0.0016,-0.0063,0,0,0,0,0,0,0,0,0,0,0,0,0,0,0,0,0,0,0,0,0,0,0,0,0,0,0,0,0,0,0,0,0,0,0,0,0,0,0,0,0,0,0.0038,0.0071,0.0038,-0.0044,0,0,0,0,0,0,0,0,0,0,0,0,0,0,0,0,0,0,0,0,0,0,0,0,0,0,0,0,0,0,0,0,0,0,0,0,0,0,0,0,0,0,-0.0016,0.0011,0.0071,0.0,0,0,0,0,0,0,0,0,0,0,0,0,0,0,0,0,0,0,0,0,0,0,0,0,0,0,0,0,0,0,0,0,0,0,0,0,0,0,0,0,0,0,0.025,0.0266,0.011,0.0036,0,0,0,0,0,0,0,0,0,0,0,0,0,0,0,0,0,0,0,0,0,0,0,0,0,0,0,0,0,0,0,0,0,0,0,0,0,0,0,0,0,-0.006,0.0091,0.0302,0.0242,0.0102,0,0,0,0,0,0,0,0,0,0,0,0,0,0,0,0,0,0,0,0,0,0,0,0,0,0,0,0,0,0,0,0,0,0,0,0,0,0,0,0,0,-0.0058,0.0099,0.0338,0.0357,0.0195,0,0,0,0,0,0,0,0,0,0,0,0,0.0069,0.0176,0.0222,0.0231,0.0261,0.0302,0.0209,-0.0003,-0.011,0,0,0,0,0,0,0,0,0,0,0,0,-0.0129,-0.017,-0.0085,0,0,0,0,0,-0.0074,0.0019,0.0225,0.0316,0.0308,0,0,0,0,0,0,0,0,0,0.0071,0.0201,0.0286,0.0288,0.0201,0.0063,-0.0036,0.0,0.0137,0.0211,0.0225,0.0324,0.0324,0.0157,0.0047,0.0,0.0047,0.0121,0,0,0,0,-0.0121,-0.0258,-0.0209,-0.0233,-0.0321,0,0,0,0,0,-0.0003,0.0011,0.0091,0.0236,0.0319,0,0,0,0,-0.003,0.0071,0.0242,0.0261,0.0231,0.0231,0.0255,0.0288,0.0288,0.0148,-0.0093,-0.0233,-0.0093,0.0192,0.0332,0.0302,0.0222,0.0198,0.0209,0.0275,0.0308,0.0022,-0.0206,-0.0168,-0.0132,-0.0162,-0.0258,-0.0313,-0.0264,-0.0022,0.0206,0.0206,-0.0008,-0.011,0.0082,0.0324,0.0505,0.0483,0.0074,-0.0011,0.0308,0.0415,0,0,0,-0.019,-0.036,-0.0165,0.0077,0.0135,0.0132,0.0181,0.0264,0.0308,0.0313,0.0154,-0.0206,-0.0445,-0.047,0.0044,0.0536,0.0343,0.0088,0.0104,0.0231,0.0236,0.0233,0.0118,-0.0195,-0.0225,0.0041,0.0104,-0.0088,-0.0272,-0.0231,-0.0041,0.0126,0.0222,0.0187,0.0085,0.0036,0,0,0,-0.0247,-0.0162,0.028,0.0453,0,0,-0.0157,-0.0346,-0.0346,-0.0198,-0.0011,0.0091,0.0173,0.0225,0,0,0,-0.0052,-0.0294,-0.0486,-0.0486,0,0.0228,0.0327,0.0198,0,0,0,0,0,0,0,0.0008,0.0044,0.0066,-0.0102,-0.0162,-0.0055,-0.0047,0,0,0.0069,0.0137,0.0058,-0.0036,0.022,0.0085,-0.0313,0,0,0,-0.0157,-0.0341,-0.0349,-0.0308,-0.0203,-0.0085,0.0049,0.0302,0.0544,0.0461,0.0143,-0.0077,-0.0027,0.0085,0,0,-0.0184,-0.0069,0.0266,0.0071,-0.0118,0.0409,0.0766,0.0261,0.0151,0.0244,0.0052,0.0041,0,0,0,0.0033,0.0082,0.0033,-0.0074,0.0233,0.0195,0.0113,0.0016,-0.008,-0.0146,0,-0.0228,-0.0343,-0.0228,-0.033,0.103,0.0549,0.0187,-0.008,-0.0198,-0.0157,-0.0025,0.0324,0.0566,0.0346,-0.006,-0.0253,0.0016,0.006,-0.0305,-0.0472,-0.0434,-0.0258,0.0025,0.0222,0.0288,0.0409,0.0464,0.0082,0.0236,0.0623,0.0261,-0.0074,-0.0184,-0.0165,-0.0269,-0.0244,-0.0129,0.0022,-0.0014,0.0135,0.0184,0.0099,0.0082,0.0129,-0.0082,-0.0022,-0.0088,-0.042,-0.0461,-0.0508,0,-0.0162,-0.0236,-0.017,-0.022,-0.0253,0,0,-0.0085,-0.0228,-0.0283,-0.0258,-0.0184,-0.0173,-0.0275,-0.0343,-0.0305,-0.0146,0.0126,0.0398,0.0494,0.0492,0.047,0.0415,0.0327,0.0371,0.0341,-0.0093,-0.0121,0.0014,-0.0198,-0.0176,0.0069,0.0302,0.0368,0.0387,0.0475,0.0472,0.022,-0.0033,-0.0159,-0.0096,0.0025,-0.0091,-0.0228,-0.0371,0.1239,0.058,0.0019,-0.0014,0.0154,0,0,0,-0.0058,-0.0209,-0.0283,-0.022,-0.0233,-0.031,-0.0341,-0.0357,-0.0308,-0.0047,0.0255,0.0475,0.0549,0.0497,0.0404,0.033,0.0275,0.0233,0.0277,0.0363,0.0448,0.0547,0.056,0.0659,0.0725,0.0709,0.0654,0.0599,0.0582,0.0629,0.0722,0.0692,0.039,0.0047,-0.0091,-0.0055,-0.0058,-0.0096,0.0011,0.0102,0.0187,0,0,0,0,0,-0.0022,-0.0135,-0.0225,-0.0181,-0.0228,-0.0354,-0.0393,-0.0343,-0.0319,-0.0052,0.0266,0.0319,0.0409,0.0409,0.0371,0.0321,0.0228,0.0093,-0.0011,0.0003,0.0066,0.0143,0.0255,0.0379,0.0456,0.0505,0.0538,0.0558,0.0571,0.0585,0.0637,0.0744,0.0868,0.0857,0.0634,0.0374,0.0242,0.0324,0,0,0.0143,0.0168,0.0107,0.0162,0,0,-0.0104,-0.0162,-0.0102,-0.006,-0.0148,-0.0313,-0.0365,-0.0327,-0.0275,0,0.0063,0.011,0.017,0.0272,0.0319,0.0316,0.0187,-0.0069,-0.0305,-0.042,-0.0459,-0.0409,-0.0275,-0.0143,-0.0047,0.0063,0.019,0.0308,0.0398,0.0464,0.0538,0.0615,0.0681,0.0769,0.0895,0.1,0.1066,0.1123,0,0,0.0201,0.022,-0.0104,-0.0288,-0.0258,-0.0033,0.0074,-0.0077,-0.0126,-0.0052,-0.0047,-0.0137,-0.0264,-0.0305,-0.0132,0.0033,0,-0.0135,-0.014,0.0102,0.0258,0.0365,0.0396,0.0302,0.0099,-0.0036,-0.0008,0.0052,0.0113,0.0195,0.0272,0.0324,0.0363,0.0407,0.0456,0.0505,0.0527,0.0527,0.0538,0.0552,0.0629,0.0791,0.0956,0.1068,0,0,0,-0.0096,-0.0192,0,0,0,-0.0135,-0.022,-0.0179,-0.0179,-0.0093,0.0014,0.0011,-0.0071,-0.006,0.0005,0,-0.0181,-0.0242,-0.003,0.0179,0.0354,0.0505,0.0582,0.0558,0.0483,0.0428,0.0415,0.0453,0.0549,0.0687,0.0838,0.095,0.0983,0.0953,0.0868,0.0755,0.0634,0.0552,0.0525,0.056,0.0711,0.0931,0.109,0,0,0,0,0,0,0,0.0025,-0.003,-0.0162,-0.019,-0.017,-0.0159,-0.0096,0.0005,0.0063,0.0044,0.0027,0,-0.0201,-0.0327,-0.0192,0.0102,0.0269,0.0401,0.0464,0.0448,0.0428,0.0415,0.0437,0.0492,0.0544,0.0613,0.0725,0.0876,0.1049,0.1189,0.1247,0.1198,0.1074,0.0931,0.084,0.0791,0.0797,0.0876,0.0978,0,0,0,0,0,0,0.011,0.0209,0.0071,-0.0124,-0.0165,-0.0179,-0.0236,-0.0209,-0.0063,0.006,0.0071,0.006,0,-0.0214,-0.0393,-0.0272,0.0058,0.0181,0.0233,0.028,0.0313,0.0327,0.0335,0.0374,0.0428,0.0492,0.0566,0.0651,0.0758,0.0893,0.1044,0.1189,0.1324,0.1412,0.1434,0.1401,0.131,0.1181,0.1063,0.0978,0,0,0,0,0,0,0.0121,0.0244,0.0093,-0.0115,-0.0148,-0.0168,-0.022,-0.0217,-0.0093,0.0016,0,0,0,-0.0214,-0.0407,-0.0286,0.0058,0.0179,0.0192,0.022,0.0275,0.0305,0.0332,0.0368,0.042,0.0492,0.0571,0.0648,0.0722,0.0794,0.0876,0.0972,0.1077,0.1192,0.1291,0.1346,0.1327,0.1239,0.1121,0.0981,0,0,0,0,0,0,0.0126,0.0272,0.0162,-0.0008,-0.0085,-0.0179,-0.0239,-0.0168,-0.0069,-0.0008,0.0019,0,0,-0.0151,-0.0349,-0.0283,0.0036,0.0176,0.0233,0.0253,0.0266,0.0277,0.0277,0.0302,0.0365,0.0464,0.0563,0.0648,0.0714,0.0775,0.0829,0.089,0.0945,0.0975,0.0981,0.0983,0.1,0.1005,0.0937,0.0808,0,0,0,0,0,0.0137,0.0272,0.0272,0.0206,0.0077,-0.0058,-0.0159,-0.019,0,-0.0014,-0.0014,0.0,0,0,-0.0121,-0.0332,-0.0277,-0.0022,0.0113,0.0222,0.028,0.028,0.0247,0.0244,0.0302,0.0412,0.0541,0.0656,0.0739,0.0788,0.0832,0.0873,0.0895,0.0926,0.0959,0.0948,0.0879,0.0791,0.0744,0.07,0.0637,0,-0.0038,-0.006,-0.0077,0,0.0162,0.0266,0.0176,0.011,0.0036,-0.0069,-0.014,-0.0184,-0.0181,-0.0113,-0.0049,-0.0025,0,0.0011,-0.0115,-0.036,-0.0247,-0.0058,0.0063,0.0192,0.0288,0.0316,0.0297,0.0272,0.031,0.0426,0.0558,0.0678,0.0764,0.0805,0.0829,0.0873,0.0906,0.0912,0.0915,0.0909,0.0843,0.0725,0.0615,0.0569,0.0566,0,-0.0066,0,-0.0038,-0.0077,0,0.0025,0.0016,-0.0041,-0.0077,-0.0126,-0.0168,-0.019,-0.0162,-0.0104,-0.0088,-0.0091,0,-0.0036,-0.0192,-0.0409,-0.0217,-0.0085,0.0022,0.0162,0.0288,0.0343,0.0341,0.0343,0.0393,0.0489,0.0607,0.0722,0.0821,0.0873,0.0857,0.0838,0.0851,0.0882,0.0884,0.0851,0.0786,0.0673,0.0533,0.0445,0.0456,0,-0.0044,-0.0071,-0.0129,-0.0283,-0.039,-0.0286,-0.0151,-0.0143,-0.0143,-0.017,-0.0206,-0.0209,-0.0157,-0.0135,-0.0154,0,-0.0019,-0.0121,-0.0236,-0.0302,-0.0173,-0.0074,0.0,0.0129,0.028,0.036,0.0401,0.045,0.0527,0.0577,0.0585,0.0604,0.0689,0.0846,0.1003,0.0992,0.089,0.0846,0.0846,0.0835,0.0777,0.0678,0.0544,0.0407,0.0346,0.0071,0.0025,-0.0025,-0.0093,-0.0195,-0.0269,-0.0244,-0.0173,-0.0143,-0.0165,-0.0209,-0.0239,-0.0247,-0.0239,-0.0236,0,-0.0047,-0.0107,-0.0168,-0.0187,-0.0165,-0.0099,-0.0049,0.0003,0.0124,0.0244,0.0308,0.0387,0.0505,0.0577,0.0547,0.0497,0.0497,0.0536,0.0623,0.0766,0.1011,0.1118,0.0989,0.0871,0.0816,0.0775,0.0722,0.0645,0.0547,0.0445,0.0058,0.0038,-0.0003,-0.0052,-0.0102,-0.0135,-0.0132,-0.0115,-0.0118,-0.014,-0.017,-0.0173,-0.0124,-0.008,0,-0.0074,-0.0151,-0.0201,-0.025,-0.0214,-0.0159,-0.0118,-0.0069,0.0038,0.0184,0.0233,0.0228,0.0409,0.0632,0.0703,0.0851,0.1022,0.1016,0.0876,0.0821,0.097,0.1041,0.1165,0.1263,0.1115,0.0931,0.0868,0.0871,0.0876,0.0829,0.0739,0.0096,0.0066,0.003,-0.0003,-0.003,-0.0049,-0.0058,-0.006,-0.0063,-0.0069,-0.0074,-0.0055,-0.0022,-0.0077,-0.0239,-0.0277,-0.0253,-0.0316,-0.0426,-0.031,-0.0132,-0.0049,-0.0008,0.0033,0.0115,0.0135,0.0288,0.0599,0.075,0.0898,0.1121,0.1324,0.1426,0.1428,0.1338,0.1165,0.1184,0.1368,0.1566,0.1626,0.1324,0.106,0.106,0.1126,0.117,0.1154,0.0099,0.008,0.0058,0.0038,0.0019,0.0003,-0.0005,0.0,0.0016,0.0025,0.0005,0.0099,0.0173,0.0088,-0.0074,-0.0266,-0.0363,-0.0558,-0.05,-0.0332,-0.0137,-0.0044,0.0008,0.0165,0.0214,0.0203,0.0478,0.0604,0.0909,0.1456,0.1739,0.1843,0.1975,0.2225,0.2373,0.2178,0.1851,0.1719,0.1843,0.2079,0.2082,0.1629,0.1255,0.122,0.1269,0.1302,0.0115,0.0104,0.0091,0.0074,0.0058,0.0038,0.0027,0.0077,0.0201,0.0173,0.0077,0,-0.003,-0.0085,-0.0225,-0.0352,-0.039,-0.0159,0.0093,0.0165,0.0157,0.0291,0.0371,0.0231,0.0231,0.0407,0.0695,0.1228,0.1829,0.2255,0.2527,0.2672,0.2785,0.2928,0.3134,0.3332,0.3345,0.3079,0.2799,0.2785,0.3016,0.2769,0.1903,0.1283,0.1071,0.0959,0.0148,0.0137,0.0121,0.0104,0.008,0.0038,-0.0055,-0.0118,0,-0.0019,-0.0041,-0.0143,-0.0181,-0.0206,-0.0319,-0.0236,0.0016,0.0409,0.05,0.0637,0.0662,0.0514,0.0,0.0115,0.053,0.1118,0.1829,0.2527,0.3084,0.3472,0.3788,0.4029,0.4189,0.4293,0.4356,0.4411,0.4436,0.4417,0.4334,0.4257,0.429,0.4634,0.4477,0.2782,0.1132,0.0659,0.0176,0.0165,0.0151,0.0137,0.0126,0.0124,0.0124,0,0.0063,0.0121,0.0091,-0.003,-0.0184,-0.0297,-0.0253,0.0082,0.0547,0.0634,0.0766,0.0739,0.0412,0.0415,0.0805,0.1461,0.2274,0.2994,0.3601,0.4098,0.4526,0.4895,0.5186,0.5348,0.5386,0.5383,0.5383,0.5337,0.5252,0.5194,0.5199,0.5282,0.5477,0.5793,0.6128,0.6433,0.5776,0.3755]},{"header":{"parameterUnit":"m.s-1","parameterCategory":2,"la1":30.5641,"la2":29.4642,"lo1":-89.4342,"lo2":-87.9343,"dx":0.0333,"dy":0.0333,"nx":46,"ny":34,"refTime":"2023-01-15T00:00:00:Z","depth":"10","parameterNumber":3,"parameterNumberName":"V-component_of_CURRENTS"},"data":[0,0,0,0,0,0,0,0,0,0,0,0,0,0,0,0,0,0,0,0,0,0,0,0,0,0,0,0,0,0,0,0,0,0,0,0,0,0,0,0,0,0.0044,0.0077,0.008,0.006,0,0,0,0,0,0,0,0,0,0,0,0,0,0,0,0,0,0,0,0,0,0,0,0,0,0,0,0,0,0,0,0,0,0,0,0,0,0,0,0,0,0,-0.0025,0.0016,0.0025,0.0016,0,0,0,0,0,0,0,0,0,0,0,0,0,0,0,0,0,0,0,0,0,0,0,0,0,0,0,0,0,0,0,0,0,0,0,0,0,0,0,0,0,0,0.0154,-0.0003,-0.0033,-0.0038,0,0,0,0,0,0,0,0,0,0,0,0,0,0,0,0,0,0,0,0,0,0,0,0,0,0,0,0,0,0,0,0,0,0,0,0,0,0,0,0,0,0,0.0272,-0.0027,-0.0091,-0.0093,0,0,0,0,0,0,0,0,0,0,0,0,0,0,0,0,0,0,0,0,0,0,0,0,0,0,0,0,0,0,0,0,0,0,0,0,0,0,0,0,0,0.0239,0.0146,-0.0016,-0.0124,-0.0118,0,0,0,0,0,0,0,0,0,0,0,0,0,0,0,0,0,0,0,0,0,0,0,0,0,0,0,0,0,0,0,0,0,0,0,0,0,0,0,0,0,0.0187,0.0102,-0.0066,-0.0143,-0.0115,0,0,0,0,0,0,0,0,0,0,0,0,0.0088,0.0044,-0.0027,0.0038,0.0168,0.0253,0.0214,0.0093,-0.0305,0,0,0,0,0,0,0,0,0,0,0,0,0.0181,-0.0044,-0.0214,0,0,0,0,0,0.0082,-0.0003,-0.0091,-0.0115,-0.0096,0,0,0,0,0,0,0,0,0,0.011,0.0115,0.0027,0.0025,-0.0041,-0.0052,0.0129,0.0297,0.0294,0.0214,0.0118,-0.0052,0.0349,0.042,0.0393,0.0371,0.0297,0.053,0,0,0,0,0.0033,0.0135,0.0044,-0.0195,-0.0511,0,0,0,0,0,0.0132,-0.0033,0.0041,-0.0071,-0.0143,0,0,0,0,-0.0066,0.0047,0.0038,0.0027,0.0052,0.0077,0.0058,-0.0019,-0.0082,-0.019,-0.0036,0.0266,0.0404,0.0412,0.0209,0.014,0.0244,0.0357,0.039,0.0357,0.0368,0.0335,0.0376,0.0286,0.0258,0.0151,0.0005,0.0025,0.0091,-0.0118,-0.0173,-0.0335,0.0264,0.0184,0.0093,0.0,0.0,0.0096,0.0019,0.0264,0.0096,0.0,0,0,0,0.014,0.0074,0.0115,0.0091,0.0063,0.0027,-0.0027,0.0,-0.0033,-0.006,-0.031,-0.0143,0.0011,0.0,0.0244,0.0091,0.0041,0.0264,0.0184,0.0181,0.0159,0.0184,0.0187,0.011,0.0143,0.0214,0.0162,0.0115,0.0082,0.0063,-0.0104,-0.0016,0.0069,0.0132,0.0016,-0.0077,0,0,0,0.0286,0.047,0.0121,0.0099,0,0,0.008,0.0233,0.0266,0.0195,0.0113,0.0016,-0.0096,-0.0327,0,0,0,-0.0349,-0.0335,-0.0146,-0.0192,0,0.0052,0.0093,0.0187,0,0,0,0,0,0,0,-0.0069,0.0085,0.0115,0.0074,0.0036,-0.011,-0.0154,0,0,-0.0115,-0.0124,0.0093,0.014,0.0168,0.0261,0.05,0,0,0,0.0439,0.0313,0.0363,0.0272,0.0154,0.008,-0.0052,-0.0173,-0.0522,-0.0258,-0.0192,0.0058,-0.0099,-0.0173,0,0,-0.0102,0.0022,0.0085,0.008,0.0036,-0.0393,-0.0294,0.0264,0.0357,-0.0154,-0.0201,-0.0173,0,0,0,-0.008,-0.0159,-0.0115,0.0146,-0.0211,-0.0063,0.0082,0.014,0.0151,0.0157,0,0.0288,-0.0069,0.0085,0.0211,0.022,0.0269,0.0266,0.0126,0.0003,0.0093,-0.0016,-0.0074,-0.0481,-0.0253,-0.0102,0.0014,-0.0044,0.0041,0.0203,0.0266,0.0044,-0.0011,-0.0082,-0.0077,-0.0104,-0.0442,-0.0412,-0.0041,-0.0025,-0.0228,-0.0253,0.0016,0.0082,-0.0343,-0.0069,-0.0357,-0.0538,-0.0382,0.0173,-0.0058,-0.025,0.014,0.0071,-0.0019,0.0195,0.0173,0.0228,0.0168,0.0118,0.0157,0,0.0063,0.014,0.0036,-0.0014,0.0058,0,0,-0.0192,-0.0091,-0.0014,-0.0082,-0.019,0.0041,0.0187,0.0206,0.0157,0.0036,-0.0159,-0.0321,-0.039,-0.0486,-0.0494,-0.0415,-0.047,-0.0483,-0.0621,-0.0165,-0.0154,-0.0431,-0.0428,-0.0264,-0.0019,0.0055,0.0313,0.0439,0.0154,0.0014,-0.008,0.0113,0.0316,0.0115,0.0288,0.0404,0.0233,0.0132,-0.0327,0.0022,0.011,0.0022,0.0036,0,0,0,0.008,0.0077,-0.0011,-0.0137,-0.0129,0.0033,0.0126,0.0115,0.0011,-0.0104,-0.0335,-0.0511,-0.0604,-0.0634,-0.0632,-0.0527,-0.0385,-0.022,-0.022,-0.033,-0.0242,-0.0159,-0.0115,-0.0113,0.0203,0.0269,0.0299,0.031,0.0258,0.0255,0.0151,-0.0027,-0.0074,0.0,0.0176,0.0168,0.0118,-0.0011,-0.0162,-0.0044,-0.0154,0,0,0,0,0,0.0055,0.0126,0.0052,-0.0121,-0.0074,-0.0008,-0.0016,-0.006,-0.0192,-0.0115,-0.0412,-0.058,-0.07,-0.0706,-0.0645,-0.0569,-0.0437,-0.0233,-0.0096,-0.0135,-0.0099,-0.0115,-0.0033,0.0102,0.0211,0.0233,0.0255,0.0258,0.0228,0.0286,0.0335,0.0357,0.0239,0.0036,-0.0044,-0.0038,0.0102,-0.0008,0,0,-0.0258,0.017,0.022,0.0398,0,0,-0.0069,0.0135,0.0093,-0.0077,0.0014,-0.0022,-0.0129,-0.0225,-0.0321,0,-0.0179,-0.0489,-0.0621,-0.0703,-0.0659,-0.0634,-0.0574,-0.0412,-0.0239,-0.0214,-0.0137,-0.0016,0.0066,0.0143,0.0206,0.0228,0.0255,0.0255,0.0239,0.0283,0.0346,0.0368,0.0346,0.0269,0.0132,-0.0047,-0.0288,-0.0541,0,0,-0.0069,-0.0082,-0.0019,0.0201,0.0,0.0,-0.0143,0.0044,0.0033,0.0033,0.0148,0.0099,-0.0011,-0.0137,-0.0288,-0.0058,0,-0.0324,-0.0404,-0.0607,-0.0645,-0.0645,-0.0678,-0.0569,-0.0341,-0.0181,-0.0027,0.0115,0.0176,0.0231,0.0264,0.0264,0.0258,0.0239,0.022,0.0247,0.0346,0.0385,0.0316,0.0302,0.0354,0.0308,0.0107,-0.0168,0,0,0,-0.0168,-0.0129,0,0,0,-0.0058,-0.0008,0.0096,0.0162,0.0198,0.019,0.0135,0.0,-0.0113,-0.003,0,-0.0225,-0.0233,-0.0475,-0.0593,-0.0569,-0.0629,-0.0571,-0.0343,-0.0113,0.0071,0.0198,0.0291,0.0374,0.0407,0.039,0.0335,0.028,0.0211,0.0176,0.0214,0.0266,0.0261,0.0242,0.0401,0.0593,0.0563,0.0206,0,0,0,0,0,0,0,0.0047,-0.003,0.008,0.0206,0.019,0.0165,0.0124,0.006,-0.0022,-0.0022,0.0005,0,-0.0179,-0.0118,-0.0412,-0.056,-0.0475,-0.0511,-0.0508,-0.0368,-0.0176,0.0049,0.0228,0.0341,0.0431,0.0497,0.0525,0.0494,0.0417,0.0302,0.0173,0.0063,0.0066,0.0099,0.0148,0.0297,0.0538,0.0662,0.0475,0,0,0,0,0,0,0.0129,0.0036,-0.0003,0.0192,0.0192,0.0168,0.0118,-0.0014,-0.0074,-0.0085,-0.0014,0.0005,0,-0.0107,-0.0014,-0.0374,-0.0541,-0.0428,-0.0428,-0.0445,-0.0352,-0.0187,0.0077,0.0288,0.0407,0.0494,0.0577,0.0621,0.061,0.0536,0.0415,0.0275,0.0113,0.0033,0.0027,0.0055,0.0165,0.0382,0.0527,0.0442,0,0,0,0,0,0,0.0146,0.0041,0.0074,0.0206,0.0148,0.0129,0.0058,-0.0099,-0.0137,-0.0118,0,0,0,-0.0008,-0.0003,-0.0349,-0.0505,-0.0437,-0.0407,-0.0387,-0.0283,-0.0113,0.0151,0.0346,0.047,0.0574,0.0645,0.0662,0.0643,0.0588,0.0494,0.0379,0.0231,0.0129,0.0102,0.0088,0.0146,0.0266,0.0308,0.0198,0,0,0,0,0,0,0.0165,0.0055,0.0047,0.0165,0.0115,0.0082,-0.0049,-0.0052,-0.0173,-0.0151,-0.008,0,0,0.0022,-0.006,-0.0332,-0.0442,-0.0431,-0.042,-0.0349,-0.0222,-0.0066,0.0187,0.0396,0.056,0.0678,0.0728,0.0725,0.0692,0.0637,0.0569,0.0478,0.031,0.0181,0.014,0.0124,0.0162,0.0222,0.0132,-0.0044,0,0,0,0,0,-0.006,0.0008,-0.0005,-0.0008,0.0104,0.0063,-0.0014,-0.0165,0,-0.0195,-0.0157,-0.0093,0,0,-0.0019,-0.0088,-0.0299,-0.0379,-0.0382,-0.0426,-0.033,-0.0195,-0.0052,0.0209,0.0492,0.0709,0.0827,0.0849,0.0819,0.0761,0.0676,0.061,0.0536,0.0376,0.0192,0.008,0.0052,0.0107,0.0195,0.0041,-0.0162,0,0.0027,0.0,0.0107,0,-0.003,-0.0247,-0.0157,-0.0099,-0.0066,-0.0102,-0.0168,-0.0209,-0.0157,-0.0198,-0.0143,-0.011,0,0.0022,-0.0055,-0.0107,-0.0283,-0.0305,-0.0299,-0.039,-0.0305,-0.0198,-0.0044,0.025,0.0623,0.0884,0.0986,0.097,0.0895,0.0808,0.0714,0.061,0.0489,0.0357,0.0162,-0.0019,-0.0091,-0.0022,0.0091,-0.0003,-0.0198,0,0.0074,0,0.0066,0.008,0,-0.0453,-0.0363,-0.0313,-0.0305,-0.0291,-0.0277,-0.0236,-0.0195,-0.0198,-0.0154,-0.0055,0,0.0011,-0.006,-0.0173,-0.0266,-0.0225,-0.0201,-0.031,-0.0272,-0.0214,-0.006,0.0305,0.0769,0.1035,0.1074,0.0981,0.0857,0.0775,0.0739,0.0651,0.0486,0.0297,0.0102,-0.0102,-0.0228,-0.0211,-0.0091,-0.0069,-0.0187,0,0.0074,-0.003,-0.0019,-0.0011,-0.022,-0.0508,-0.0467,-0.0434,-0.0409,-0.0368,-0.0319,-0.0272,-0.025,-0.0242,-0.0088,0,-0.0047,-0.0016,-0.0047,-0.0179,-0.0206,-0.0148,-0.0115,-0.0201,-0.022,-0.0201,-0.0074,0.0341,0.078,0.0975,0.0953,0.0805,0.0634,0.0472,0.0404,0.0464,0.0497,0.0357,0.008,-0.0148,-0.0319,-0.0357,-0.0266,-0.0146,-0.0137,-0.0036,-0.0008,-0.006,-0.0107,-0.0151,-0.0247,-0.0407,-0.0423,-0.0415,-0.0401,-0.0379,-0.0349,-0.0327,-0.0286,-0.014,0,-0.0151,-0.0049,-0.0049,-0.0047,-0.0102,-0.0104,-0.0077,-0.0058,-0.0107,-0.0168,-0.0165,-0.0071,0.0286,0.0706,0.0915,0.0901,0.0769,0.0549,0.025,-0.0011,-0.0066,0.0088,0.0283,0.0198,-0.0066,-0.0305,-0.0409,-0.0385,-0.0247,-0.0137,-0.0044,-0.0069,-0.0115,-0.0173,-0.0225,-0.0286,-0.0346,-0.0374,-0.0382,-0.0387,-0.039,-0.0385,-0.0368,-0.0313,0,-0.031,-0.0173,-0.0085,-0.0096,-0.0082,-0.0047,-0.0033,-0.0027,-0.0044,-0.0085,-0.0206,-0.0231,-0.0093,0.0305,0.0742,0.0981,0.0978,0.0879,0.067,0.0349,-0.0077,-0.0442,-0.0558,-0.031,0.003,0.0058,-0.011,-0.0349,-0.0434,-0.0374,-0.025,-0.0071,-0.0118,-0.0159,-0.0209,-0.0255,-0.0297,-0.0327,-0.0346,-0.0352,-0.0376,-0.0404,-0.0379,-0.039,-0.0376,-0.0258,-0.0266,-0.0143,-0.0066,-0.0148,-0.0165,-0.0115,-0.0022,-0.0069,-0.0154,-0.0264,-0.0286,-0.0222,0.0033,0.0483,0.0882,0.1049,0.1049,0.0978,0.0843,0.058,0.0135,-0.0456,-0.0967,-0.1077,-0.0725,-0.0222,0.0022,-0.0113,-0.0354,-0.0459,-0.0437,-0.011,-0.0151,-0.019,-0.0231,-0.0266,-0.0297,-0.0316,-0.0319,-0.0319,-0.039,-0.0428,-0.0179,-0.0376,-0.0404,-0.0247,-0.0091,0.0104,0.0181,0.0159,-0.0082,-0.0146,-0.0126,-0.0228,-0.0489,-0.0445,-0.0258,-0.0069,0.0308,0.0747,0.1055,0.1151,0.1145,0.1115,0.103,0.0791,0.0431,-0.0019,-0.0747,-0.1437,-0.1632,-0.1137,-0.0321,0.0085,-0.0121,-0.0459,-0.0602,-0.0132,-0.0173,-0.0206,-0.0239,-0.0269,-0.0297,-0.0308,-0.0231,-0.0151,-0.0431,-0.0503,0,-0.0288,-0.0242,0.0011,0.0261,0.0566,0.0656,0.0385,0.0129,-0.0126,-0.0354,-0.07,-0.0527,-0.0242,0.0022,0.0428,0.0873,0.117,0.1244,0.1231,0.1195,0.1162,0.1055,0.084,0.058,0.0291,-0.0225,-0.0909,-0.1678,-0.2024,-0.1461,-0.0431,0.0011,-0.0261,-0.0467,-0.0148,-0.0184,-0.0217,-0.0247,-0.0277,-0.0319,-0.036,-0.008,0,-0.0294,-0.0478,-0.0107,-0.0146,0.008,0.0385,0.0868,0.0934,0.0731,0.0376,0.0025,-0.0335,-0.0577,-0.0368,-0.0049,0.0288,0.0788,0.1184,0.1354,0.1401,0.134,0.1239,0.1134,0.1066,0.1003,0.0843,0.056,0.0255,0.0008,-0.0291,-0.0934,-0.1692,-0.2107,-0.1714,-0.0846,-0.0255,-0.011,-0.0159,-0.019,-0.022,-0.025,-0.028,-0.0321,-0.0431,0,-0.022,-0.0124,-0.0277,-0.0049,0.0115,0.0382,0.0884,0.1107,0.0857,0.0299,-0.0206,-0.0505,-0.0508,-0.0143,0.0288,0.0728,0.1022,0.1187,0.1241,0.1266,0.1283,0.1266,0.117,0.1005,0.086,0.0772,0.067,0.0494,0.0211,-0.0093,-0.0379,-0.0717,-0.1217,-0.1912,-0.2373,-0.2129,-0.1373,-0.0725]}],[{"header":{"parameterUnit":"m.s-1","parameterCategory":2,"la1":30.5641,"la2":29.4642,"lo1":-89.4342,"lo2":-87.9343,"dx":0.0333,"dy":0.0333,"nx":46,"ny":34,"refTime":"2023-01-15T00:00:00:Z","depth":"12","parameterNumber":2,"parameterNumberName":"U-component_of_CURRENTS"},"data":[0,0,0,0,0,0,0,0,0,0,0,0,0,0,0,0,0,0,0,0,0,0,0,0,0,0,0,0,0,0,0,0,0,0,0,0,0,0,0,0,0,0,0,0,0,0,0,0,0,0,0,0,0,0,0,0,0,0,0,0,0,0,0,0,0,0,0,0,0,0,0,0,0,0,0,0,0,0,0,0,0,0,0,0,0,0,0,0,0,0,0,0,0,0,0,0,0,0,0,0,0,0,0,0,0,0,0,0,0,0,0,0,0,0,0,0,0,0,0,0,0,0,0,0,0,0,0,0,0,0,0,0,0,0,0,0,0,0,0,0,0,0,0,0,0,0,0,0,0,0,0,0,0,0,0,0,0,0,0,0,0,0,0,0,0,0,0,0,0,0,0,0,0,0,0,0,0,0,0,0,0,0,0,0,0,0,0,0,0,0,0,0,0,0,0,0,0,0,0,0,0,0,0,0,0,0,0,0,0,0,0,0,0,0,0,0,0,0,0,0,0,0,0,0,0,0,0,0,0,0,0,0,0,0,0,0,0,0,0,0,0,0,0,0,0,0,0,0,0,0,0,0,0,0,0,0,0,0,0,0,0,0,0,0,0,0,0,0,0,0,0,0,0,0,0,0,0,0,0,0,0,0,0,0,0,0,0,0,0,0,0,0,0,0,0,0,0,0,0,0,0,0,0,0,0,0,0,0,0,0,0,0,0,0,0,0,0,0,0,0,0,0,0,0,0,0,0,0,0,0,0,0,0,0,0,0,0,0,0,0,0,0,0,0,0,0,0,0,0,0,0,0,0,0,0,0,0,0,0,0,0,0,0,0,0,0,0,0,0,0,0,0,0,0,0,0,0,0,0,0,0,0,0,0,0,0,0,0,0,0,0,0,0,0,0,0,0,0,0,0,0,0,0,0,0,0,0,0,0,0,0,0,0,0,0,0,0,0,0,0,0,0,0,0,0,0,0,0,0,0,0,0,0,0,0,0,0,0,0,0,0,0,0,0,0,0,0,0,0,0,0,0,0,0,0,0,0,0,0,0,0,0,0,0,0,0,0,0,0,0,0,0,0,0,0,0,0,0,0,0,0,0,0,0,0,0,0,0,0,0,0,0,0,0,0,0,0,0,0,0,0,0,0,0,0,0,0,0,0,0,0,0,0,0,0,0,0,0,0,0,0,0,0,0,0,0,0,0.0231,0.0363,0.0071,0.0049,0,0,0,0,0,0,0,0,0,-0.0135,-0.0008,0,0,0,0,0,0,0,0,0,0,0,0,0,0,0,0,0,0,0,0,0,0,0,0,0,0,0,0,0,0,0.0236,0.0294,0.0346,0.0063,0.0146,0.0332,0.0148,0,-0.0236,-0.0264,-0.0148,0.0085,0.0187,0.0118,0.0055,0.0168,0.0338,0.0305,0.0124,0.0027,0,-0.0033,0,-0.0349,-0.0368,-0.0332,0,0,0,0,0,0,0,0,0,0,0,0,0,0,0,0,0,0,0,0.0332,0.0415,0.0412,0.036,0.0288,0.0319,0.0393,0.0404,0.0192,-0.0058,-0.0236,-0.036,-0.0294,-0.0113,0.0157,0.0107,-0.0082,-0.0052,0.0176,0.0324,0.042,0.0264,0.0154,0.0005,-0.0264,-0.0417,-0.0456,0,0,0,0,0,0,0,0,0,0,0,0,0,0,0,0,0,0,0,0.0404,0.047,0.0448,0.0368,0.0313,0.0275,0.0255,0.0313,0.0228,0.0118,0.0091,-0.0005,0.0115,0.0459,0.047,0.0346,0.0275,0.017,0.0099,0.0077,0.0162,0.0124,0.0025,0.0058,-0.0011,-0.0129,-0.0242,0,0,0,0,0,0,0,0,0,0,0,0,0,0,0,0,0,0,0,0,0.033,0.036,0.0327,0.0291,0.0225,0.0102,0.0014,0.0036,0.0121,0.017,0.0201,0.0313,0.0445,0.0489,0.0514,0.0527,0.0516,0.0486,0.0453,0.0448,0.0382,0.0217,0.0107,-0.0036,-0.0118,-0.0093,0,0,0,0,0,0,0,0,0,0,0,0,0,0,0,0,0,0,0,0,0.0124,0.0214,0.025,0.0253,0.0168,-0.006,-0.0294,-0.0415,-0.0439,-0.0371,-0.0255,-0.0137,-0.0038,0.0074,0.0201,0.0319,0.0415,0.05,0.0607,0.0684,0.0665,0.0456,0.0192,0.0066,0.0099,0.0192,0,0,0,0,0,0,0,0,0,0,0,0,0,0,0,0,0,0,0,0,-0.0137,0.0066,0.0179,0.025,0.0291,0.0261,0.0093,-0.0036,-0.0008,0.0052,0.0115,0.0198,0.0275,0.033,0.0371,0.0415,0.0472,0.0536,0.0593,0.0621,0.0571,0.0412,0.0113,0.0113,0.0305,0.0423,0,0,0,0,0,0,0,0,0,0,0,0,0,0,0,0,0,0,0,0,0,-0.0041,0.0093,0.0214,0.0352,0.0508,0.0522,0.047,0.0423,0.0412,0.0453,0.0547,0.0687,0.084,0.0953,0.0989,0.0959,0.0879,0.0783,0.0692,0.0656,0.0618,0.0637,0.0808,0.0786,0.0599,0,0,0,0,0,0,0,0,0,0,0,0,0,0,0,0,0,0,0,0,0,-0.0168,0.0,0.0151,0.028,0.0409,0.0426,0.042,0.0412,0.0437,0.0492,0.0544,0.0615,0.0728,0.0879,0.1052,0.1192,0.125,0.12,0.1079,0.0956,0.0884,0.0824,0.0827,0.0937,0.0997,0,0,0,0,0,0,0,0,0,0,0,0,0,0,0,0,0,0,0,0,0,-0.0264,-0.0074,0.0085,0.017,0.0253,0.0302,0.0321,0.0335,0.0371,0.0428,0.0492,0.0569,0.0654,0.0761,0.0898,0.1046,0.1195,0.1324,0.1412,0.1434,0.1406,0.1318,0.12,0.1104,0.1068,0,0,0,0,0,0,0,0,0,0,0,0,0,0,0,0,0,0,0,0,0,-0.0297,-0.0115,0.0071,0.0154,0.0206,0.0266,0.0299,0.033,0.0368,0.042,0.0494,0.0574,0.0651,0.0725,0.0799,0.0884,0.0981,0.1082,0.1192,0.1288,0.1346,0.1329,0.1244,0.1137,0.1022,0,0,0,0,0,0,0,0,0,0,0,0,0,0,0,0,0,0,0,0,0,-0.0321,-0.0173,0.0044,0.017,0.0228,0.0255,0.0269,0.0272,0.0299,0.0365,0.0464,0.0566,0.0648,0.0717,0.078,0.0838,0.0898,0.0948,0.0975,0.0981,0.0978,0.0994,0.1005,0.095,0.0829,0,0,0,0,0,0,0,0,0,0,0,0,0,0,0,0,0,0,0,0,0,-0.0371,-0.0253,-0.0025,0.0137,0.0244,0.0264,0.0236,0.0236,0.0299,0.0409,0.0541,0.0656,0.0742,0.0791,0.0835,0.0879,0.0904,0.0934,0.0964,0.095,0.0882,0.0802,0.0755,0.0714,0.0651,0,0,0,0,0,0,0,0,0,0,0,0,0,0,0,0,0,0,0,0,-0.0335,-0.042,-0.0291,-0.0066,0.0099,0.0236,0.0288,0.0283,0.0264,0.0305,0.0423,0.0555,0.0676,0.0764,0.0805,0.0832,0.0876,0.0915,0.0923,0.0923,0.0915,0.0851,0.0736,0.0626,0.0577,0.0574,0,0,0,0,0,0,0,0,0,0,0,0,0,0,0,0,0,0,0,0,-0.0363,-0.045,-0.0266,-0.0074,0.0071,0.0201,0.0272,0.0297,0.0319,0.036,0.0431,0.0497,0.0571,0.07,0.081,0.084,0.0838,0.0854,0.0887,0.0898,0.0865,0.0797,0.0684,0.0541,0.0453,0.0464,0,0,0,0,0,0,0,0,0,0,0,0,0,0,0,0,0,0,0,0,-0.0368,-0.0357,-0.0168,-0.0058,0.0041,0.0146,0.022,0.0283,0.0332,0.0341,0.0277,0.0154,0.0115,0.0209,0.042,0.0687,0.0854,0.0865,0.0849,0.0854,0.0849,0.0791,0.0687,0.0549,0.0412,0.0354,0,0,0,0,0,0,0,0,0,0,0,0,0,0,0,0,0,0,0,-0.0277,-0.0297,-0.0173,-0.0082,-0.0033,0.0044,0.0093,0.0118,0.017,0.0261,0.0341,0.0393,0.0489,0.0417,0.0258,0.0126,0.0173,0.0519,0.0843,0.092,0.0871,0.0821,0.0783,0.0731,0.0654,0.0549,0.0448,0,0,0,0,0,0,0,0,0,0,0,0,0,0,0,0,0,0,0,-0.0305,-0.0222,-0.014,-0.0099,-0.0085,0.0003,0.0096,0.0074,0.0165,0.0385,0.0599,0.0917,0.106,0.1049,0.092,0.0711,0.0481,0.0393,0.0596,0.0876,0.0986,0.0928,0.0873,0.0876,0.0882,0.0835,0.0744,0,0,0,0,0,0,0,0,0,0,0,0,0,0,0,0,0,0,-0.0368,-0.0396,-0.0313,-0.019,-0.0192,-0.0148,-0.0071,-0.006,0.006,0.0272,0.0552,0.0937,0.1154,0.1195,0.125,0.1349,0.1313,0.1107,0.0838,0.072,0.0948,0.1137,0.111,0.1041,0.1066,0.1132,0.1173,0.1156,0,0,0,0,0,0,0,0,0,0,0,0,0,0,0,0,0,-0.0363,-0.0352,-0.0398,-0.031,-0.0187,-0.011,-0.0041,-0.017,-0.0025,0.0151,0.0591,0.1096,0.1393,0.1464,0.15,0.1574,0.1761,0.2033,0.2093,0.1706,0.1266,0.1126,0.1395,0.1511,0.1335,0.1214,0.1225,0.1269,0.1299,0,0,0,0,0,0,0,0,0,0,0,0,0,0,0,0,-0.0319,-0.0214,-0.0022,0.0151,0.0269,0.0376,0.0417,-0.0115,-0.0137,0.0288,0.0868,0.1382,0.1785,0.2024,0.2203,0.2359,0.2483,0.2598,0.2766,0.3005,0.3126,0.2895,0.2414,0.2134,0.2244,0.2118,0.1623,0.1255,0.1068,0.0942,0,0,0,0,0,0,0,0,0,0,0,0,0,0,0,0,-0.0126,-0.0022,0.0179,0.0552,0.0722,0.0753,0.033,0.0088,0.0665,0.1274,0.1892,0.2324,0.262,0.2909,0.3249,0.3568,0.3807,0.3966,0.4065,0.4134,0.4213,0.4274,0.4222,0.4024,0.3804,0.3914,0.3746,0.2412,0.109,0.0676,0,0,0,0,0,0,0,0,0,0,0,0,0,0,0,-0.0151,-0.0055,0.0277,0.0645,0.0906,0.0959,0.0613,0.0978,0.1648,0.2285,0.2782,0.3159,0.3518,0.3903,0.431,0.4697,0.4993,0.5158,0.5238,0.5287,0.5304,0.5254,0.5208,0.5224,0.5307,0.5433,0.5548,0.5606,0.5749,0.5202,0.3453]},{"header":{"parameterUnit":"m.s-1","parameterCategory":2,"la1":30.5641,"la2":29.4642,"lo1":-89.4342,"lo2":-87.9343,"dx":0.0333,"dy":0.0333,"nx":46,"ny":34,"refTime":"2023-01-15T00:00:00:Z","depth":"12","parameterNumber":3,"parameterNumberName":"V-component_of_CURRENTS"},"data":[0,0,0,0,0,0,0,0,0,0,0,0,0,0,0,0,0,0,0,0,0,0,0,0,0,0,0,0,0,0,0,0,0,0,0,0,0,0,0,0,0,0,0,0,0,0,0,0,0,0,0,0,0,0,0,0,0,0,0,0,0,0,0,0,0,0,0,0,0,0,0,0,0,0,0,0,0,0,0,0,0,0,0,0,0,0,0,0,0,0,0,0,0,0,0,0,0,0,0,0,0,0,0,0,0,0,0,0,0,0,0,0,0,0,0,0,0,0,0,0,0,0,0,0,0,0,0,0,0,0,0,0,0,0,0,0,0,0,0,0,0,0,0,0,0,0,0,0,0,0,0,0,0,0,0,0,0,0,0,0,0,0,0,0,0,0,0,0,0,0,0,0,0,0,0,0,0,0,0,0,0,0,0,0,0,0,0,0,0,0,0,0,0,0,0,0,0,0,0,0,0,0,0,0,0,0,0,0,0,0,0,0,0,0,0,0,0,0,0,0,0,0,0,0,0,0,0,0,0,0,0,0,0,0,0,0,0,0,0,0,0,0,0,0,0,0,0,0,0,0,0,0,0,0,0,0,0,0,0,0,0,0,0,0,0,0,0,0,0,0,0,0,0,0,0,0,0,0,0,0,0,0,0,0,0,0,0,0,0,0,0,0,0,0,0,0,0,0,0,0,0,0,0,0,0,0,0,0,0,0,0,0,0,0,0,0,0,0,0,0,0,0,0,0,0,0,0,0,0,0,0,0,0,0,0,0,0,0,0,0,0,0,0,0,0,0,0,0,0,0,0,0,0,0,0,0,0,0,0,0,0,0,0,0,0,0,0,0,0,0,0,0,0,0,0,0,0,0,0,0,0,0,0,0,0,0,0,0,0,0,0,0,0,0,0,0,0,0,0,0,0,0,0,0,0,0,0,0,0,0,0,0,0,0,0,0,0,0,0,0,0,0,0,0,0,0,0,0,0,0,0,0,0,0,0,0,0,0,0,0,0,0,0,0,0,0,0,0,0,0,0,0,0,0,0,0,0,0,0,0,0,0,0,0,0,0,0,0,0,0,0,0,0,0,0,0,0,0,0,0,0,0,0,0,0,0,0,0,0,0,0,0,0,0,0,0,0,0,0,0,0,0,0,0,0,0,0,0,0,0,0,0,0,0,0,0,0,0,0,0,0,0,0,0,0,0,0,-0.0244,-0.0014,0.0269,0.0291,0,0,0,0,0,0,0,0,0,0.0261,0.0027,0,0,0,0,0,0,0,0,0,0,0,0,0,0,0,0,0,0,0,0,0,0,0,0,0,0,0,0,0,0,-0.0074,-0.0231,-0.0019,0.025,0.0113,-0.0041,-0.0066,0,0.0247,0.0159,-0.0003,-0.0115,-0.0008,0.0055,0.0115,-0.0209,-0.0316,-0.0096,0.0107,0.0129,0,0.017,0,0.0093,0.0049,0.0052,0,0,0,0,0,0,0,0,0,0,0,0,0,0,0,0,0,0,0,-0.0258,-0.031,-0.0371,-0.0258,-0.0184,-0.0275,-0.0033,0.0049,0.0181,0.0058,-0.0275,-0.0093,-0.0082,-0.0132,-0.0107,0.006,0.0066,-0.0044,0.003,0.0038,0.0027,0.0236,0.0209,0.0385,0.0349,0.0179,0.0044,0,0,0,0,0,0,0,0,0,0,0,0,0,0,0,0,0,0,0,-0.0448,-0.0516,-0.0571,-0.0558,-0.0503,-0.0382,-0.0214,-0.0387,-0.0335,-0.0357,-0.0363,-0.0313,-0.0253,-0.0091,-0.006,0.0135,0.0146,0.0022,-0.0074,-0.0168,-0.0058,0.011,0.0033,0.0099,0.0291,0.0176,0.0003,0,0,0,0,0,0,0,0,0,0,0,0,0,0,0,0,0,0,0,0,-0.0593,-0.0634,-0.0607,-0.0536,-0.0431,-0.0233,-0.0129,-0.0203,-0.0198,-0.0179,-0.0115,-0.0019,0.0143,0.0135,0.0168,0.0146,0.0121,0.0157,0.0135,0.0011,-0.0104,-0.0157,-0.006,0.011,0.0091,-0.0019,0,0,0,0,0,0,0,0,0,0,0,0,0,0,0,0,0,0,0,0,-0.0527,-0.0604,-0.061,-0.0596,-0.056,-0.0404,-0.0231,-0.0209,-0.0099,-0.0011,0.0055,0.0146,0.0206,0.0214,0.0247,0.0247,0.0209,0.0239,0.0253,0.0209,0.0016,-0.019,-0.0253,0.0066,0.0162,-0.003,0,0,0,0,0,0,0,0,0,0,0,0,0,0,0,0,0,0,0,0,-0.0365,-0.0503,-0.0585,-0.0618,-0.0665,-0.0582,-0.0354,-0.0187,-0.0033,0.011,0.0173,0.0225,0.0258,0.0258,0.025,0.0233,0.0209,0.0225,0.0244,0.0148,-0.0003,-0.0129,-0.0126,0.0049,0.0047,-0.0244,0,0,0,0,0,0,0,0,0,0,0,0,0,0,0,0,0,0,0,0,0,-0.0379,-0.0522,-0.056,-0.0643,-0.0615,-0.0379,-0.0132,0.0058,0.0187,0.0277,0.036,0.039,0.0374,0.0319,0.0264,0.0198,0.0159,0.0176,0.0201,0.0126,0.0118,0.0308,0.0434,0.0113,-0.0233,0,0,0,0,0,0,0,0,0,0,0,0,0,0,0,0,0,0,0,0,0,-0.0266,-0.0453,-0.0472,-0.0544,-0.0547,-0.0398,-0.0195,0.0033,0.0211,0.0324,0.0415,0.0478,0.0505,0.0472,0.0396,0.028,0.0151,0.0038,0.0049,0.0058,0.0071,0.0266,0.0522,0.0538,-0.0016,0,0,0,0,0,0,0,0,0,0,0,0,0,0,0,0,0,0,0,0,0,-0.0198,-0.0423,-0.0428,-0.0453,-0.047,-0.0371,-0.0203,0.0063,0.0272,0.039,0.0478,0.056,0.0602,0.0591,0.0516,0.0396,0.0247,0.0085,0.0,-0.0005,0.0033,0.014,0.0349,0.0483,0.0104,0,0,0,0,0,0,0,0,0,0,0,0,0,0,0,0,0,0,0,0,0,-0.0176,-0.0415,-0.0445,-0.0434,-0.0407,-0.0305,-0.0132,0.0135,0.033,0.0456,0.0558,0.0629,0.0645,0.0626,0.0574,0.0475,0.0352,0.0203,0.0082,0.0049,0.003,0.0071,0.0192,0.0261,0.0022,0,0,0,0,0,0,0,0,0,0,0,0,0,0,0,0,0,0,0,0,0,-0.0168,-0.039,-0.0461,-0.0467,-0.0376,-0.0247,-0.0091,0.0165,0.0374,0.0541,0.0659,0.0709,0.0706,0.0673,0.0621,0.0549,0.045,0.0283,0.014,0.0088,0.0052,0.0063,0.0124,0.0071,-0.0107,0,0,0,0,0,0,0,0,0,0,0,0,0,0,0,0,0,0,0,0,0,-0.0154,-0.0343,-0.0423,-0.0483,-0.0374,-0.0231,-0.008,0.0187,0.0464,0.0681,0.0802,0.0824,0.0794,0.0739,0.0659,0.0591,0.0508,0.0349,0.0157,0.0038,0.0003,0.0044,0.0121,-0.0016,-0.0201,0,0,0,0,0,0,0,0,0,0,0,0,0,0,0,0,0,0,0,0,-0.0033,-0.0162,-0.031,-0.0352,-0.0461,-0.0371,-0.025,-0.0077,0.022,0.0593,0.0843,0.0953,0.0934,0.086,0.0783,0.0689,0.0591,0.0467,0.0332,0.0124,-0.0063,-0.0129,-0.006,0.0047,-0.0038,-0.0228,0,0,0,0,0,0,0,0,0,0,0,0,0,0,0,0,0,0,0,0,-0.0027,-0.0236,-0.0291,-0.0261,-0.0398,-0.0371,-0.0305,-0.0121,0.025,0.0687,0.0887,0.089,0.0805,0.0698,0.0659,0.0676,0.0626,0.0461,0.0275,0.0066,-0.0159,-0.0269,-0.0239,-0.0118,-0.0093,-0.0211,0,0,0,0,0,0,0,0,0,0,0,0,0,0,0,0,0,0,0,0,-0.0052,-0.0264,-0.0214,-0.0168,-0.0299,-0.0354,-0.0335,-0.0168,0.0239,0.0618,0.0802,0.0843,0.0753,0.0558,0.039,0.031,0.0349,0.0442,0.0332,0.0058,-0.019,-0.0352,-0.0376,-0.0286,-0.0165,-0.0157,0,0,0,0,0,0,0,0,0,0,0,0,0,0,0,0,0,0,0,-0.0038,-0.0074,-0.0159,-0.0115,-0.011,-0.0247,-0.0382,-0.0327,-0.0159,0.0239,0.0615,0.0802,0.0909,0.0901,0.0758,0.0522,0.0225,-0.0044,0.0033,0.0211,0.0179,-0.0091,-0.0321,-0.0423,-0.0396,-0.0261,-0.0151,0,0,0,0,0,0,0,0,0,0,0,0,0,0,0,0,0,0,0,-0.0044,-0.0066,-0.006,-0.0071,-0.0162,-0.0222,-0.0346,-0.0244,-0.0077,0.0299,0.075,0.0915,0.0917,0.089,0.089,0.0794,0.0489,0.0,-0.0338,-0.0288,-0.0025,0.0025,-0.0126,-0.036,-0.0448,-0.0385,-0.0261,0,0,0,0,0,0,0,0,0,0,0,0,0,0,0,0,0,0,0.0008,-0.0027,-0.0118,-0.008,-0.0099,-0.0077,-0.0187,-0.0157,-0.0102,0.0126,0.0571,0.0906,0.1027,0.1035,0.0997,0.0953,0.0879,0.0648,0.022,-0.0352,-0.0709,-0.0629,-0.0261,-0.0055,-0.0132,-0.0376,-0.0478,-0.0453,0,0,0,0,0,0,0,0,0,0,0,0,0,0,0,0,0,0.0214,0.0275,0.0242,0.0107,0.003,-0.0091,-0.0214,-0.0255,-0.0036,0.011,0.0475,0.0857,0.1085,0.12,0.1252,0.1241,0.1162,0.1016,0.0819,0.0426,-0.0151,-0.0849,-0.1192,-0.0972,-0.0374,-0.0014,-0.0181,-0.0505,-0.0654,0,0,0,0,0,0,0,0,0,0,0,0,0,0,0,0,0.0464,0.0522,0.0648,0.0637,0.0382,0.0093,-0.019,-0.045,-0.0063,0.0222,0.0541,0.0917,0.1145,0.1285,0.1357,0.1379,0.1371,0.1274,0.1055,0.0791,0.0547,0.0195,-0.0497,-0.1217,-0.1648,-0.1272,-0.0456,-0.0069,-0.0327,-0.0519,0,0,0,0,0,0,0,0,0,0,0,0,0,0,0,0,0.0687,0.0805,0.0753,0.0563,0.0349,-0.0099,-0.0467,-0.0036,0.042,0.0843,0.1162,0.1318,0.1415,0.1478,0.1483,0.1437,0.1365,0.1269,0.1096,0.0827,0.0541,0.0302,0.0003,-0.0593,-0.1384,-0.1832,-0.159,-0.0884,-0.0286,-0.0102,0,0,0,0,0,0,0,0,0,0,0,0,0,0,0,0.0766,0.0964,0.0777,0.0569,0.0272,-0.0014,-0.0027,0.0407,0.0805,0.1082,0.1244,0.1329,0.1426,0.1538,0.1604,0.1563,0.1434,0.1269,0.1115,0.0942,0.0747,0.0536,0.0297,0.0025,-0.0324,-0.0838,-0.1568,-0.2156,-0.2052,-0.1373,-0.0764]}],[{"header":{"parameterUnit":"m.s-1","parameterCategory":2,"la1":30.5641,"la2":29.4642,"lo1":-89.4342,"lo2":-87.9343,"dx":0.0333,"dy":0.0333,"nx":46,"ny":34,"refTime":"2023-01-15T00:00:00:Z","depth":"15","parameterNumber":2,"parameterNumberName":"U-component_of_CURRENTS"},"data":[0,0,0,0,0,0,0,0,0,0,0,0,0,0,0,0,0,0,0,0,0,0,0,0,0,0,0,0,0,0,0,0,0,0,0,0,0,0,0,0,0,0,0,0,0,0,0,0,0,0,0,0,0,0,0,0,0,0,0,0,0,0,0,0,0,0,0,0,0,0,0,0,0,0,0,0,0,0,0,0,0,0,0,0,0,0,0,0,0,0,0,0,0,0,0,0,0,0,0,0,0,0,0,0,0,0,0,0,0,0,0,0,0,0,0,0,0,0,0,0,0,0,0,0,0,0,0,0,0,0,0,0,0,0,0,0,0,0,0,0,0,0,0,0,0,0,0,0,0,0,0,0,0,0,0,0,0,0,0,0,0,0,0,0,0,0,0,0,0,0,0,0,0,0,0,0,0,0,0,0,0,0,0,0,0,0,0,0,0,0,0,0,0,0,0,0,0,0,0,0,0,0,0,0,0,0,0,0,0,0,0,0,0,0,0,0,0,0,0,0,0,0,0,0,0,0,0,0,0,0,0,0,0,0,0,0,0,0,0,0,0,0,0,0,0,0,0,0,0,0,0,0,0,0,0,0,0,0,0,0,0,0,0,0,0,0,0,0,0,0,0,0,0,0,0,0,0,0,0,0,0,0,0,0,0,0,0,0,0,0,0,0,0,0,0,0,0,0,0,0,0,0,0,0,0,0,0,0,0,0,0,0,0,0,0,0,0,0,0,0,0,0,0,0,0,0,0,0,0,0,0,0,0,0,0,0,0,0,0,0,0,0,0,0,0,0,0,0,0,0,0,0,0,0,0,0,0,0,0,0,0,0,0,0,0,0,0,0,0,0,0,0,0,0,0,0,0,0,0,0,0,0,0,0,0,0,0,0,0,0,0,0,0,0,0,0,0,0,0,0,0,0,0,0,0,0,0,0,0,0,0,0,0,0,0,0,0,0,0,0,0,0,0,0,0,0,0,0,0,0,0,0,0,0,0,0,0,0,0,0,0,0,0,0,0,0,0,0,0,0,0,0,0,0,0,0,0,0,0,0,0,0,0,0,0,0,0,0,0,0,0,0,0,0,0,0,0,0,0,0,0,0,0,0,0,0,0,0,0,0,0,0,0,0,0,0,0,0,0,0,0,0,0,0,0,0,0,0,0,0,0,0,0,0,0,0,0,0,0,0,0,0,0,0,0,0,0,0,0,0,0,0,0,0,0,0,0,0,0,0,0,0,0,0,0,0,0,0,0,0,0,0,0,0,0,0,0,0,0,0,0,0,0,0,0,0,0,0,0,0,0,0,0,0,0,0,0,0,0,0,0,0,0,0,0,0,0,0.0157,0.0236,0,0,0,0,0,0,0,0,0,0,0,0,0,0,0,0,0,0,0,0,0,0,0,0,0,0,0,0,0,0,0,0,0.0225,0.0269,0,0,0,0,0,0,0.0033,0.0093,0.0135,0.0157,0.0239,0.0321,0.0288,0.0239,0.0228,0,0,0,0,0,0,0,0,0,0,0,0,0,0,0,0,0,0,0,0,0,0,0,0,0,0,0,0,0.0316,0.0277,0.0261,0.031,0.0341,0.0203,0.0036,-0.0011,0.0016,0.0016,-0.0038,0.0022,0.0211,0.0341,0.0396,0.0385,0.0368,0.0341,0.0294,0.0228,0.0113,-0.0071,-0.0231,-0.0269,0,0,0,0,0,0,0,0,0,0,0,0,0,0,0,0,0,0,0,0,0,0.0313,0.0258,0.0233,0.0217,0.0308,0.0401,0.0324,0.0253,0.0253,0.0269,0.0294,0.0338,0.031,0.0247,0.0253,0.0291,0.0332,0.039,0.0415,0.0385,0.0327,0.0211,0.0118,0.0041,-0.0055,0,0,0,0,0,0,0,0,0,0,0,0,0,0,0,0,0,0,0,0,0,0.0176,0.017,0.0168,0.0151,0.0014,-0.0126,-0.0176,-0.0157,-0.0025,0.0063,0.0074,0.017,0.0354,0.0437,0.0266,0.0071,0.0063,0.0088,0.0121,0.0198,0.025,0.0198,0.0176,0.0184,0.0154,0,0,0,0,0,0,0,0,0,0,0,0,0,0,0,0,0,0,0,0,0,0,0.0102,0.0132,0.0162,0.0146,0.0049,-0.0047,-0.0014,0.0055,0.0118,0.0203,0.0283,0.0341,0.0387,0.0456,0.058,0.0632,0.0558,0.0407,0.0206,0.0036,0.0036,0.0168,0.0195,0.0099,0,0,0,0,0,0,0,0,0,0,0,0,0,0,0,0,0,0,0,0,0,0,0.003,0.0088,0.0151,0.0233,0.0404,0.0434,0.0412,0.0407,0.0448,0.0544,0.0684,0.0843,0.0959,0.0994,0.097,0.0912,0.0887,0.0893,0.0775,0.0667,0.0574,0.0288,0.0209,0.0374,0,0,0,0,0,0,0,0,0,0,0,0,0,0,0,0,0,0,0,0,0,0,-0.0047,0.0027,0.0093,0.0195,0.0349,0.039,0.0404,0.0434,0.0489,0.0547,0.0618,0.0731,0.0884,0.1055,0.1195,0.1252,0.1209,0.1104,0.1016,0.0967,0.0992,0.1096,0.0964,0.0766,0,0,0,0,0,0,0,0,0,0,0,0,0,0,0,0,0,0,0,0,0,0,-0.0107,-0.0025,0.0041,0.0157,0.0277,0.0313,0.0332,0.0371,0.0426,0.0494,0.0571,0.0659,0.0766,0.0904,0.1055,0.12,0.1324,0.1406,0.1434,0.1412,0.1332,0.1255,0.1225,0.1077,0,0,0,0,0,0,0,0,0,0,0,0,0,0,0,0,0,0,0,0,0,0,-0.0165,-0.0074,0.0041,0.0168,0.0239,0.0286,0.0324,0.0365,0.042,0.0494,0.0577,0.0656,0.0733,0.0808,0.0895,0.0992,0.1085,0.1184,0.1269,0.1329,0.1318,0.1247,0.1165,0.1,0,0,0,0,0,0,0,0,0,0,0,0,0,0,0,0,0,0,0,0,0,0,-0.0228,-0.0159,-0.0027,0.0146,0.0206,0.0242,0.0253,0.0291,0.0363,0.0464,0.0566,0.0651,0.0725,0.0788,0.0849,0.0909,0.0956,0.0967,0.0948,0.0939,0.095,0.0975,0.0967,0.0851,0,0,0,0,0,0,0,0,0,0,0,0,0,0,0,0,0,0,0,0,0,0,-0.0283,-0.0247,-0.0159,0.0074,0.0176,0.0137,0.0206,0.028,0.0396,0.0533,0.0654,0.0739,0.0794,0.0843,0.0887,0.092,0.095,0.0967,0.0939,0.0876,0.0799,0.0739,0.0717,0.0695,0,0,0,0,0,0,0,0,0,0,0,0,0,0,0,0,0,0,0,0,0,0,-0.0313,-0.0291,-0.0247,-0.0016,0.0099,0.0071,0.0159,0.0159,0.0354,0.0503,0.0629,0.0736,0.0797,0.0832,0.0884,0.0928,0.0945,0.0945,0.0928,0.0865,0.0761,0.0651,0.0599,0.0596,0,0,0,0,0,0,0,0,0,0,0,0,0,0,0,0,0,0,0,0,0,0,-0.0316,-0.0283,-0.031,-0.0148,-0.0033,0.0047,0.0027,0.0179,0.0154,0.0184,0.0222,0.0316,0.0533,0.075,0.0827,0.0857,0.0904,0.0926,0.089,0.0819,0.0706,0.0569,0.0483,0.0483,0,0,0,0,0,0,0,0,0,0,0,0,0,0,0,0,0,0,0,0,0,0,-0.0305,-0.0209,-0.0305,-0.0277,-0.0165,-0.008,0.0052,0.0157,0.0308,0.0409,0.042,0.0321,0.0247,0.0346,0.0613,0.0821,0.0846,0.0868,0.0876,0.0819,0.0706,0.0563,0.0426,0.0365,0,0,0,0,0,0,0,0,0,0,0,0,0,0,0,0,0,0,0,0,0,-0.0319,-0.0228,-0.0143,-0.0217,-0.0055,0.0027,-0.0005,0.0157,0.047,0.0791,0.0967,0.1011,0.0959,0.081,0.0544,0.0374,0.0555,0.0838,0.0868,0.0843,0.0813,0.0753,0.0665,0.056,0.0456,0,0,0,0,0,0,0,0,0,0,0,0,0,0,0,0,0,0,0,0,0,-0.022,-0.0195,-0.0239,-0.0102,0.0217,0.0201,0.014,0.0442,0.078,0.0961,0.1025,0.1088,0.111,0.1099,0.0959,0.0711,0.0511,0.0618,0.0868,0.0928,0.0884,0.0887,0.0893,0.0843,0.0747,0,0,0,0,0,0,0,0,0,0,0,0,0,0,0,0,0,0,0,0,0,-0.0294,-0.0288,-0.0247,0.0091,0.0239,0.0049,0.0349,0.0689,0.0934,0.0956,0.0942,0.0981,0.106,0.1192,0.1283,0.1187,0.0912,0.0722,0.0791,0.0978,0.1044,0.1079,0.1145,0.1184,0.1159,0,0,0,0,0,0,0,0,0,0,0,0,0,0,0,0,0,0,0,0,-0.0266,-0.022,-0.0099,0.0146,0.0247,-0.0157,0.0239,0.0678,0.1005,0.1134,0.1156,0.117,0.1214,0.1294,0.1469,0.1659,0.1659,0.1423,0.1137,0.1016,0.1025,0.1126,0.1189,0.1225,0.125,0.1252,0,0,0,0,0,0,0,0,0,0,0,0,0,0,0,0,0,0,0,0.0003,0.0071,0.0294,0.0483,0.0634,0.0,0.0313,0.0904,0.1302,0.1516,0.1648,0.1766,0.1862,0.1928,0.2002,0.2137,0.2362,0.2554,0.2483,0.2087,0.1697,0.1533,0.1464,0.134,0.1137,0.0906,0.0755,0,0,0,0,0,0,0,0,0,0,0,0,0,0,0,0,0,0,0.0066,0.0181,0.0387,0.0821,0.1008,0.0574,0.0846,0.1456,0.1785,0.195,0.2076,0.2299,0.2615,0.2925,0.315,0.329,0.3387,0.3483,0.3609,0.3766,0.3815,0.3593,0.323,0.3087,0.2868,0.2005,0.1112,0.0766,0,0,0,0,0,0,0,0,0,0,0,0,0,0,0,0,0,0.0025,0.0181,0.0514,0.0953,0.1393,0.1354,0.1758,0.217,0.2376,0.2513,0.2725,0.3079,0.3507,0.3952,0.4375,0.468,0.4815,0.4823,0.4793,0.4768,0.4796,0.4917,0.5073,0.5172,0.512,0.4914,0.4867,0.4417,0.3057]},{"header":{"parameterUnit":"m.s-1","parameterCategory":2,"la1":30.5641,"la2":29.4642,"lo1":-89.4342,"lo2":-87.9343,"dx":0.0333,"dy":0.0333,"nx":46,"ny":34,"refTime":"2023-01-15T00:00:00:Z","depth":"15","parameterNumber":3,"parameterNumberName":"V-component_of_CURRENTS"},"data":[0,0,0,0,0,0,0,0,0,0,0,0,0,0,0,0,0,0,0,0,0,0,0,0,0,0,0,0,0,0,0,0,0,0,0,0,0,0,0,0,0,0,0,0,0,0,0,0,0,0,0,0,0,0,0,0,0,0,0,0,0,0,0,0,0,0,0,0,0,0,0,0,0,0,0,0,0,0,0,0,0,0,0,0,0,0,0,0,0,0,0,0,0,0,0,0,0,0,0,0,0,0,0,0,0,0,0,0,0,0,0,0,0,0,0,0,0,0,0,0,0,0,0,0,0,0,0,0,0,0,0,0,0,0,0,0,0,0,0,0,0,0,0,0,0,0,0,0,0,0,0,0,0,0,0,0,0,0,0,0,0,0,0,0,0,0,0,0,0,0,0,0,0,0,0,0,0,0,0,0,0,0,0,0,0,0,0,0,0,0,0,0,0,0,0,0,0,0,0,0,0,0,0,0,0,0,0,0,0,0,0,0,0,0,0,0,0,0,0,0,0,0,0,0,0,0,0,0,0,0,0,0,0,0,0,0,0,0,0,0,0,0,0,0,0,0,0,0,0,0,0,0,0,0,0,0,0,0,0,0,0,0,0,0,0,0,0,0,0,0,0,0,0,0,0,0,0,0,0,0,0,0,0,0,0,0,0,0,0,0,0,0,0,0,0,0,0,0,0,0,0,0,0,0,0,0,0,0,0,0,0,0,0,0,0,0,0,0,0,0,0,0,0,0,0,0,0,0,0,0,0,0,0,0,0,0,0,0,0,0,0,0,0,0,0,0,0,0,0,0,0,0,0,0,0,0,0,0,0,0,0,0,0,0,0,0,0,0,0,0,0,0,0,0,0,0,0,0,0,0,0,0,0,0,0,0,0,0,0,0,0,0,0,0,0,0,0,0,0,0,0,0,0,0,0,0,0,0,0,0,0,0,0,0,0,0,0,0,0,0,0,0,0,0,0,0,0,0,0,0,0,0,0,0,0,0,0,0,0,0,0,0,0,0,0,0,0,0,0,0,0,0,0,0,0,0,0,0,0,0,0,0,0,0,0,0,0,0,0,0,0,0,0,0,0,0,0,0,0,0,0,0,0,0,0,0,0,0,0,0,0,0,0,0,0,0,0,0,0,0,0,0,0,0,0,0,0,0,0,0,0,0,0,0,0,0,0,0,0,0,0,0,0,0,0,0,0,0,0,0,0,0,0,0,0,0,0,0,0,0,0,0,0,0,0,0,0,0,0,0,0,0,0,0,0,0,0,0,0,0,0,0,0,0,0,0,0,0,0,0,0,0,0,0,0,0,0,0,0,0,0,0,0,0,0,0,0,0.011,0.0113,0,0,0,0,0,0,0,0,0,0,0,0,0,0,0,0,0,0,0,0,0,0,0,0,0,0,0,0,0,0,0,0,-0.008,-0.017,0,0,0,0,0,0,0.0016,0.0162,0.0247,0.0192,0.0022,0.0027,0.0126,0.0129,0.011,0,0,0,0,0,0,0,0,0,0,0,0,0,0,0,0,0,0,0,0,0,0,0,0,0,0,0,0,-0.0456,-0.0434,-0.0291,0.0,0.003,0.0211,0.025,0.0157,0.0126,0.0137,0.0014,-0.0052,0.0,0.0041,0.006,0.0126,0.0124,0.0132,0.0198,0.0253,0.0321,0.0352,0.0231,0.0126,0,0,0,0,0,0,0,0,0,0,0,0,0,0,0,0,0,0,0,0,0,-0.0558,-0.0508,-0.0459,-0.0401,-0.0228,-0.0126,0.0016,0.0071,0.0082,0.0091,0.0055,-0.0025,-0.0069,0.0022,0.0055,0.0069,0.0093,0.011,0.0159,0.0181,0.0225,0.0286,0.0385,0.0283,0.0115,0,0,0,0,0,0,0,0,0,0,0,0,0,0,0,0,0,0,0,0,0,-0.0519,-0.0508,-0.0494,-0.0494,-0.0352,-0.014,-0.0118,-0.0091,-0.0033,0.0027,0.0077,0.0091,0.0036,-0.0005,-0.0025,-0.0126,-0.0126,-0.011,-0.0063,0.0014,0.011,0.0206,0.0332,0.0277,0.003,0,0,0,0,0,0,0,0,0,0,0,0,0,0,0,0,0,0,0,0,0,0,-0.0486,-0.053,-0.0574,-0.053,-0.0354,-0.0184,-0.003,0.0104,0.0168,0.0217,0.025,0.025,0.0242,0.0211,0.0132,0.0071,-0.0093,-0.0082,-0.006,0.0055,0.0124,0.0137,0.0063,-0.0115,0,0,0,0,0,0,0,0,0,0,0,0,0,0,0,0,0,0,0,0,0,0,-0.0428,-0.0486,-0.0571,-0.0588,-0.0453,-0.0168,0.0038,0.017,0.0264,0.0338,0.0371,0.0346,0.0294,0.0233,0.0168,0.011,0.0022,-0.0069,-0.0228,-0.019,0.0036,0.0027,0.0124,0.0016,0,0,0,0,0,0,0,0,0,0,0,0,0,0,0,0,0,0,0,0,0,0,-0.0365,-0.0417,-0.0503,-0.0558,-0.0448,-0.0225,0.0014,0.019,0.0302,0.039,0.0456,0.0472,0.0437,0.0357,0.0247,0.0113,0.0,-0.0027,-0.0058,-0.0038,0.014,0.0184,-0.0049,-0.0261,0,0,0,0,0,0,0,0,0,0,0,0,0,0,0,0,0,0,0,0,0,0,-0.0321,-0.0376,-0.0439,-0.0503,-0.0409,-0.0225,0.0044,0.0247,0.0365,0.0456,0.0538,0.0577,0.0563,0.0489,0.0365,0.0198,0.0033,-0.0082,-0.0071,-0.0005,0.0099,0.0283,0.0025,-0.0527,0,0,0,0,0,0,0,0,0,0,0,0,0,0,0,0,0,0,0,0,0,0,-0.0288,-0.0379,-0.0439,-0.0439,-0.0352,-0.0162,0.0113,0.0305,0.0431,0.0536,0.0607,0.0623,0.0604,0.0552,0.0448,0.0299,0.0143,-0.0038,-0.0088,-0.0093,-0.0082,0.0082,0.0058,-0.0541,0,0,0,0,0,0,0,0,0,0,0,0,0,0,0,0,0,0,0,0,0,0,-0.0244,-0.0379,-0.0489,-0.0448,-0.031,-0.0159,0.0115,0.0341,0.0508,0.0626,0.0678,0.0676,0.0645,0.0599,0.0516,0.0385,0.0217,0.0022,-0.0082,-0.0121,-0.0159,-0.0132,-0.0107,-0.0439,0,0,0,0,0,0,0,0,0,0,0,0,0,0,0,0,0,0,0,0,0,0,-0.0198,-0.0335,-0.0486,-0.0497,-0.0321,-0.0214,0.0126,0.0365,0.0593,0.0736,0.0772,0.0747,0.0698,0.0632,0.056,0.0448,0.0275,0.0055,-0.0077,-0.0118,-0.0113,-0.0151,-0.0195,-0.0368,0,0,0,0,0,0,0,0,0,0,0,0,0,0,0,0,0,0,0,0,0,0,-0.017,-0.0305,-0.0442,-0.0547,-0.0385,-0.0255,0.0058,0.0428,0.0662,0.0755,0.0755,0.0725,0.0714,0.0651,0.0555,0.0423,0.0266,0.0011,-0.0179,-0.0222,-0.0159,-0.0088,-0.0148,-0.0305,0,0,0,0,0,0,0,0,0,0,0,0,0,0,0,0,0,0,0,0,0,0,-0.0154,-0.0272,-0.0417,-0.0574,-0.0472,-0.0231,0.0096,0.0497,0.0692,0.075,0.0722,0.0629,0.0555,0.0522,0.056,0.0417,0.022,-0.0049,-0.031,-0.039,-0.0321,-0.0206,-0.0165,-0.0264,0,0,0,0,0,0,0,0,0,0,0,0,0,0,0,0,0,0,0,0,0,0,-0.0137,-0.0217,-0.0398,-0.0552,-0.0481,-0.0244,0.0211,0.056,0.0753,0.0802,0.0816,0.0761,0.0613,0.0434,0.0338,0.0346,0.0275,-0.0025,-0.0327,-0.045,-0.0415,-0.0316,-0.0195,-0.0187,0,0,0,0,0,0,0,0,0,0,0,0,0,0,0,0,0,0,0,0,0,-0.0077,-0.0129,-0.0176,-0.0321,-0.0404,-0.0308,-0.0052,0.0327,0.0626,0.0805,0.0865,0.0879,0.086,0.0791,0.0621,0.0321,0.0107,0.0126,0.0126,-0.0168,-0.0365,-0.0442,-0.0415,-0.0277,-0.017,0,0,0,0,0,0,0,0,0,0,0,0,0,0,0,0,0,0,0,0,0,-0.008,-0.0113,-0.0148,-0.0008,-0.0077,-0.0077,0.0203,0.0497,0.0703,0.0821,0.0819,0.0777,0.0758,0.0786,0.0744,0.0527,0.0126,-0.0137,-0.0074,-0.0005,-0.0154,-0.0376,-0.0467,-0.0404,-0.0277,0,0,0,0,0,0,0,0,0,0,0,0,0,0,0,0,0,0,0,0,0,-0.0033,0.0069,0.0187,0.028,-0.0005,0.0187,0.042,0.0648,0.0873,0.1041,0.1052,0.0967,0.0915,0.0901,0.0802,0.0604,0.0302,-0.0135,-0.042,-0.0261,-0.0104,-0.0179,-0.0439,-0.0533,-0.0508,0,0,0,0,0,0,0,0,0,0,0,0,0,0,0,0,0,0,0,0,0.0233,0.0242,0.0343,0.0461,0.0014,0.0118,0.0434,0.0676,0.0931,0.1178,0.1316,0.1302,0.1252,0.1214,0.1173,0.1005,0.0742,0.0379,-0.0091,-0.0519,-0.0665,-0.0396,-0.0179,-0.0376,-0.0717,-0.0846,0,0,0,0,0,0,0,0,0,0,0,0,0,0,0,0,0,0,0,0.053,0.0525,0.0571,0.053,-0.0036,0.0,0.0445,0.07,0.0964,0.1228,0.1415,0.145,0.1426,0.142,0.1395,0.1296,0.1079,0.0819,0.0511,0.0014,-0.0593,-0.1049,-0.0931,-0.0467,-0.0264,-0.0629,-0.0799,0,0,0,0,0,0,0,0,0,0,0,0,0,0,0,0,0,0,0.0634,0.0634,0.072,0.0618,0.0148,-0.006,0.0505,0.0775,0.1027,0.1274,0.15,0.1615,0.1621,0.1593,0.1535,0.1456,0.1318,0.1085,0.0827,0.0588,0.0286,-0.0272,-0.0989,-0.1401,-0.1351,-0.0854,-0.0341,-0.0184,0,0,0,0,0,0,0,0,0,0,0,0,0,0,0,0,0,0.0731,0.0761,0.0755,0.0717,0.0407,0.0261,0.0681,0.0948,0.1154,0.1351,0.1571,0.1763,0.187,0.1873,0.1785,0.1632,0.1431,0.1214,0.0997,0.0802,0.0607,0.0382,0.0063,-0.0464,-0.1184,-0.1843,-0.1843,-0.1294,-0.0772]}],[{"header":{"parameterUnit":"m.s-1","parameterCategory":2,"la1":30.5641,"la2":29.4642,"lo1":-89.4342,"lo2":-87.9343,"dx":0.0333,"dy":0.0333,"nx":46,"ny":34,"refTime":"2023-01-15T00:00:00:Z","depth":"20","parameterNumber":2,"parameterNumberName":"U-component_of_CURRENTS"},"data":[0,0,0,0,0,0,0,0,0,0,0,0,0,0,0,0,0,0,0,0,0,0,0,0,0,0,0,0,0,0,0,0,0,0,0,0,0,0,0,0,0,0,0,0,0,0,0,0,0,0,0,0,0,0,0,0,0,0,0,0,0,0,0,0,0,0,0,0,0,0,0,0,0,0,0,0,0,0,0,0,0,0,0,0,0,0,0,0,0,0,0,0,0,0,0,0,0,0,0,0,0,0,0,0,0,0,0,0,0,0,0,0,0,0,0,0,0,0,0,0,0,0,0,0,0,0,0,0,0,0,0,0,0,0,0,0,0,0,0,0,0,0,0,0,0,0,0,0,0,0,0,0,0,0,0,0,0,0,0,0,0,0,0,0,0,0,0,0,0,0,0,0,0,0,0,0,0,0,0,0,0,0,0,0,0,0,0,0,0,0,0,0,0,0,0,0,0,0,0,0,0,0,0,0,0,0,0,0,0,0,0,0,0,0,0,0,0,0,0,0,0,0,0,0,0,0,0,0,0,0,0,0,0,0,0,0,0,0,0,0,0,0,0,0,0,0,0,0,0,0,0,0,0,0,0,0,0,0,0,0,0,0,0,0,0,0,0,0,0,0,0,0,0,0,0,0,0,0,0,0,0,0,0,0,0,0,0,0,0,0,0,0,0,0,0,0,0,0,0,0,0,0,0,0,0,0,0,0,0,0,0,0,0,0,0,0,0,0,0,0,0,0,0,0,0,0,0,0,0,0,0,0,0,0,0,0,0,0,0,0,0,0,0,0,0,0,0,0,0,0,0,0,0,0,0,0,0,0,0,0,0,0,0,0,0,0,0,0,0,0,0,0,0,0,0,0,0,0,0,0,0,0,0,0,0,0,0,0,0,0,0,0,0,0,0,0,0,0,0,0,0,0,0,0,0,0,0,0,0,0,0,0,0,0,0,0,0,0,0,0,0,0,0,0,0,0,0,0,0,0,0,0,0,0,0,0,0,0,0,0,0,0,0,0,0,0,0,0,0,0,0,0,0,0,0,0,0,0,0,0,0,0,0,0,0,0,0,0,0,0,0,0,0,0,0,0,0,0,0,0,0,0,0,0,0,0,0,0,0,0,0,0,0,0,0,0,0,0,0,0,0,0,0,0,0,0,0,0,0,0,0,0,0,0,0,0,0,0,0,0,0,0,0,0,0,0,0,0,0,0,0,0,0,0,0,0,0,0,0,0,0,0,0,0,0,0,0,0,0,0,0,0,0,0,0,0,0,0,0,0,0,0,0,0,0,0,0,0,0,0,0,0,0,0,0,0,0,0,0,0,0,0,0,0,0,0,0,0,0,0,0,0,0,0,0,0,0,0,0,0,0,0,0,0,0,0,0,0,0,0,0,0,0,0,0,0,0,0,0,0,0,0,0,0,0,0,0,0,0,0,0,0,0,0,0,0,0,0,0,0,0,0,0,0,0,0,0,0,0,0,0,0,0,0,0,0,0,0,0,0,0,0,0,0,0,0,0,0,0,0,0,0,0,0,0,0,0,0,0,0,0,0,0,0,0,0,0,0,0,0,0,0,0,0,0,0,0,0,0,0,0,0,0,0,0,0,0,0,0,0,0,0,0,0,0,0,0,0,0,0,0,0,0,0.022,0.0277,0.0308,0,0,0,0,0,0,0,0,0,0,0,0,0,0,0,0,0,0,0,0,0,0,0,0,0,0,0,0,0,0,0,0,0,0,0,0.0225,0.0272,0.0206,0.0179,0.0217,0.0261,0.0294,0.0341,0.0382,0.0417,0.0437,0.0445,0.0442,0.0439,0.0437,0.0404,0,0,0,0,0,0,0,0,0,0,0,0,0,0,0,0,0,0,0,0,0,0,0,0,0,0,0,0,0,0.0074,0.0082,0.0146,0.0168,0.0135,0.0146,0.0211,0.0299,0.0423,0.0538,0.0621,0.0676,0.0687,0.0648,0.0585,0.0527,0.0467,0.0428,0.0371,0.0176,-0.0022,-0.0066,0,0,0,0,0,0,0,0,0,0,0,0,0,0,0,0,0,0,0,0,0,0,0,0,0.0027,0.0041,0.0115,0.0231,0.0305,0.036,0.0415,0.0508,0.0659,0.0819,0.092,0.0959,0.0953,0.0934,0.0854,0.0736,0.0632,0.0591,0.0566,0.0519,0.0374,0.0206,0,0,0,0,0,0,0,0,0,0,0,0,0,0,0,0,0,0,0,0,0,0,0,0,-0.0044,-0.0022,0.003,0.0014,0.0184,0.0338,0.0464,0.0547,0.0623,0.0736,0.0868,0.1003,0.1137,0.1233,0.1222,0.1118,0.1118,0.1206,0.1167,0.0928,0.0632,0.0404,0,0,0,0,0,0,0,0,0,0,0,0,0,0,0,0,0,0,0,0,0,0,0,0,-0.0058,-0.0041,-0.0055,0.0041,0.0275,0.0352,0.0409,0.0486,0.0574,0.0659,0.0717,0.0722,0.0764,0.0838,0.0956,0.1112,0.1222,0.1255,0.1233,0.1096,0.081,0.0461,0,0,0,0,0,0,0,0,0,0,0,0,0,0,0,0,0,0,0,0,0,0,0,0,-0.0102,-0.0102,-0.008,0.0047,0.0096,0.011,0.0222,0.0393,0.0541,0.0645,0.0733,0.0805,0.0882,0.0928,0.0904,0.0854,0.0851,0.086,0.0879,0.097,0.0687,0.0247,0,0,0,0,0,0,0,0,0,0,0,0,0,0,0,0,0,0,0,0,0,0,0,0,-0.0179,-0.0132,-0.0132,-0.0033,-0.0063,0.0052,0.0187,0.0324,0.0478,0.0626,0.0742,0.0835,0.0901,0.0937,0.0953,0.0895,0.0777,0.0676,0.0558,0.036,0.0222,0.0203,0,0,0,0,0,0,0,0,0,0,0,0,0,0,0,0,0,0,0,0,0,0,0,0,-0.025,-0.0233,-0.0148,-0.0033,0.022,0.0113,0.0088,0.0157,0.0277,0.047,0.0667,0.0758,0.0758,0.075,0.075,0.0731,0.0656,0.0525,0.0464,0.0387,0.0335,0.0387,0,0,0,0,0,0,0,0,0,0,0,0,0,0,0,0,0,0,0,0,0,0,0,0,0,-0.0299,-0.022,-0.0011,0.0181,0.025,0.0431,0.0478,0.0398,0.0354,0.045,0.0555,0.0604,0.0588,0.0621,0.0621,0.0552,0.0448,0.0319,0.0324,0.0354,0.0387,0,0,0,0,0,0,0,0,0,0,0,0,0,0,0,0,0,0,0,0,0,0,0,0,0,-0.0346,-0.0228,0.0036,0.0217,0.0448,0.0659,0.0769,0.0772,0.0645,0.0459,0.0431,0.0516,0.0574,0.0607,0.0667,0.0684,0.058,0.0396,0.0258,0.0242,0.0346,0,0,0,0,0,0,0,0,0,0,0,0,0,0,0,0,0,0,0,0,0,0,0,0,0,-0.0349,-0.0135,0.0203,0.0286,0.0522,0.067,0.0895,0.1082,0.1126,0.1022,0.0764,0.0555,0.056,0.0623,0.0684,0.0808,0.086,0.0736,0.0547,0.0423,0.0467,0,0,0,0,0,0,0,0,0,0,0,0,0,0,0,0,0,0,0,0,0,0,0,0,0,-0.0211,0.0099,0.0514,0.0552,0.0632,0.0733,0.0736,0.0871,0.1184,0.1351,0.1274,0.0967,0.0662,0.0607,0.067,0.0794,0.0931,0.0967,0.0893,0.07,0.0503,0,0,0,0,0,0,0,0,0,0,0,0,0,0,0,0,0,0,0,0,0,0,0,0,0,-0.0085,0.0439,0.0651,0.0687,0.0742,0.0703,0.0629,0.0698,0.0898,0.1239,0.1428,0.1382,0.1112,0.0761,0.0659,0.0733,0.0821,0.0975,0.1134,0.1085,0.0824,0,0,0,0,0,0,0,0,0,0,0,0,0,0,0,0,0,0,0,0,0,0,0,0,-0.0184,0.0222,0.0728,0.0645,0.0648,0.0744,0.0667,0.0662,0.0739,0.0846,0.1055,0.134,0.1494,0.1467,0.1209,0.0879,0.0788,0.0838,0.089,0.1025,0.1148,0.1178,0,0,0,0,0,0,0,0,0,0,0,0,0,0,0,0,0,0,0,0,0,0,0,0,0.0135,0.0632,0.0456,0.0544,0.0775,0.081,0.0783,0.0805,0.0876,0.097,0.1052,0.117,0.1327,0.1533,0.1544,0.1266,0.0961,0.0898,0.0923,0.0992,0.1118,0.1239,0,0,0,0,0,0,0,0,0,0,0,0,0,0,0,0,0,0,0,0,0,0,0.0168,0.0363,0.0802,0.075,0.0711,0.0986,0.1104,0.1079,0.1044,0.1112,0.1145,0.1129,0.1184,0.128,0.1423,0.1623,0.1739,0.1599,0.1316,0.1129,0.1096,0.1074,0.1123,0.1151,0,0,0,0,0,0,0,0,0,0,0,0,0,0,0,0,0,0,0,0,0,0.0363,0.0687,0.1184,0.1404,0.1266,0.1434,0.1445,0.1464,0.1574,0.1752,0.1849,0.1791,0.178,0.1865,0.2013,0.2225,0.2519,0.2796,0.2802,0.2502,0.2107,0.1835,0.1656,0.1502,0.1527,0,0,0,0,0,0,0,0,0,0,0,0,0,0,0,0,0,0,0,0.0283,0.0481,0.0871,0.136,0.1648,0.1832,0.1931,0.2011,0.2101,0.2285,0.2532,0.2782,0.3032,0.3271,0.3392,0.3376,0.3321,0.3312,0.342,0.3667,0.3985,0.4241,0.4246,0.3994,0.3719,0.3271,0.2738]},{"header":{"parameterUnit":"m.s-1","parameterCategory":2,"la1":30.5641,"la2":29.4642,"lo1":-89.4342,"lo2":-87.9343,"dx":0.0333,"dy":0.0333,"nx":46,"ny":34,"refTime":"2023-01-15T00:00:00:Z","depth":"20","parameterNumber":3,"parameterNumberName":"V-component_of_CURRENTS"},"data":[0,0,0,0,0,0,0,0,0,0,0,0,0,0,0,0,0,0,0,0,0,0,0,0,0,0,0,0,0,0,0,0,0,0,0,0,0,0,0,0,0,0,0,0,0,0,0,0,0,0,0,0,0,0,0,0,0,0,0,0,0,0,0,0,0,0,0,0,0,0,0,0,0,0,0,0,0,0,0,0,0,0,0,0,0,0,0,0,0,0,0,0,0,0,0,0,0,0,0,0,0,0,0,0,0,0,0,0,0,0,0,0,0,0,0,0,0,0,0,0,0,0,0,0,0,0,0,0,0,0,0,0,0,0,0,0,0,0,0,0,0,0,0,0,0,0,0,0,0,0,0,0,0,0,0,0,0,0,0,0,0,0,0,0,0,0,0,0,0,0,0,0,0,0,0,0,0,0,0,0,0,0,0,0,0,0,0,0,0,0,0,0,0,0,0,0,0,0,0,0,0,0,0,0,0,0,0,0,0,0,0,0,0,0,0,0,0,0,0,0,0,0,0,0,0,0,0,0,0,0,0,0,0,0,0,0,0,0,0,0,0,0,0,0,0,0,0,0,0,0,0,0,0,0,0,0,0,0,0,0,0,0,0,0,0,0,0,0,0,0,0,0,0,0,0,0,0,0,0,0,0,0,0,0,0,0,0,0,0,0,0,0,0,0,0,0,0,0,0,0,0,0,0,0,0,0,0,0,0,0,0,0,0,0,0,0,0,0,0,0,0,0,0,0,0,0,0,0,0,0,0,0,0,0,0,0,0,0,0,0,0,0,0,0,0,0,0,0,0,0,0,0,0,0,0,0,0,0,0,0,0,0,0,0,0,0,0,0,0,0,0,0,0,0,0,0,0,0,0,0,0,0,0,0,0,0,0,0,0,0,0,0,0,0,0,0,0,0,0,0,0,0,0,0,0,0,0,0,0,0,0,0,0,0,0,0,0,0,0,0,0,0,0,0,0,0,0,0,0,0,0,0,0,0,0,0,0,0,0,0,0,0,0,0,0,0,0,0,0,0,0,0,0,0,0,0,0,0,0,0,0,0,0,0,0,0,0,0,0,0,0,0,0,0,0,0,0,0,0,0,0,0,0,0,0,0,0,0,0,0,0,0,0,0,0,0,0,0,0,0,0,0,0,0,0,0,0,0,0,0,0,0,0,0,0,0,0,0,0,0,0,0,0,0,0,0,0,0,0,0,0,0,0,0,0,0,0,0,0,0,0,0,0,0,0,0,0,0,0,0,0,0,0,0,0,0,0,0,0,0,0,0,0,0,0,0,0,0,0,0,0,0,0,0,0,0,0,0,0,0,0,0,0,0,0,0,0,0,0,0,0,0,0,0,0,0,0,0,0,0,0,0,0,0,0,0,0,0,0,0,0,0,0,0,0,0,0,0,0,0,0,0,0,0,0,0,0,0,0,0,0,0,0,0,0,0,0,0,0,0,0,0,0,0,0,0,0,0,0,0,0,0,0,0,0,0,0,0,0,0,0,0,0,0,0,0,0,0,0,0,0,0,0,0,0,0,0,0,0,0,0,0,0,0,0,0,0,0,0,0,0,0,0,0,0,0,0,0,0,0,0,0,0,0,0,0,0,0,0,0,0,0,0,0,0,0,0,0,0,0,0,0,0,0.0201,0.0184,0.0173,0,0,0,0,0,0,0,0,0,0,0,0,0,0,0,0,0,0,0,0,0,0,0,0,0,0,0,0,0,0,0,0,0,0,0,0.0,0.0228,0.0338,0.0316,0.0275,0.0261,0.028,0.0269,0.0242,0.0244,0.0231,0.0211,0.0181,0.0159,0.0154,0.0168,0,0,0,0,0,0,0,0,0,0,0,0,0,0,0,0,0,0,0,0,0,0,0,0,0,0,0,0,0,-0.039,-0.0228,-0.0052,0.0016,0.0058,0.0121,0.0201,0.0247,0.0247,0.0253,0.0283,0.0272,0.025,0.0209,0.0157,0.0126,0.0137,0.0165,0.0231,0.036,0.0387,0.028,0,0,0,0,0,0,0,0,0,0,0,0,0,0,0,0,0,0,0,0,0,0,0,0,-0.0379,-0.0305,-0.0346,-0.0239,-0.0047,0.0096,0.0209,0.0277,0.0308,0.0275,0.0222,0.0126,0.0041,-0.0011,-0.0008,0.0093,0.0157,0.0181,0.0242,0.0324,0.0335,0.0181,0,0,0,0,0,0,0,0,0,0,0,0,0,0,0,0,0,0,0,0,0,0,0,0,-0.0313,-0.0228,-0.0286,-0.0107,0.0019,0.0115,0.0217,0.0343,0.0401,0.0346,0.0217,0.0044,-0.0088,-0.019,-0.028,-0.0417,-0.0321,-0.0088,0.0159,0.0148,0.0074,0.006,0,0,0,0,0,0,0,0,0,0,0,0,0,0,0,0,0,0,0,0,0,0,0,0,-0.028,-0.019,-0.0217,-0.0019,0.003,0.0121,0.0222,0.0343,0.0423,0.0428,0.036,0.0266,0.0124,-0.0077,-0.0255,-0.0401,-0.0363,-0.0335,-0.0255,-0.0154,-0.0239,-0.0135,0,0,0,0,0,0,0,0,0,0,0,0,0,0,0,0,0,0,0,0,0,0,0,0,-0.0236,-0.014,-0.006,-0.0025,0.0055,0.0217,0.0349,0.045,0.0536,0.0563,0.0549,0.0503,0.0393,0.017,-0.0069,-0.0264,-0.0343,-0.0302,-0.036,-0.0371,-0.0489,-0.0209,0,0,0,0,0,0,0,0,0,0,0,0,0,0,0,0,0,0,0,0,0,0,0,0,-0.0181,-0.0074,0.0049,0.0014,0.0148,0.0261,0.0346,0.0412,0.0442,0.0467,0.0486,0.047,0.0349,0.0126,-0.0047,-0.0236,-0.0349,-0.0277,-0.0209,-0.0244,-0.0398,-0.0222,0,0,0,0,0,0,0,0,0,0,0,0,0,0,0,0,0,0,0,0,0,0,0,0,-0.0165,-0.0025,0.0102,0.0148,0.0195,0.0327,0.0428,0.0508,0.0519,0.0494,0.0459,0.0407,0.0228,0.0044,-0.0096,-0.0277,-0.0387,-0.0368,-0.0266,-0.0157,-0.0272,-0.0423,0,0,0,0,0,0,0,0,0,0,0,0,0,0,0,0,0,0,0,0,0,0,0,0,0,-0.0014,0.0195,0.0184,0.0269,0.0492,0.0602,0.0681,0.0689,0.0637,0.0549,0.0439,0.0305,0.0154,-0.0033,-0.0173,-0.0321,-0.0382,-0.0404,-0.0376,-0.0409,-0.0626,0,0,0,0,0,0,0,0,0,0,0,0,0,0,0,0,0,0,0,0,0,0,0,0,0,-0.0008,0.0302,0.0206,0.0396,0.047,0.0667,0.0733,0.0742,0.0725,0.0692,0.0571,0.0445,0.0302,0.0124,-0.0027,-0.0168,-0.0244,-0.0277,-0.0343,-0.0445,-0.0591,0,0,0,0,0,0,0,0,0,0,0,0,0,0,0,0,0,0,0,0,0,0,0,0,0,0.0091,0.0393,0.0335,0.0316,0.061,0.0783,0.084,0.0821,0.0736,0.0689,0.0659,0.0519,0.0313,0.0162,-0.0022,-0.014,-0.0222,-0.031,-0.0291,-0.0288,-0.0349,0,0,0,0,0,0,0,0,0,0,0,0,0,0,0,0,0,0,0,0,0,0,0,0,0,0.0305,0.0544,0.0558,0.0357,0.0676,0.0879,0.092,0.0868,0.0744,0.056,0.0503,0.0494,0.0294,0.0069,-0.0063,-0.0228,-0.0415,-0.0602,-0.0571,-0.0505,-0.0453,0,0,0,0,0,0,0,0,0,0,0,0,0,0,0,0,0,0,0,0,0,0,0,0,0,0.0505,0.0714,0.0494,0.0453,0.0764,0.1046,0.1005,0.0931,0.0843,0.0632,0.0368,0.0286,0.0198,-0.003,-0.0187,-0.0291,-0.0494,-0.0722,-0.0788,-0.0739,-0.0626,0,0,0,0,0,0,0,0,0,0,0,0,0,0,0,0,0,0,0,0,0,0,0,0,0.0492,0.061,0.0563,0.0269,0.0618,0.1038,0.12,0.1156,0.1088,0.097,0.0794,0.0412,0.019,0.0102,-0.0085,-0.033,-0.0412,-0.0448,-0.0596,-0.0753,-0.0808,-0.0725,0,0,0,0,0,0,0,0,0,0,0,0,0,0,0,0,0,0,0,0,0,0,0,0,0.0593,0.0514,0.0247,0.0648,0.106,0.1338,0.1351,0.1269,0.1151,0.0986,0.0857,0.0678,0.0417,0.022,0.0016,-0.0275,-0.0516,-0.0563,-0.0514,-0.053,-0.0558,-0.0533,0,0,0,0,0,0,0,0,0,0,0,0,0,0,0,0,0,0,0,0,0,0,0.0607,0.0659,0.053,0.0327,0.0673,0.1129,0.1428,0.1582,0.1412,0.125,0.1068,0.1033,0.114,0.1214,0.095,0.0566,0.0231,-0.0099,-0.036,-0.0588,-0.0505,-0.047,-0.0464,-0.0423,0,0,0,0,0,0,0,0,0,0,0,0,0,0,0,0,0,0,0,0,0,0.0659,0.0747,0.0626,0.0478,0.0747,0.1145,0.1497,0.1632,0.1618,0.1409,0.1214,0.12,0.1313,0.1387,0.1384,0.1203,0.0854,0.0467,0.0055,-0.0316,-0.0656,-0.0876,-0.0717,-0.0286,-0.0157,0,0,0,0,0,0,0,0,0,0,0,0,0,0,0,0,0,0,0,0.0681,0.0742,0.0813,0.0824,0.0813,0.0994,0.1263,0.1475,0.1651,0.1744,0.1733,0.1645,0.1571,0.1519,0.1464,0.1409,0.1343,0.1178,0.0972,0.0742,0.0398,-0.0104,-0.0706,-0.1277,-0.1327,-0.1008,-0.0659]}],[{"header":{"parameterUnit":"m.s-1","parameterCategory":2,"la1":30.5641,"la2":29.4642,"lo1":-89.4342,"lo2":-87.9343,"dx":0.0333,"dy":0.0333,"nx":46,"ny":34,"refTime":"2023-01-15T00:00:00:Z","depth":"25","parameterNumber":2,"parameterNumberName":"U-component_of_CURRENTS"},"data":[0,0,0,0,0,0,0,0,0,0,0,0,0,0,0,0,0,0,0,0,0,0,0,0,0,0,0,0,0,0,0,0,0,0,0,0,0,0,0,0,0,0,0,0,0,0,0,0,0,0,0,0,0,0,0,0,0,0,0,0,0,0,0,0,0,0,0,0,0,0,0,0,0,0,0,0,0,0,0,0,0,0,0,0,0,0,0,0,0,0,0,0,0,0,0,0,0,0,0,0,0,0,0,0,0,0,0,0,0,0,0,0,0,0,0,0,0,0,0,0,0,0,0,0,0,0,0,0,0,0,0,0,0,0,0,0,0,0,0,0,0,0,0,0,0,0,0,0,0,0,0,0,0,0,0,0,0,0,0,0,0,0,0,0,0,0,0,0,0,0,0,0,0,0,0,0,0,0,0,0,0,0,0,0,0,0,0,0,0,0,0,0,0,0,0,0,0,0,0,0,0,0,0,0,0,0,0,0,0,0,0,0,0,0,0,0,0,0,0,0,0,0,0,0,0,0,0,0,0,0,0,0,0,0,0,0,0,0,0,0,0,0,0,0,0,0,0,0,0,0,0,0,0,0,0,0,0,0,0,0,0,0,0,0,0,0,0,0,0,0,0,0,0,0,0,0,0,0,0,0,0,0,0,0,0,0,0,0,0,0,0,0,0,0,0,0,0,0,0,0,0,0,0,0,0,0,0,0,0,0,0,0,0,0,0,0,0,0,0,0,0,0,0,0,0,0,0,0,0,0,0,0,0,0,0,0,0,0,0,0,0,0,0,0,0,0,0,0,0,0,0,0,0,0,0,0,0,0,0,0,0,0,0,0,0,0,0,0,0,0,0,0,0,0,0,0,0,0,0,0,0,0,0,0,0,0,0,0,0,0,0,0,0,0,0,0,0,0,0,0,0,0,0,0,0,0,0,0,0,0,0,0,0,0,0,0,0,0,0,0,0,0,0,0,0,0,0,0,0,0,0,0,0,0,0,0,0,0,0,0,0,0,0,0,0,0,0,0,0,0,0,0,0,0,0,0,0,0,0,0,0,0,0,0,0,0,0,0,0,0,0,0,0,0,0,0,0,0,0,0,0,0,0,0,0,0,0,0,0,0,0,0,0,0,0,0,0,0,0,0,0,0,0,0,0,0,0,0,0,0,0,0,0,0,0,0,0,0,0,0,0,0,0,0,0,0,0,0,0,0,0,0,0,0,0,0,0,0,0,0,0,0,0,0,0,0,0,0,0,0,0,0,0,0,0,0,0,0,0,0,0,0,0,0,0,0,0,0,0,0,0,0,0,0,0,0,0,0,0,0,0,0,0,0,0,0,0,0,0,0,0,0,0,0,0,0,0,0,0,0,0,0,0,0,0,0,0,0,0,0,0,0,0,0,0,0,0,0,0,0,0,0,0,0,0,0,0,0,0,0,0,0,0,0,0,0,0,0,0,0,0,0,0,0,0,0,0,0,0,0,0,0,0,0,0,0,0,0,0,0,0,0,0,0,0,0,0,0,0,0,0,0,0,0,0,0,0,0,0,0,0,0,0,0,0,0,0,0,0,0,0,0,0,0,0,0,0,0,0,0,0,0,0,0,0,0,0,0,0,0,0,0,0,0,0,0,0,0,0,0,0,0,0,0,0,0,0,0,0,0,0,0,0,0,0,0,0,0,0,0,0,0,0,0,0,0,0,0,0,0,0,0,0,0,0,0,0,0,0,0,0,0,0,0,0,0,0,0,0,0,0,0,0,0,0,0,0,0,0,0,0,0,0,0,0,0,0,0,0,0,0,0,0,0,0,0,0,0,0,0,0,0,0,0,0,0,0,0,0,0,0,0.0129,0.0203,0.0272,0.033,0.0398,0.0461,0.0497,0,0,0,0,0,0,0,0,0,0,0,0,0,0,0,0,0,0,0,0,0,0,0,0,0,0,0,0,0,0,0,0,0,0,0,0,0,0.0146,0.0239,0.0299,0.033,0.033,0.0308,0.0305,0.0354,0.042,0.0481,0.0547,0.061,0.0618,0.0582,0,0,0,0,0,0,0,0,0,0,0,0,0,0,0,0,0,0,0,0,0,0,0,0,0,0,0,0,0,0,0,0,0.0016,0.0036,0.0077,0.0102,0.0146,0.0179,0.022,0.0286,0.0368,0.0472,0.0599,0.0698,0.0739,0.0728,0.0673,0.0599,0.056,0.0511,0.0379,0,0,0,0,0,0,0,0,0,0,0,0,0,0,0,0,0,0,0,0,0,0,0,0,0,0,0,0.0104,0.0126,0.0184,0.0272,0.0324,0.0332,0.0382,0.0464,0.0558,0.0645,0.0717,0.0783,0.0832,0.0915,0.0956,0.0829,0.07,0.0621,0.0563,0,0,0,0,0,0,0,0,0,0,0,0,0,0,0,0,0,0,0,0,0,0,0,0,0,0,0,0.0016,0.0071,0.0132,0.0211,0.0236,0.0272,0.0327,0.0409,0.0525,0.0634,0.0725,0.0824,0.0868,0.0884,0.0926,0.0895,0.0755,0.0687,0.0654,0,0,0,0,0,0,0,0,0,0,0,0,0,0,0,0,0,0,0,0,0,0,0,0,0,0,0,-0.0038,0.0093,0.0181,0.0228,0.0255,0.0258,0.0299,0.0412,0.0549,0.0667,0.0744,0.0799,0.0832,0.0821,0.0838,0.0846,0.0739,0.0662,0.0615,0,0,0,0,0,0,0,0,0,0,0,0,0,0,0,0,0,0,0,0,0,0,0,0,0,0,-0.0132,-0.0044,0.0044,0.0157,0.0302,0.0456,0.0492,0.0417,0.039,0.0448,0.0569,0.0689,0.0758,0.0788,0.0819,0.0808,0.0783,0.0722,0.0626,0.0555,0,0,0,0,0,0,0,0,0,0,0,0,0,0,0,0,0,0,0,0,0,0,0,0,0,0,-0.022,-0.0121,-0.0008,0.0162,0.0305,0.0448,0.0629,0.0692,0.0613,0.0563,0.0591,0.064,0.0689,0.0722,0.0709,0.0687,0.0695,0.0651,0.0588,0.0508,0,0,0,0,0,0,0,0,0,0,0,0,0,0,0,0,0,0,0,0,0,0,0,0,0,0,0,-0.0181,-0.003,0.0176,0.0297,0.0434,0.0593,0.0747,0.0819,0.0802,0.0783,0.0786,0.0761,0.0717,0.0687,0.0613,0.0618,0.0709,0.0692,0.0626,0,0,0,0,0,0,0,0,0,0,0,0,0,0,0,0,0,0,0,0,0,0,0,0,0,0,0,-0.0151,0.008,0.0233,0.0354,0.0492,0.064,0.0797,0.092,0.0937,0.0887,0.0851,0.0876,0.0917,0.0917,0.0816,0.0667,0.067,0.0827,0.0862,0,0,0,0,0,0,0,0,0,0,0,0,0,0,0,0,0,0,0,0,0,0,0,0,0,0,0,0.0038,0.0313,0.0371,0.0439,0.0522,0.0643,0.0797,0.0994,0.1178,0.1123,0.0972,0.0948,0.1077,0.1209,0.1285,0.1231,0.1022,0.0851,0.0832,0,0,0,0,0,0,0,0,0,0,0,0,0,0,0,0,0,0,0,0,0,0,0,0,0,0,-0.0008,0.0354,0.0508,0.0541,0.0505,0.056,0.0645,0.0755,0.0904,0.114,0.1371,0.131,0.1052,0.0967,0.1211,0.1426,0.1464,0.1426,0.1291,0.1099,0,0,0,0,0,0,0,0,0,0,0,0,0,0,0,0,0,0,0,0,0,0,0,0,0,0,0.025,0.0574,0.0615,0.0574,0.0574,0.0634,0.0689,0.0755,0.0857,0.1052,0.1346,0.1552,0.1431,0.1071,0.0953,0.1156,0.1371,0.1442,0.1447,0.134,0,0,0,0,0,0,0,0,0,0,0,0,0,0,0,0,0,0,0,0,0,0,0,0,0,0.0179,0.0508,0.0596,0.0692,0.0689,0.075,0.0797,0.0816,0.0832,0.0868,0.0989,0.1283,0.1568,0.1656,0.1464,0.1041,0.0909,0.1052,0.1261,0.1376,0.1417,0,0,0,0,0,0,0,0,0,0,0,0,0,0,0,0,0,0,0,0,0,0,0,0,0.0379,0.0607,0.0788,0.0898,0.0953,0.0986,0.1008,0.1016,0.1016,0.1027,0.1008,0.1038,0.1154,0.1294,0.148,0.1549,0.1316,0.1035,0.1019,0.117,0.1362,0.1513,0,0,0,0,0,0,0,0,0,0,0,0,0,0,0,0,0,0,0,0,0,0,0,0.0728,0.1008,0.1222,0.1236,0.1231,0.1247,0.1269,0.1305,0.1382,0.1415,0.1263,0.1085,0.1071,0.1079,0.117,0.1406,0.1634,0.1645,0.1513,0.1486,0.1755,0.2057,0.2313,0,0,0,0,0,0,0,0,0,0,0,0,0,0,0,0,0,0,0,0,0,0.0637,0.0956,0.1214,0.1409,0.1516,0.1593,0.1673,0.1802,0.1947,0.2107,0.2173,0.1994,0.1711,0.1568,0.156,0.1634,0.1807,0.2129,0.2596,0.306,0.3227,0.3057,0.2799,0.2714,0.3016]},{"header":{"parameterUnit":"m.s-1","parameterCategory":2,"la1":30.5641,"la2":29.4642,"lo1":-89.4342,"lo2":-87.9343,"dx":0.0333,"dy":0.0333,"nx":46,"ny":34,"refTime":"2023-01-15T00:00:00:Z","depth":"25","parameterNumber":3,"parameterNumberName":"V-component_of_CURRENTS"},"data":[0,0,0,0,0,0,0,0,0,0,0,0,0,0,0,0,0,0,0,0,0,0,0,0,0,0,0,0,0,0,0,0,0,0,0,0,0,0,0,0,0,0,0,0,0,0,0,0,0,0,0,0,0,0,0,0,0,0,0,0,0,0,0,0,0,0,0,0,0,0,0,0,0,0,0,0,0,0,0,0,0,0,0,0,0,0,0,0,0,0,0,0,0,0,0,0,0,0,0,0,0,0,0,0,0,0,0,0,0,0,0,0,0,0,0,0,0,0,0,0,0,0,0,0,0,0,0,0,0,0,0,0,0,0,0,0,0,0,0,0,0,0,0,0,0,0,0,0,0,0,0,0,0,0,0,0,0,0,0,0,0,0,0,0,0,0,0,0,0,0,0,0,0,0,0,0,0,0,0,0,0,0,0,0,0,0,0,0,0,0,0,0,0,0,0,0,0,0,0,0,0,0,0,0,0,0,0,0,0,0,0,0,0,0,0,0,0,0,0,0,0,0,0,0,0,0,0,0,0,0,0,0,0,0,0,0,0,0,0,0,0,0,0,0,0,0,0,0,0,0,0,0,0,0,0,0,0,0,0,0,0,0,0,0,0,0,0,0,0,0,0,0,0,0,0,0,0,0,0,0,0,0,0,0,0,0,0,0,0,0,0,0,0,0,0,0,0,0,0,0,0,0,0,0,0,0,0,0,0,0,0,0,0,0,0,0,0,0,0,0,0,0,0,0,0,0,0,0,0,0,0,0,0,0,0,0,0,0,0,0,0,0,0,0,0,0,0,0,0,0,0,0,0,0,0,0,0,0,0,0,0,0,0,0,0,0,0,0,0,0,0,0,0,0,0,0,0,0,0,0,0,0,0,0,0,0,0,0,0,0,0,0,0,0,0,0,0,0,0,0,0,0,0,0,0,0,0,0,0,0,0,0,0,0,0,0,0,0,0,0,0,0,0,0,0,0,0,0,0,0,0,0,0,0,0,0,0,0,0,0,0,0,0,0,0,0,0,0,0,0,0,0,0,0,0,0,0,0,0,0,0,0,0,0,0,0,0,0,0,0,0,0,0,0,0,0,0,0,0,0,0,0,0,0,0,0,0,0,0,0,0,0,0,0,0,0,0,0,0,0,0,0,0,0,0,0,0,0,0,0,0,0,0,0,0,0,0,0,0,0,0,0,0,0,0,0,0,0,0,0,0,0,0,0,0,0,0,0,0,0,0,0,0,0,0,0,0,0,0,0,0,0,0,0,0,0,0,0,0,0,0,0,0,0,0,0,0,0,0,0,0,0,0,0,0,0,0,0,0,0,0,0,0,0,0,0,0,0,0,0,0,0,0,0,0,0,0,0,0,0,0,0,0,0,0,0,0,0,0,0,0,0,0,0,0,0,0,0,0,0,0,0,0,0,0,0,0,0,0,0,0,0,0,0,0,0,0,0,0,0,0,0,0,0,0,0,0,0,0,0,0,0,0,0,0,0,0,0,0,0,0,0,0,0,0,0,0,0,0,0,0,0,0,0,0,0,0,0,0,0,0,0,0,0,0,0,0,0,0,0,0,0,0,0,0,0,0,0,0,0,0,0,0,0,0,0,0,0,0,0,0,0,0,0,0,0,0,0,0,0,0,0,0,0,0,0,0,0,0,0,0,0,0,0,0,0,0,0,0,0,0,0,0,0,0,0,0,0,0,0,0,0,0,0,0,0,0,0,0,0,0,0,0,0,0,0,0,0,0,0,0,0,0,0,0,0,0,0,0,0,0,0,0,0,0,0,0,0,0,0,0,0,0,0,0,0,0,0,0,0,0,0,0,0,0,0,0,0,0,0,0,0.0148,0.0195,0.0236,0.0283,0.0297,0.0302,0.0294,0,0,0,0,0,0,0,0,0,0,0,0,0,0,0,0,0,0,0,0,0,0,0,0,0,0,0,0,0,0,0,0,0,0,0,0,0,-0.0148,-0.0055,0.0049,0.0126,0.017,0.0231,0.0239,0.0264,0.0253,0.0231,0.0211,0.0165,0.0148,0.0157,0,0,0,0,0,0,0,0,0,0,0,0,0,0,0,0,0,0,0,0,0,0,0,0,0,0,0,0,0,0,0,0,0.0074,0.0124,0.0181,0.0255,0.0288,0.0291,0.022,0.0198,0.0071,0.0038,0.0077,0.0129,0.0173,0.0236,0.0286,0.0305,0.0244,0.0214,0.0157,0,0,0,0,0,0,0,0,0,0,0,0,0,0,0,0,0,0,0,0,0,0,0,0,0,0,0,0.0217,0.0253,0.0275,0.0338,0.0371,0.0404,0.0409,0.0382,0.0269,0.019,0.0129,0.0132,0.0192,0.0244,0.0244,0.0231,0.0157,0.0071,0.0063,0,0,0,0,0,0,0,0,0,0,0,0,0,0,0,0,0,0,0,0,0,0,0,0,0,0,0,0.0211,0.025,0.0319,0.0396,0.0442,0.0461,0.0472,0.0442,0.0393,0.0302,0.0203,0.0137,0.0121,0.0102,0.0049,-0.0016,-0.0096,-0.0126,-0.0115,0,0,0,0,0,0,0,0,0,0,0,0,0,0,0,0,0,0,0,0,0,0,0,0,0,0,0,0.022,0.0327,0.0461,0.0527,0.0549,0.0571,0.0593,0.0582,0.0527,0.0412,0.0272,0.0154,0.0077,-0.0022,-0.0085,-0.0236,-0.0299,-0.0349,-0.0297,0,0,0,0,0,0,0,0,0,0,0,0,0,0,0,0,0,0,0,0,0,0,0,0,0,0,0.011,0.0258,0.0445,0.0549,0.0604,0.0618,0.0585,0.058,0.0604,0.0552,0.0417,0.025,0.0107,0.0033,-0.0093,-0.0179,-0.0324,-0.039,-0.0409,-0.0371,0,0,0,0,0,0,0,0,0,0,0,0,0,0,0,0,0,0,0,0,0,0,0,0,0,0,0.0135,0.036,0.0538,0.061,0.0711,0.0742,0.0667,0.0588,0.0555,0.0558,0.0489,0.0305,0.008,-0.0058,-0.0151,-0.0236,-0.0291,-0.0349,-0.0363,-0.0332,0,0,0,0,0,0,0,0,0,0,0,0,0,0,0,0,0,0,0,0,0,0,0,0,0,0,0,0.0472,0.0618,0.0753,0.0827,0.0849,0.0827,0.0739,0.0577,0.0428,0.0407,0.0354,0.014,-0.0096,-0.0253,-0.0327,-0.0266,-0.022,-0.0275,-0.0242,0,0,0,0,0,0,0,0,0,0,0,0,0,0,0,0,0,0,0,0,0,0,0,0,0,0,0,0.0596,0.0744,0.089,0.0904,0.0904,0.0876,0.0835,0.0722,0.0492,0.0239,0.0132,0.0063,-0.0135,-0.0346,-0.0497,-0.0527,-0.0327,-0.0299,-0.0247,0,0,0,0,0,0,0,0,0,0,0,0,0,0,0,0,0,0,0,0,0,0,0,0,0,0,0,0.0766,0.0923,0.0939,0.0959,0.0912,0.0857,0.0805,0.0739,0.0615,0.0352,-0.003,-0.0275,-0.0371,-0.0516,-0.0585,-0.0648,-0.0656,-0.061,-0.0478,0,0,0,0,0,0,0,0,0,0,0,0,0,0,0,0,0,0,0,0,0,0,0,0,0,0,0.0613,0.0871,0.0989,0.1003,0.1003,0.0961,0.089,0.0805,0.0714,0.0602,0.0401,0.0099,-0.0376,-0.0689,-0.0758,-0.0645,-0.0527,-0.0607,-0.0654,-0.0632,0,0,0,0,0,0,0,0,0,0,0,0,0,0,0,0,0,0,0,0,0,0,0,0,0,0,0.0709,0.0915,0.0994,0.1159,0.1154,0.1126,0.1052,0.0937,0.0805,0.0665,0.042,0.011,-0.0217,-0.0662,-0.086,-0.0711,-0.0552,-0.0508,-0.0508,-0.0481,0,0,0,0,0,0,0,0,0,0,0,0,0,0,0,0,0,0,0,0,0,0,0,0,0,0.064,0.0851,0.0983,0.1247,0.1343,0.1307,0.1247,0.1167,0.1049,0.0901,0.0744,0.0483,0.0022,-0.0283,-0.0549,-0.0775,-0.067,-0.0492,-0.0428,-0.0401,-0.0308,0,0,0,0,0,0,0,0,0,0,0,0,0,0,0,0,0,0,0,0,0,0,0,0,0.0684,0.086,0.1022,0.1263,0.1456,0.1445,0.1371,0.1274,0.1167,0.1016,0.0857,0.0714,0.0459,0.0069,-0.0341,-0.0569,-0.0706,-0.0566,-0.0308,-0.0264,-0.0288,-0.0214,0,0,0,0,0,0,0,0,0,0,0,0,0,0,0,0,0,0,0,0,0,0,0,0.0747,0.0906,0.1079,0.1351,0.1494,0.1546,0.1502,0.1417,0.1239,0.1011,0.0882,0.0871,0.0937,0.0898,0.0591,0.0102,-0.0275,-0.0445,-0.0483,-0.0533,-0.0508,-0.0184,-0.0104,0,0,0,0,0,0,0,0,0,0,0,0,0,0,0,0,0,0,0,0,0,0.072,0.0849,0.1005,0.1192,0.1412,0.1645,0.1656,0.1645,0.1552,0.1373,0.1115,0.0926,0.1008,0.12,0.1332,0.1362,0.1225,0.0893,0.0475,0.0041,-0.0346,-0.072,-0.0706,-0.0549,-0.0407]}]]